<?xml version="1.0" encoding="UTF-8" standalone="no" ?>
<gpx xmlns="http://www.topografix.com/GPX/1/1" xmlns:xsi="http://www.w3.org/2001/XMLSchema-instance" xsi:schemaLocation="http://www.topografix.com/GPX/1/1 http://www.topografix.com/GPX/1/1/gpx.xsd" version="1.1" creator="VisuGPX - https://www.visugpx.com">
  <metadata>
    <name>Oisans / Trièves - Etape 1</name>
    <desc><![CDATA[Oisans / Trièves
Etape 1 :  De Bourg d'Oisans à La Mure par Séchilienne, Laffrey, les corniches du Drac]]></desc>
  </metadata>
  <wpt lat="45.05506" lon="6.02986">
    <ele>725</ele>
    <name><![CDATA[TO - Bourg d'Oisans / La Mure]]></name>
    <type><![CDATA[Generic]]></type>
  </wpt>
  <trk>
    <name><![CDATA[TO - Bourg d'Oisans / La Mure]]></name>
    <trkseg>
      <trkpt lat="45.05506" lon="6.02986">
        <ele>725</ele>
        <time>2017-12-15T18:32:29Z</time>
      </trkpt>
      <trkpt lat="45.05511" lon="6.02985">
        <ele>725</ele>
        <time>2017-12-15T18:32:41Z</time>
      </trkpt>
      <trkpt lat="45.05516" lon="6.02981">
        <ele>725</ele>
        <time>2017-12-15T18:32:48Z</time>
      </trkpt>
      <trkpt lat="45.05526" lon="6.02977">
        <ele>724</ele>
        <time>2017-12-15T18:33:05Z</time>
      </trkpt>
      <trkpt lat="45.05553" lon="6.0297">
        <ele>724</ele>
        <time>2017-12-15T18:33:15Z</time>
      </trkpt>
      <trkpt lat="45.05566" lon="6.02969">
        <ele>723</ele>
        <time>2017-12-15T18:33:32Z</time>
      </trkpt>
      <trkpt lat="45.05597" lon="6.02965">
        <ele>722</ele>
        <time>2017-12-15T18:33:42Z</time>
      </trkpt>
      <trkpt lat="45.05627" lon="6.02958">
        <ele>722</ele>
        <time>2017-12-15T18:33:45Z</time>
      </trkpt>
      <trkpt lat="45.05663" lon="6.02953">
        <ele>722</ele>
        <time>2017-12-15T18:34:00Z</time>
      </trkpt>
      <trkpt lat="45.05707" lon="6.02939">
        <ele>722</ele>
        <time>2017-12-15T18:34:02Z</time>
      </trkpt>
      <trkpt lat="45.05734" lon="6.02923">
        <ele>721</ele>
        <time>2017-12-15T18:34:22Z</time>
      </trkpt>
      <trkpt lat="45.0577" lon="6.02898">
        <ele>722</ele>
        <time>2017-12-15T18:34:41Z</time>
      </trkpt>
      <trkpt lat="45.0582" lon="6.02863">
        <ele>722</ele>
        <time>2017-12-15T18:34:51Z</time>
      </trkpt>
      <trkpt lat="45.05982" lon="6.02736">
        <ele>719</ele>
        <time>2017-12-15T18:34:53Z</time>
      </trkpt>
      <trkpt lat="45.06224" lon="6.02551">
        <ele>718</ele>
        <time>2017-12-15T18:35:00Z</time>
      </trkpt>
      <trkpt lat="45.06282" lon="6.02509">
        <ele>719</ele>
        <time>2017-12-15T18:35:18Z</time>
      </trkpt>
      <trkpt lat="45.06291" lon="6.02508">
        <ele>719</ele>
        <time>2017-12-15T18:35:24Z</time>
      </trkpt>
      <trkpt lat="45.06316" lon="6.02489">
        <ele>718</ele>
        <time>2017-12-15T18:35:43Z</time>
      </trkpt>
      <trkpt lat="45.06331" lon="6.02483">
        <ele>718</ele>
        <time>2017-12-15T18:36:03Z</time>
      </trkpt>
      <trkpt lat="45.06345" lon="6.02482">
        <ele>719</ele>
        <time>2017-12-15T18:36:09Z</time>
      </trkpt>
      <trkpt lat="45.06348" lon="6.02485">
        <ele>719</ele>
        <time>2017-12-15T18:36:24Z</time>
      </trkpt>
      <trkpt lat="45.06353" lon="6.02489">
        <ele>719</ele>
        <time>2017-12-15T18:36:41Z</time>
      </trkpt>
      <trkpt lat="45.0636" lon="6.02491">
        <ele>719</ele>
        <time>2017-12-15T18:36:43Z</time>
      </trkpt>
      <trkpt lat="45.06367" lon="6.02488">
        <ele>719</ele>
        <time>2017-12-15T18:36:49Z</time>
      </trkpt>
      <trkpt lat="45.06372" lon="6.02483">
        <ele>719</ele>
        <time>2017-12-15T18:37:08Z</time>
      </trkpt>
      <trkpt lat="45.06378" lon="6.02468">
        <ele>719</ele>
        <time>2017-12-15T18:37:23Z</time>
      </trkpt>
      <trkpt lat="45.06377" lon="6.02459">
        <ele>719</ele>
        <time>2017-12-15T18:37:40Z</time>
      </trkpt>
      <trkpt lat="45.06388" lon="6.0244">
        <ele>719</ele>
        <time>2017-12-15T18:37:53Z</time>
      </trkpt>
      <trkpt lat="45.06406" lon="6.02417">
        <ele>719</ele>
        <time>2017-12-15T18:38:09Z</time>
      </trkpt>
      <trkpt lat="45.06449" lon="6.02382">
        <ele>719</ele>
        <time>2017-12-15T18:38:19Z</time>
      </trkpt>
      <trkpt lat="45.06513" lon="6.02333">
        <ele>719</ele>
        <time>2017-12-15T18:38:21Z</time>
      </trkpt>
      <trkpt lat="45.06641" lon="6.02239">
        <ele>718</ele>
        <time>2017-12-15T18:38:30Z</time>
      </trkpt>
      <trkpt lat="45.06806" lon="6.02109">
        <ele>715</ele>
        <time>2017-12-15T18:38:50Z</time>
      </trkpt>
      <trkpt lat="45.06938" lon="6.02009">
        <ele>719</ele>
        <time>2017-12-15T18:38:58Z</time>
      </trkpt>
      <trkpt lat="45.07151" lon="6.01856">
        <ele>742</ele>
        <time>2017-12-15T18:39:18Z</time>
      </trkpt>
      <trkpt lat="45.07228" lon="6.01793">
        <ele>728</ele>
        <time>2017-12-15T18:39:37Z</time>
      </trkpt>
      <trkpt lat="45.07272" lon="6.01764">
        <ele>723</ele>
        <time>2017-12-15T18:39:57Z</time>
      </trkpt>
      <trkpt lat="45.07317" lon="6.01728">
        <ele>725</ele>
        <time>2017-12-15T18:40:17Z</time>
      </trkpt>
      <trkpt lat="45.07354" lon="6.01692">
        <ele>726</ele>
        <time>2017-12-15T18:40:28Z</time>
      </trkpt>
      <trkpt lat="45.07409" lon="6.0165">
        <ele>728</ele>
        <time>2017-12-15T18:40:38Z</time>
      </trkpt>
      <trkpt lat="45.07609" lon="6.01494">
        <ele>723</ele>
        <time>2017-12-15T18:40:51Z</time>
      </trkpt>
      <trkpt lat="45.07627" lon="6.01483">
        <ele>723</ele>
        <time>2017-12-15T18:40:57Z</time>
      </trkpt>
      <trkpt lat="45.07649" lon="6.01474">
        <ele>723</ele>
        <time>2017-12-15T18:41:08Z</time>
      </trkpt>
      <trkpt lat="45.0784" lon="6.01428">
        <ele>717</ele>
        <time>2017-12-15T18:41:18Z</time>
      </trkpt>
      <trkpt lat="45.08174" lon="6.01349">
        <ele>717</ele>
        <time>2017-12-15T18:41:37Z</time>
      </trkpt>
      <trkpt lat="45.08567" lon="6.01255">
        <ele>715</ele>
        <time>2017-12-15T18:41:39Z</time>
      </trkpt>
      <trkpt lat="45.08897" lon="6.01177">
        <ele>714</ele>
        <time>2017-12-15T18:41:47Z</time>
      </trkpt>
      <trkpt lat="45.08963" lon="6.01162">
        <ele>714</ele>
        <time>2017-12-15T18:42:06Z</time>
      </trkpt>
      <trkpt lat="45.0898" lon="6.01161">
        <ele>714</ele>
        <time>2017-12-15T18:42:11Z</time>
      </trkpt>
      <trkpt lat="45.09001" lon="6.01161">
        <ele>714</ele>
        <time>2017-12-15T18:42:29Z</time>
      </trkpt>
      <trkpt lat="45.09022" lon="6.01162">
        <ele>714</ele>
        <time>2017-12-15T18:42:33Z</time>
      </trkpt>
      <trkpt lat="45.09035" lon="6.01162">
        <ele>714</ele>
        <time>2017-12-15T18:42:52Z</time>
      </trkpt>
      <trkpt lat="45.09051" lon="6.01155">
        <ele>714</ele>
        <time>2017-12-15T18:43:07Z</time>
      </trkpt>
      <trkpt lat="45.09073" lon="6.0114">
        <ele>714</ele>
        <time>2017-12-15T18:43:09Z</time>
      </trkpt>
      <trkpt lat="45.09094" lon="6.0113">
        <ele>714</ele>
        <time>2017-12-15T18:43:15Z</time>
      </trkpt>
      <trkpt lat="45.09341" lon="6.01072">
        <ele>712</ele>
        <time>2017-12-15T18:43:17Z</time>
      </trkpt>
      <trkpt lat="45.09691" lon="6.0099">
        <ele>712</ele>
        <time>2017-12-15T18:43:19Z</time>
      </trkpt>
      <trkpt lat="45.09697" lon="6.00991">
        <ele>712</ele>
        <time>2017-12-15T18:43:34Z</time>
      </trkpt>
      <trkpt lat="45.0971" lon="6.00987">
        <ele>712</ele>
        <time>2017-12-15T18:43:52Z</time>
      </trkpt>
      <trkpt lat="45.09726" lon="6.0098">
        <ele>712</ele>
        <time>2017-12-15T18:44:08Z</time>
      </trkpt>
      <trkpt lat="45.09751" lon="6.00965">
        <ele>713</ele>
        <time>2017-12-15T18:44:12Z</time>
      </trkpt>
      <trkpt lat="45.09771" lon="6.00959">
        <ele>713</ele>
        <time>2017-12-15T18:44:20Z</time>
      </trkpt>
      <trkpt lat="45.09796" lon="6.00963">
        <ele>713</ele>
        <time>2017-12-15T18:44:22Z</time>
      </trkpt>
      <trkpt lat="45.09824" lon="6.00958">
        <ele>714</ele>
        <time>2017-12-15T18:44:38Z</time>
      </trkpt>
      <trkpt lat="45.09837" lon="6.00957">
        <ele>714</ele>
        <time>2017-12-15T18:44:41Z</time>
      </trkpt>
      <trkpt lat="45.0994" lon="6.00932">
        <ele>714</ele>
        <time>2017-12-15T18:45:01Z</time>
      </trkpt>
      <trkpt lat="45.10481" lon="6.00803">
        <ele>713</ele>
        <time>2017-12-15T18:45:19Z</time>
      </trkpt>
      <trkpt lat="45.10861" lon="6.00715">
        <ele>711</ele>
        <time>2017-12-15T18:45:35Z</time>
      </trkpt>
      <trkpt lat="45.11053" lon="6.00669">
        <ele>712</ele>
        <time>2017-12-15T18:45:47Z</time>
      </trkpt>
      <trkpt lat="45.11242" lon="6.00621">
        <ele>714</ele>
        <time>2017-12-15T18:45:56Z</time>
      </trkpt>
      <trkpt lat="45.11322" lon="6.00604">
        <ele>719</ele>
        <time>2017-12-15T18:46:12Z</time>
      </trkpt>
      <trkpt lat="45.11362" lon="6.00592">
        <ele>718</ele>
        <time>2017-12-15T18:46:20Z</time>
      </trkpt>
      <trkpt lat="45.11401" lon="6.00577">
        <ele>719</ele>
        <time>2017-12-15T18:46:29Z</time>
      </trkpt>
      <trkpt lat="45.11423" lon="6.0056">
        <ele>713</ele>
        <time>2017-12-15T18:46:38Z</time>
      </trkpt>
      <trkpt lat="45.11437" lon="6.00539">
        <ele>714</ele>
        <time>2017-12-15T18:46:52Z</time>
      </trkpt>
      <trkpt lat="45.11455" lon="6.00498">
        <ele>717</ele>
        <time>2017-12-15T18:47:06Z</time>
      </trkpt>
      <trkpt lat="45.11462" lon="6.00456">
        <ele>718</ele>
        <time>2017-12-15T18:47:23Z</time>
      </trkpt>
      <trkpt lat="45.11464" lon="6.00406">
        <ele>722</ele>
        <time>2017-12-15T18:47:41Z</time>
      </trkpt>
      <trkpt lat="45.11463" lon="6.00335">
        <ele>723</ele>
        <time>2017-12-15T18:47:52Z</time>
      </trkpt>
      <trkpt lat="45.1147" lon="6.0027">
        <ele>730</ele>
        <time>2017-12-15T18:47:56Z</time>
      </trkpt>
      <trkpt lat="45.11536" lon="5.99708">
        <ele>722</ele>
        <time>2017-12-15T18:48:11Z</time>
      </trkpt>
      <trkpt lat="45.11673" lon="5.98533">
        <ele>722</ele>
        <time>2017-12-15T18:48:15Z</time>
      </trkpt>
      <trkpt lat="45.11739" lon="5.9797">
        <ele>716</ele>
        <time>2017-12-15T18:48:27Z</time>
      </trkpt>
      <trkpt lat="45.11807" lon="5.97386">
        <ele>723</ele>
        <time>2017-12-15T18:48:31Z</time>
      </trkpt>
      <trkpt lat="45.11815" lon="5.97305">
        <ele>727</ele>
        <time>2017-12-15T18:48:49Z</time>
      </trkpt>
      <trkpt lat="45.11816" lon="5.9725">
        <ele>723</ele>
        <time>2017-12-15T18:49:03Z</time>
      </trkpt>
      <trkpt lat="45.11809" lon="5.97192">
        <ele>724</ele>
        <time>2017-12-15T18:49:08Z</time>
      </trkpt>
      <trkpt lat="45.11791" lon="5.97119">
        <ele>721</ele>
        <time>2017-12-15T18:49:11Z</time>
      </trkpt>
      <trkpt lat="45.11744" lon="5.97016">
        <ele>721</ele>
        <time>2017-12-15T18:49:17Z</time>
      </trkpt>
      <trkpt lat="45.11682" lon="5.96899">
        <ele>718</ele>
        <time>2017-12-15T18:49:33Z</time>
      </trkpt>
      <trkpt lat="45.11666" lon="5.96865">
        <ele>729</ele>
        <time>2017-12-15T18:49:38Z</time>
      </trkpt>
      <trkpt lat="45.11651" lon="5.96823">
        <ele>729</ele>
        <time>2017-12-15T18:49:57Z</time>
      </trkpt>
      <trkpt lat="45.11645" lon="5.96778">
        <ele>733</ele>
        <time>2017-12-15T18:50:03Z</time>
      </trkpt>
      <trkpt lat="45.11648" lon="5.96599">
        <ele>726</ele>
        <time>2017-12-15T18:50:07Z</time>
      </trkpt>
      <trkpt lat="45.1165" lon="5.96436">
        <ele>725</ele>
        <time>2017-12-15T18:50:19Z</time>
      </trkpt>
      <trkpt lat="45.1165" lon="5.96338">
        <ele>722</ele>
        <time>2017-12-15T18:50:30Z</time>
      </trkpt>
      <trkpt lat="45.11645" lon="5.96294">
        <ele>720</ele>
        <time>2017-12-15T18:50:38Z</time>
      </trkpt>
      <trkpt lat="45.1163" lon="5.96251">
        <ele>719</ele>
        <time>2017-12-15T18:50:43Z</time>
      </trkpt>
      <trkpt lat="45.11613" lon="5.9622">
        <ele>717</ele>
        <time>2017-12-15T18:50:58Z</time>
      </trkpt>
      <trkpt lat="45.11592" lon="5.96191">
        <ele>717</ele>
        <time>2017-12-15T18:51:01Z</time>
      </trkpt>
      <trkpt lat="45.1154" lon="5.96117">
        <ele>714</ele>
        <time>2017-12-15T18:51:14Z</time>
      </trkpt>
      <trkpt lat="45.11492" lon="5.96048">
        <ele>712</ele>
        <time>2017-12-15T18:51:31Z</time>
      </trkpt>
      <trkpt lat="45.1142" lon="5.95956">
        <ele>712</ele>
        <time>2017-12-15T18:51:45Z</time>
      </trkpt>
      <trkpt lat="45.11387" lon="5.95911">
        <ele>715</ele>
        <time>2017-12-15T18:51:58Z</time>
      </trkpt>
      <trkpt lat="45.1138" lon="5.95881">
        <ele>715</ele>
        <time>2017-12-15T18:52:11Z</time>
      </trkpt>
      <trkpt lat="45.11381" lon="5.9586">
        <ele>715</ele>
        <time>2017-12-15T18:52:13Z</time>
      </trkpt>
      <trkpt lat="45.11386" lon="5.95844">
        <ele>714</ele>
        <time>2017-12-15T18:52:23Z</time>
      </trkpt>
      <trkpt lat="45.11399" lon="5.95827">
        <ele>712</ele>
        <time>2017-12-15T18:52:41Z</time>
      </trkpt>
      <trkpt lat="45.11413" lon="5.95808">
        <ele>712</ele>
        <time>2017-12-15T18:52:56Z</time>
      </trkpt>
      <trkpt lat="45.11419" lon="5.95789">
        <ele>718</ele>
        <time>2017-12-15T18:53:08Z</time>
      </trkpt>
      <trkpt lat="45.1142" lon="5.95772">
        <ele>718</ele>
        <time>2017-12-15T18:53:25Z</time>
      </trkpt>
      <trkpt lat="45.11415" lon="5.9575">
        <ele>717</ele>
        <time>2017-12-15T18:53:34Z</time>
      </trkpt>
      <trkpt lat="45.11397" lon="5.95716">
        <ele>716</ele>
        <time>2017-12-15T18:53:48Z</time>
      </trkpt>
      <trkpt lat="45.11374" lon="5.95676">
        <ele>716</ele>
        <time>2017-12-15T18:53:54Z</time>
      </trkpt>
      <trkpt lat="45.11366" lon="5.95651">
        <ele>717</ele>
        <time>2017-12-15T18:54:06Z</time>
      </trkpt>
      <trkpt lat="45.1136" lon="5.95618">
        <ele>716</ele>
        <time>2017-12-15T18:54:12Z</time>
      </trkpt>
      <trkpt lat="45.1135" lon="5.95493">
        <ele>714</ele>
        <time>2017-12-15T18:54:22Z</time>
      </trkpt>
      <trkpt lat="45.11345" lon="5.95293">
        <ele>713</ele>
        <time>2017-12-15T18:54:40Z</time>
      </trkpt>
      <trkpt lat="45.11328" lon="5.95087">
        <ele>703</ele>
        <time>2017-12-15T18:54:51Z</time>
      </trkpt>
      <trkpt lat="45.11316" lon="5.95">
        <ele>700</ele>
        <time>2017-12-15T18:54:59Z</time>
      </trkpt>
      <trkpt lat="45.11303" lon="5.94936">
        <ele>697</ele>
        <time>2017-12-15T18:55:11Z</time>
      </trkpt>
      <trkpt lat="45.11289" lon="5.94886">
        <ele>700</ele>
        <time>2017-12-15T18:55:25Z</time>
      </trkpt>
      <trkpt lat="45.11257" lon="5.94801">
        <ele>710</ele>
        <time>2017-12-15T18:55:27Z</time>
      </trkpt>
      <trkpt lat="45.1124" lon="5.94767">
        <ele>698</ele>
        <time>2017-12-15T18:55:47Z</time>
      </trkpt>
      <trkpt lat="45.11197" lon="5.94694">
        <ele>700</ele>
        <time>2017-12-15T18:55:49Z</time>
      </trkpt>
      <trkpt lat="45.11112" lon="5.94564">
        <ele>690</ele>
        <time>2017-12-15T18:56:08Z</time>
      </trkpt>
      <trkpt lat="45.11064" lon="5.94486">
        <ele>683</ele>
        <time>2017-12-15T18:56:13Z</time>
      </trkpt>
      <trkpt lat="45.11045" lon="5.94446">
        <ele>687</ele>
        <time>2017-12-15T18:56:27Z</time>
      </trkpt>
      <trkpt lat="45.11024" lon="5.94391">
        <ele>699</ele>
        <time>2017-12-15T18:56:42Z</time>
      </trkpt>
      <trkpt lat="45.11007" lon="5.94333">
        <ele>694</ele>
        <time>2017-12-15T18:56:47Z</time>
      </trkpt>
      <trkpt lat="45.10962" lon="5.94192">
        <ele>680</ele>
        <time>2017-12-15T18:56:59Z</time>
      </trkpt>
      <trkpt lat="45.10887" lon="5.93963">
        <ele>667</ele>
        <time>2017-12-15T18:57:01Z</time>
      </trkpt>
      <trkpt lat="45.10856" lon="5.93878">
        <ele>666</ele>
        <time>2017-12-15T18:57:05Z</time>
      </trkpt>
      <trkpt lat="45.10826" lon="5.93789">
        <ele>660</ele>
        <time>2017-12-15T18:57:20Z</time>
      </trkpt>
      <trkpt lat="45.10817" lon="5.93773">
        <ele>660</ele>
        <time>2017-12-15T18:57:28Z</time>
      </trkpt>
      <trkpt lat="45.10767" lon="5.93624">
        <ele>656</ele>
        <time>2017-12-15T18:57:45Z</time>
      </trkpt>
      <trkpt lat="45.10757" lon="5.93603">
        <ele>656</ele>
        <time>2017-12-15T18:57:55Z</time>
      </trkpt>
      <trkpt lat="45.10737" lon="5.93565">
        <ele>657</ele>
        <time>2017-12-15T18:58:04Z</time>
      </trkpt>
      <trkpt lat="45.10717" lon="5.93532">
        <ele>659</ele>
        <time>2017-12-15T18:58:08Z</time>
      </trkpt>
      <trkpt lat="45.10683" lon="5.93476">
        <ele>658</ele>
        <time>2017-12-15T18:58:20Z</time>
      </trkpt>
      <trkpt lat="45.10674" lon="5.93455">
        <ele>657</ele>
        <time>2017-12-15T18:58:23Z</time>
      </trkpt>
      <trkpt lat="45.1066" lon="5.93406">
        <ele>666</ele>
        <time>2017-12-15T18:58:25Z</time>
      </trkpt>
      <trkpt lat="45.10656" lon="5.93381">
        <ele>675</ele>
        <time>2017-12-15T18:58:27Z</time>
      </trkpt>
      <trkpt lat="45.10652" lon="5.93332">
        <ele>667</ele>
        <time>2017-12-15T18:58:44Z</time>
      </trkpt>
      <trkpt lat="45.10649" lon="5.93278">
        <ele>673</ele>
        <time>2017-12-15T18:59:03Z</time>
      </trkpt>
      <trkpt lat="45.10649" lon="5.93226">
        <ele>668</ele>
        <time>2017-12-15T18:59:22Z</time>
      </trkpt>
      <trkpt lat="45.10643" lon="5.93166">
        <ele>658</ele>
        <time>2017-12-15T18:59:41Z</time>
      </trkpt>
      <trkpt lat="45.10626" lon="5.93108">
        <ele>660</ele>
        <time>2017-12-15T18:59:58Z</time>
      </trkpt>
      <trkpt lat="45.10612" lon="5.9307">
        <ele>654</ele>
        <time>2017-12-15T19:00:18Z</time>
      </trkpt>
      <trkpt lat="45.10572" lon="5.92988">
        <ele>660</ele>
        <time>2017-12-15T19:00:35Z</time>
      </trkpt>
      <trkpt lat="45.10499" lon="5.92828">
        <ele>656</ele>
        <time>2017-12-15T19:00:37Z</time>
      </trkpt>
      <trkpt lat="45.10495" lon="5.92811">
        <ele>662</ele>
        <time>2017-12-15T19:00:41Z</time>
      </trkpt>
      <trkpt lat="45.10478" lon="5.92756">
        <ele>660</ele>
        <time>2017-12-15T19:00:49Z</time>
      </trkpt>
      <trkpt lat="45.10467" lon="5.92693">
        <ele>652</ele>
        <time>2017-12-15T19:00:53Z</time>
      </trkpt>
      <trkpt lat="45.1046" lon="5.9262">
        <ele>645</ele>
        <time>2017-12-15T19:01:06Z</time>
      </trkpt>
      <trkpt lat="45.10448" lon="5.9244">
        <ele>637</ele>
        <time>2017-12-15T19:01:26Z</time>
      </trkpt>
      <trkpt lat="45.10438" lon="5.92397">
        <ele>635</ele>
        <time>2017-12-15T19:01:42Z</time>
      </trkpt>
      <trkpt lat="45.10422" lon="5.9234">
        <ele>636</ele>
        <time>2017-12-15T19:01:52Z</time>
      </trkpt>
      <trkpt lat="45.10415" lon="5.92329">
        <ele>639</ele>
        <time>2017-12-15T19:02:08Z</time>
      </trkpt>
      <trkpt lat="45.10408" lon="5.92304">
        <ele>641</ele>
        <time>2017-12-15T19:02:17Z</time>
      </trkpt>
      <trkpt lat="45.10335" lon="5.92068">
        <ele>623</ele>
        <time>2017-12-15T19:02:26Z</time>
      </trkpt>
      <trkpt lat="45.10323" lon="5.9203">
        <ele>620</ele>
        <time>2017-12-15T19:02:36Z</time>
      </trkpt>
      <trkpt lat="45.10311" lon="5.92">
        <ele>616</ele>
        <time>2017-12-15T19:02:53Z</time>
      </trkpt>
      <trkpt lat="45.10294" lon="5.91972">
        <ele>614</ele>
        <time>2017-12-15T19:03:09Z</time>
      </trkpt>
      <trkpt lat="45.10279" lon="5.91954">
        <ele>614</ele>
        <time>2017-12-15T19:03:26Z</time>
      </trkpt>
      <trkpt lat="45.1026" lon="5.91935">
        <ele>613</ele>
        <time>2017-12-15T19:03:46Z</time>
      </trkpt>
      <trkpt lat="45.10136" lon="5.9183">
        <ele>602</ele>
        <time>2017-12-15T19:04:05Z</time>
      </trkpt>
      <trkpt lat="45.09887" lon="5.91624">
        <ele>599</ele>
        <time>2017-12-15T19:04:24Z</time>
      </trkpt>
      <trkpt lat="45.09851" lon="5.91591">
        <ele>598</ele>
        <time>2017-12-15T19:04:30Z</time>
      </trkpt>
      <trkpt lat="45.09829" lon="5.91566">
        <ele>603</ele>
        <time>2017-12-15T19:04:48Z</time>
      </trkpt>
      <trkpt lat="45.09817" lon="5.91547">
        <ele>606</ele>
        <time>2017-12-15T19:05:03Z</time>
      </trkpt>
      <trkpt lat="45.09805" lon="5.91524">
        <ele>606</ele>
        <time>2017-12-15T19:05:12Z</time>
      </trkpt>
      <trkpt lat="45.09781" lon="5.91467">
        <ele>600</ele>
        <time>2017-12-15T19:05:25Z</time>
      </trkpt>
      <trkpt lat="45.09735" lon="5.91366">
        <ele>609</ele>
        <time>2017-12-15T19:05:29Z</time>
      </trkpt>
      <trkpt lat="45.09703" lon="5.91288">
        <ele>604</ele>
        <time>2017-12-15T19:05:46Z</time>
      </trkpt>
      <trkpt lat="45.09695" lon="5.91261">
        <ele>605</ele>
        <time>2017-12-15T19:06:06Z</time>
      </trkpt>
      <trkpt lat="45.0969" lon="5.91235">
        <ele>600</ele>
        <time>2017-12-15T19:06:12Z</time>
      </trkpt>
      <trkpt lat="45.0968" lon="5.91193">
        <ele>597</ele>
        <time>2017-12-15T19:06:16Z</time>
      </trkpt>
      <trkpt lat="45.09677" lon="5.9117">
        <ele>597</ele>
        <time>2017-12-15T19:06:28Z</time>
      </trkpt>
      <trkpt lat="45.09659" lon="5.91001">
        <ele>592</ele>
        <time>2017-12-15T19:06:45Z</time>
      </trkpt>
      <trkpt lat="45.0965" lon="5.90935">
        <ele>592</ele>
        <time>2017-12-15T19:07:03Z</time>
      </trkpt>
      <trkpt lat="45.0964" lon="5.90894">
        <ele>584</ele>
        <time>2017-12-15T19:07:18Z</time>
      </trkpt>
      <trkpt lat="45.09629" lon="5.90862">
        <ele>585</ele>
        <time>2017-12-15T19:07:34Z</time>
      </trkpt>
      <trkpt lat="45.09594" lon="5.90773">
        <ele>577</ele>
        <time>2017-12-15T19:07:51Z</time>
      </trkpt>
      <trkpt lat="45.09543" lon="5.90652">
        <ele>577</ele>
        <time>2017-12-15T19:07:57Z</time>
      </trkpt>
      <trkpt lat="45.09528" lon="5.90619">
        <ele>577</ele>
        <time>2017-12-15T19:08:10Z</time>
      </trkpt>
      <trkpt lat="45.09506" lon="5.90587">
        <ele>578</ele>
        <time>2017-12-15T19:08:17Z</time>
      </trkpt>
      <trkpt lat="45.09492" lon="5.90572">
        <ele>578</ele>
        <time>2017-12-15T19:08:35Z</time>
      </trkpt>
      <trkpt lat="45.09435" lon="5.90524">
        <ele>577</ele>
        <time>2017-12-15T19:08:38Z</time>
      </trkpt>
      <trkpt lat="45.09293" lon="5.90413">
        <ele>572</ele>
        <time>2017-12-15T19:08:55Z</time>
      </trkpt>
      <trkpt lat="45.0919" lon="5.90335">
        <ele>567</ele>
        <time>2017-12-15T19:09:09Z</time>
      </trkpt>
      <trkpt lat="45.09085" lon="5.90249">
        <ele>561</ele>
        <time>2017-12-15T19:09:29Z</time>
      </trkpt>
      <trkpt lat="45.09071" lon="5.90233">
        <ele>558</ele>
        <time>2017-12-15T19:09:41Z</time>
      </trkpt>
      <trkpt lat="45.09045" lon="5.90209">
        <ele>555</ele>
        <time>2017-12-15T19:09:45Z</time>
      </trkpt>
      <trkpt lat="45.09026" lon="5.90197">
        <ele>554</ele>
        <time>2017-12-15T19:09:57Z</time>
      </trkpt>
      <trkpt lat="45.09004" lon="5.90188">
        <ele>553</ele>
        <time>2017-12-15T19:10:16Z</time>
      </trkpt>
      <trkpt lat="45.08955" lon="5.9018">
        <ele>555</ele>
        <time>2017-12-15T19:10:32Z</time>
      </trkpt>
      <trkpt lat="45.08949" lon="5.90181">
        <ele>555</ele>
        <time>2017-12-15T19:10:41Z</time>
      </trkpt>
      <trkpt lat="45.08847" lon="5.90161">
        <ele>547</ele>
        <time>2017-12-15T19:10:55Z</time>
      </trkpt>
      <trkpt lat="45.08793" lon="5.9015">
        <ele>547</ele>
        <time>2017-12-15T19:11:03Z</time>
      </trkpt>
      <trkpt lat="45.08758" lon="5.90139">
        <ele>549</ele>
        <time>2017-12-15T19:11:19Z</time>
      </trkpt>
      <trkpt lat="45.08699" lon="5.90114">
        <ele>550</ele>
        <time>2017-12-15T19:11:37Z</time>
      </trkpt>
      <trkpt lat="45.08598" lon="5.90072">
        <ele>539</ele>
        <time>2017-12-15T19:11:39Z</time>
      </trkpt>
      <trkpt lat="45.0855" lon="5.90051">
        <ele>541</ele>
        <time>2017-12-15T19:11:46Z</time>
      </trkpt>
      <trkpt lat="45.0851" lon="5.90027">
        <ele>539</ele>
        <time>2017-12-15T19:12:04Z</time>
      </trkpt>
      <trkpt lat="45.08498" lon="5.90018">
        <ele>547</ele>
        <time>2017-12-15T19:12:15Z</time>
      </trkpt>
      <trkpt lat="45.08479" lon="5.90002">
        <ele>549</ele>
        <time>2017-12-15T19:12:34Z</time>
      </trkpt>
      <trkpt lat="45.08382" lon="5.89907">
        <ele>538</ele>
        <time>2017-12-15T19:12:38Z</time>
      </trkpt>
      <trkpt lat="45.08293" lon="5.89805">
        <ele>537</ele>
        <time>2017-12-15T19:12:48Z</time>
      </trkpt>
      <trkpt lat="45.08279" lon="5.89784">
        <ele>537</ele>
        <time>2017-12-15T19:13:02Z</time>
      </trkpt>
      <trkpt lat="45.08269" lon="5.89766">
        <ele>536</ele>
        <time>2017-12-15T19:13:09Z</time>
      </trkpt>
      <trkpt lat="45.08233" lon="5.89682">
        <ele>543</ele>
        <time>2017-12-15T19:13:22Z</time>
      </trkpt>
      <trkpt lat="45.08227" lon="5.89663">
        <ele>540</ele>
        <time>2017-12-15T19:13:38Z</time>
      </trkpt>
      <trkpt lat="45.08223" lon="5.8964">
        <ele>543</ele>
        <time>2017-12-15T19:13:44Z</time>
      </trkpt>
      <trkpt lat="45.08225" lon="5.89604">
        <ele>540</ele>
        <time>2017-12-15T19:14:04Z</time>
      </trkpt>
      <trkpt lat="45.08232" lon="5.8955">
        <ele>534</ele>
        <time>2017-12-15T19:14:14Z</time>
      </trkpt>
      <trkpt lat="45.08231" lon="5.89529">
        <ele>533</ele>
        <time>2017-12-15T19:14:17Z</time>
      </trkpt>
      <trkpt lat="45.08226" lon="5.89506">
        <ele>531</ele>
        <time>2017-12-15T19:14:37Z</time>
      </trkpt>
      <trkpt lat="45.08201" lon="5.89451">
        <ele>526</ele>
        <time>2017-12-15T19:14:41Z</time>
      </trkpt>
      <trkpt lat="45.08189" lon="5.89428">
        <ele>527</ele>
        <time>2017-12-15T19:14:46Z</time>
      </trkpt>
      <trkpt lat="45.08145" lon="5.89373">
        <ele>531</ele>
        <time>2017-12-15T19:14:48Z</time>
      </trkpt>
      <trkpt lat="45.08081" lon="5.89292">
        <ele>532</ele>
        <time>2017-12-15T19:14:54Z</time>
      </trkpt>
      <trkpt lat="45.08047" lon="5.89238">
        <ele>518</ele>
        <time>2017-12-15T19:15:10Z</time>
      </trkpt>
      <trkpt lat="45.07962" lon="5.89094">
        <ele>526</ele>
        <time>2017-12-15T19:15:19Z</time>
      </trkpt>
      <trkpt lat="45.07924" lon="5.89024">
        <ele>513</ele>
        <time>2017-12-15T19:15:28Z</time>
      </trkpt>
      <trkpt lat="45.07901" lon="5.88964">
        <ele>526</ele>
        <time>2017-12-15T19:15:42Z</time>
      </trkpt>
      <trkpt lat="45.07855" lon="5.88831">
        <ele>509</ele>
        <time>2017-12-15T19:15:53Z</time>
      </trkpt>
      <trkpt lat="45.07833" lon="5.8878">
        <ele>524</ele>
        <time>2017-12-15T19:15:57Z</time>
      </trkpt>
      <trkpt lat="45.07799" lon="5.88714">
        <ele>511</ele>
        <time>2017-12-15T19:16:13Z</time>
      </trkpt>
      <trkpt lat="45.07737" lon="5.88611">
        <ele>516</ele>
        <time>2017-12-15T19:16:31Z</time>
      </trkpt>
      <trkpt lat="45.07672" lon="5.88508">
        <ele>506</ele>
        <time>2017-12-15T19:16:51Z</time>
      </trkpt>
      <trkpt lat="45.07669" lon="5.88499">
        <ele>504</ele>
        <time>2017-12-15T19:17:07Z</time>
      </trkpt>
      <trkpt lat="45.07658" lon="5.88482">
        <ele>509</ele>
        <time>2017-12-15T19:17:16Z</time>
      </trkpt>
      <trkpt lat="45.07634" lon="5.8844">
        <ele>509</ele>
        <time>2017-12-15T19:17:30Z</time>
      </trkpt>
      <trkpt lat="45.07618" lon="5.88404">
        <ele>499</ele>
        <time>2017-12-15T19:17:50Z</time>
      </trkpt>
      <trkpt lat="45.07603" lon="5.88359">
        <ele>497</ele>
        <time>2017-12-15T19:18:10Z</time>
      </trkpt>
      <trkpt lat="45.07593" lon="5.88316">
        <ele>492</ele>
        <time>2017-12-15T19:18:27Z</time>
      </trkpt>
      <trkpt lat="45.07588" lon="5.88281">
        <ele>490</ele>
        <time>2017-12-15T19:18:43Z</time>
      </trkpt>
      <trkpt lat="45.07583" lon="5.88217">
        <ele>507</ele>
        <time>2017-12-15T19:18:47Z</time>
      </trkpt>
      <trkpt lat="45.07584" lon="5.88172">
        <ele>486</ele>
        <time>2017-12-15T19:18:50Z</time>
      </trkpt>
      <trkpt lat="45.07583" lon="5.88142">
        <ele>498</ele>
        <time>2017-12-15T19:19:00Z</time>
      </trkpt>
      <trkpt lat="45.0758" lon="5.88111">
        <ele>497</ele>
        <time>2017-12-15T19:19:11Z</time>
      </trkpt>
      <trkpt lat="45.07575" lon="5.88093">
        <ele>492</ele>
        <time>2017-12-15T19:19:16Z</time>
      </trkpt>
      <trkpt lat="45.07538" lon="5.87885">
        <ele>475</ele>
        <time>2017-12-15T19:19:33Z</time>
      </trkpt>
      <trkpt lat="45.07527" lon="5.87853">
        <ele>476</ele>
        <time>2017-12-15T19:19:36Z</time>
      </trkpt>
      <trkpt lat="45.07511" lon="5.87821">
        <ele>474</ele>
        <time>2017-12-15T19:19:51Z</time>
      </trkpt>
      <trkpt lat="45.0749" lon="5.87789">
        <ele>480</ele>
        <time>2017-12-15T19:19:57Z</time>
      </trkpt>
      <trkpt lat="45.07463" lon="5.87759">
        <ele>479</ele>
        <time>2017-12-15T19:20:04Z</time>
      </trkpt>
      <trkpt lat="45.07246" lon="5.87566">
        <ele>471</ele>
        <time>2017-12-15T19:20:07Z</time>
      </trkpt>
      <trkpt lat="45.0721" lon="5.87549">
        <ele>470</ele>
        <time>2017-12-15T19:20:17Z</time>
      </trkpt>
      <trkpt lat="45.07196" lon="5.87533">
        <ele>469</ele>
        <time>2017-12-15T19:20:23Z</time>
      </trkpt>
      <trkpt lat="45.07192" lon="5.87523">
        <ele>468</ele>
        <time>2017-12-15T19:20:29Z</time>
      </trkpt>
      <trkpt lat="45.07191" lon="5.87515">
        <ele>467</ele>
        <time>2017-12-15T19:20:34Z</time>
      </trkpt>
      <trkpt lat="45.07187" lon="5.87508">
        <ele>467</ele>
        <time>2017-12-15T19:20:49Z</time>
      </trkpt>
      <trkpt lat="45.07183" lon="5.87496">
        <ele>463</ele>
        <time>2017-12-15T19:21:03Z</time>
      </trkpt>
      <trkpt lat="45.07182" lon="5.87479">
        <ele>463</ele>
        <time>2017-12-15T19:21:11Z</time>
      </trkpt>
      <trkpt lat="45.07181" lon="5.8742">
        <ele>463</ele>
        <time>2017-12-15T19:21:28Z</time>
      </trkpt>
      <trkpt lat="45.07179" lon="5.87396">
        <ele>461</ele>
        <time>2017-12-15T19:21:41Z</time>
      </trkpt>
      <trkpt lat="45.07173" lon="5.87346">
        <ele>459</ele>
        <time>2017-12-15T19:21:43Z</time>
      </trkpt>
      <trkpt lat="45.07158" lon="5.8729">
        <ele>453</ele>
        <time>2017-12-15T19:21:54Z</time>
      </trkpt>
      <trkpt lat="45.07144" lon="5.87258">
        <ele>451</ele>
        <time>2017-12-15T19:21:57Z</time>
      </trkpt>
      <trkpt lat="45.07124" lon="5.8722">
        <ele>445</ele>
        <time>2017-12-15T19:22:04Z</time>
      </trkpt>
      <trkpt lat="45.0711" lon="5.87201">
        <ele>445</ele>
        <time>2017-12-15T19:22:21Z</time>
      </trkpt>
      <trkpt lat="45.07078" lon="5.87164">
        <ele>443</ele>
        <time>2017-12-15T19:22:31Z</time>
      </trkpt>
      <trkpt lat="45.07" lon="5.87077">
        <ele>437</ele>
        <time>2017-12-15T19:22:45Z</time>
      </trkpt>
      <trkpt lat="45.06949" lon="5.87025">
        <ele>434</ele>
        <time>2017-12-15T19:22:50Z</time>
      </trkpt>
      <trkpt lat="45.0691" lon="5.86992">
        <ele>431</ele>
        <time>2017-12-15T19:22:59Z</time>
      </trkpt>
      <trkpt lat="45.06815" lon="5.86925">
        <ele>432</ele>
        <time>2017-12-15T19:23:08Z</time>
      </trkpt>
      <trkpt lat="45.06758" lon="5.86886">
        <ele>431</ele>
        <time>2017-12-15T19:23:14Z</time>
      </trkpt>
      <trkpt lat="45.0672" lon="5.86866">
        <ele>431</ele>
        <time>2017-12-15T19:23:29Z</time>
      </trkpt>
      <trkpt lat="45.06696" lon="5.86856">
        <ele>431</ele>
        <time>2017-12-15T19:23:42Z</time>
      </trkpt>
      <trkpt lat="45.06664" lon="5.86847">
        <ele>430</ele>
        <time>2017-12-15T19:23:58Z</time>
      </trkpt>
      <trkpt lat="45.06579" lon="5.86828">
        <ele>430</ele>
        <time>2017-12-15T19:24:16Z</time>
      </trkpt>
      <trkpt lat="45.06545" lon="5.86814">
        <ele>428</ele>
        <time>2017-12-15T19:24:29Z</time>
      </trkpt>
      <trkpt lat="45.06507" lon="5.86789">
        <ele>428</ele>
        <time>2017-12-15T19:24:36Z</time>
      </trkpt>
      <trkpt lat="45.06475" lon="5.86763">
        <ele>430</ele>
        <time>2017-12-15T19:24:40Z</time>
      </trkpt>
      <trkpt lat="45.06461" lon="5.86749">
        <ele>429</ele>
        <time>2017-12-15T19:24:55Z</time>
      </trkpt>
      <trkpt lat="45.06412" lon="5.86709">
        <ele>434</ele>
        <time>2017-12-15T19:24:58Z</time>
      </trkpt>
      <trkpt lat="45.06369" lon="5.86676">
        <ele>434</ele>
        <time>2017-12-15T19:25:15Z</time>
      </trkpt>
      <trkpt lat="45.06329" lon="5.8664">
        <ele>431</ele>
        <time>2017-12-15T19:25:33Z</time>
      </trkpt>
      <trkpt lat="45.06266" lon="5.86587">
        <ele>428</ele>
        <time>2017-12-15T19:25:47Z</time>
      </trkpt>
      <trkpt lat="45.06178" lon="5.86512">
        <ele>424</ele>
        <time>2017-12-15T19:26:03Z</time>
      </trkpt>
      <trkpt lat="45.06039" lon="5.86368">
        <ele>419</ele>
        <time>2017-12-15T19:26:21Z</time>
      </trkpt>
      <trkpt lat="45.05825" lon="5.86147">
        <ele>414</ele>
        <time>2017-12-15T19:26:32Z</time>
      </trkpt>
      <trkpt lat="45.05536" lon="5.85846">
        <ele>403</ele>
        <time>2017-12-15T19:26:45Z</time>
      </trkpt>
      <trkpt lat="45.05502" lon="5.85805">
        <ele>400</ele>
        <time>2017-12-15T19:26:57Z</time>
      </trkpt>
      <trkpt lat="45.05477" lon="5.85758">
        <ele>402</ele>
        <time>2017-12-15T19:27:03Z</time>
      </trkpt>
      <trkpt lat="45.05462" lon="5.85714">
        <ele>401</ele>
        <time>2017-12-15T19:27:19Z</time>
      </trkpt>
      <trkpt lat="45.05446" lon="5.85651">
        <ele>399</ele>
        <time>2017-12-15T19:27:21Z</time>
      </trkpt>
      <trkpt lat="45.05405" lon="5.85479">
        <ele>396</ele>
        <time>2017-12-15T19:27:40Z</time>
      </trkpt>
      <trkpt lat="45.05395" lon="5.85442">
        <ele>395</ele>
        <time>2017-12-15T19:27:43Z</time>
      </trkpt>
      <trkpt lat="45.05355" lon="5.85274">
        <ele>394</ele>
        <time>2017-12-15T19:28:02Z</time>
      </trkpt>
      <trkpt lat="45.05338" lon="5.85211">
        <ele>392</ele>
        <time>2017-12-15T19:28:15Z</time>
      </trkpt>
      <trkpt lat="45.05335" lon="5.85173">
        <ele>392</ele>
        <time>2017-12-15T19:28:18Z</time>
      </trkpt>
      <trkpt lat="45.05341" lon="5.85141">
        <ele>391</ele>
        <time>2017-12-15T19:28:36Z</time>
      </trkpt>
      <trkpt lat="45.05352" lon="5.8511">
        <ele>390</ele>
        <time>2017-12-15T19:28:56Z</time>
      </trkpt>
      <trkpt lat="45.05365" lon="5.85083">
        <ele>388</ele>
        <time>2017-12-15T19:29:08Z</time>
      </trkpt>
      <trkpt lat="45.05381" lon="5.85064">
        <ele>388</ele>
        <time>2017-12-15T19:29:12Z</time>
      </trkpt>
      <trkpt lat="45.0542" lon="5.85027">
        <ele>392</ele>
        <time>2017-12-15T19:29:20Z</time>
      </trkpt>
      <trkpt lat="45.0544" lon="5.85004">
        <ele>392</ele>
        <time>2017-12-15T19:29:29Z</time>
      </trkpt>
      <trkpt lat="45.05452" lon="5.84981">
        <ele>390</ele>
        <time>2017-12-15T19:29:45Z</time>
      </trkpt>
      <trkpt lat="45.0546" lon="5.84953">
        <ele>389</ele>
        <time>2017-12-15T19:29:52Z</time>
      </trkpt>
      <trkpt lat="45.05463" lon="5.84913">
        <ele>386</ele>
        <time>2017-12-15T19:29:58Z</time>
      </trkpt>
      <trkpt lat="45.05464" lon="5.8483">
        <ele>386</ele>
        <time>2017-12-15T19:30:02Z</time>
      </trkpt>
      <trkpt lat="45.0547" lon="5.84458">
        <ele>421</ele>
        <time>2017-12-15T19:30:22Z</time>
      </trkpt>
      <trkpt lat="45.05468" lon="5.84432">
        <ele>432</ele>
        <time>2017-12-15T19:30:25Z</time>
      </trkpt>
      <trkpt lat="45.05461" lon="5.84386">
        <ele>450</ele>
        <time>2017-12-15T19:30:29Z</time>
      </trkpt>
      <trkpt lat="45.05442" lon="5.84273">
        <ele>448</ele>
        <time>2017-12-15T19:30:46Z</time>
      </trkpt>
      <trkpt lat="45.05423" lon="5.84145">
        <ele>405</ele>
        <time>2017-12-15T19:30:50Z</time>
      </trkpt>
      <trkpt lat="45.05409" lon="5.84089">
        <ele>389</ele>
        <time>2017-12-15T19:31:03Z</time>
      </trkpt>
      <trkpt lat="45.05397" lon="5.84043">
        <ele>381</ele>
        <time>2017-12-15T19:31:11Z</time>
      </trkpt>
      <trkpt lat="45.0539" lon="5.84007">
        <ele>380</ele>
        <time>2017-12-15T19:31:18Z</time>
      </trkpt>
      <trkpt lat="45.05386" lon="5.8396">
        <ele>373</ele>
        <time>2017-12-15T19:31:29Z</time>
      </trkpt>
      <trkpt lat="45.05382" lon="5.83915">
        <ele>370</ele>
        <time>2017-12-15T19:31:32Z</time>
      </trkpt>
      <trkpt lat="45.05383" lon="5.8389">
        <ele>370</ele>
        <time>2017-12-15T19:31:40Z</time>
      </trkpt>
      <trkpt lat="45.0538" lon="5.83874">
        <ele>370</ele>
        <time>2017-12-15T19:31:52Z</time>
      </trkpt>
      <trkpt lat="45.05382" lon="5.83846">
        <ele>370</ele>
        <time>2017-12-15T19:32:12Z</time>
      </trkpt>
      <trkpt lat="45.05382" lon="5.83808">
        <ele>371</ele>
        <time>2017-12-15T19:32:23Z</time>
      </trkpt>
      <trkpt lat="45.05371" lon="5.83641">
        <ele>368</ele>
        <time>2017-12-15T19:32:27Z</time>
      </trkpt>
      <trkpt lat="45.05366" lon="5.83548">
        <ele>367</ele>
        <time>2017-12-15T19:32:30Z</time>
      </trkpt>
      <trkpt lat="45.05361" lon="5.83525">
        <ele>367</ele>
        <time>2017-12-15T19:32:38Z</time>
      </trkpt>
      <trkpt lat="45.05336" lon="5.83538">
        <ele>367</ele>
        <time>2017-12-15T19:32:56Z</time>
      </trkpt>
      <trkpt lat="45.05307" lon="5.83556">
        <ele>367</ele>
        <time>2017-12-15T19:33:11Z</time>
      </trkpt>
      <trkpt lat="45.05274" lon="5.83584">
        <ele>368</ele>
        <time>2017-12-15T19:33:21Z</time>
      </trkpt>
      <trkpt lat="45.05232" lon="5.83627">
        <ele>366</ele>
        <time>2017-12-15T19:33:37Z</time>
      </trkpt>
      <trkpt lat="45.05217" lon="5.83644">
        <ele>365</ele>
        <time>2017-12-15T19:33:53Z</time>
      </trkpt>
      <trkpt lat="45.0521" lon="5.83651">
        <ele>365</ele>
        <time>2017-12-15T19:33:57Z</time>
      </trkpt>
      <trkpt lat="45.05161" lon="5.83696">
        <ele>372</ele>
        <time>2017-12-15T19:34:02Z</time>
      </trkpt>
      <trkpt lat="45.05147" lon="5.83708">
        <ele>374</ele>
        <time>2017-12-15T19:34:13Z</time>
      </trkpt>
      <trkpt lat="45.05138" lon="5.83713">
        <ele>375</ele>
        <time>2017-12-15T19:34:20Z</time>
      </trkpt>
      <trkpt lat="45.05122" lon="5.83714">
        <ele>378</ele>
        <time>2017-12-15T19:34:23Z</time>
      </trkpt>
      <trkpt lat="45.051" lon="5.83703">
        <ele>379</ele>
        <time>2017-12-15T19:34:30Z</time>
      </trkpt>
      <trkpt lat="45.0508" lon="5.83684">
        <ele>388</ele>
        <time>2017-12-15T19:34:49Z</time>
      </trkpt>
      <trkpt lat="45.0507" lon="5.83672">
        <ele>386</ele>
        <time>2017-12-15T19:35:04Z</time>
      </trkpt>
      <trkpt lat="45.05022" lon="5.83612">
        <ele>380</ele>
        <time>2017-12-15T19:35:11Z</time>
      </trkpt>
      <trkpt lat="45.04983" lon="5.8356">
        <ele>385</ele>
        <time>2017-12-15T19:35:25Z</time>
      </trkpt>
      <trkpt lat="45.0495" lon="5.83525">
        <ele>389</ele>
        <time>2017-12-15T19:35:35Z</time>
      </trkpt>
      <trkpt lat="45.04918" lon="5.8349">
        <ele>387</ele>
        <time>2017-12-15T19:35:43Z</time>
      </trkpt>
      <trkpt lat="45.04903" lon="5.83464">
        <ele>397</ele>
        <time>2017-12-15T19:36:00Z</time>
      </trkpt>
      <trkpt lat="45.04891" lon="5.83436">
        <ele>394</ele>
        <time>2017-12-15T19:36:20Z</time>
      </trkpt>
      <trkpt lat="45.04873" lon="5.83355">
        <ele>387</ele>
        <time>2017-12-15T19:36:24Z</time>
      </trkpt>
      <trkpt lat="45.04854" lon="5.83261">
        <ele>386</ele>
        <time>2017-12-15T19:36:39Z</time>
      </trkpt>
      <trkpt lat="45.04844" lon="5.83232">
        <ele>388</ele>
        <time>2017-12-15T19:36:44Z</time>
      </trkpt>
      <trkpt lat="45.04838" lon="5.83218">
        <ele>388</ele>
        <time>2017-12-15T19:37:04Z</time>
      </trkpt>
      <trkpt lat="45.04827" lon="5.83207">
        <ele>395</ele>
        <time>2017-12-15T19:37:13Z</time>
      </trkpt>
      <trkpt lat="45.04779" lon="5.83172">
        <ele>398</ele>
        <time>2017-12-15T19:37:20Z</time>
      </trkpt>
      <trkpt lat="45.04761" lon="5.83165">
        <ele>399</ele>
        <time>2017-12-15T19:37:26Z</time>
      </trkpt>
      <trkpt lat="45.04748" lon="5.83165">
        <ele>402</ele>
        <time>2017-12-15T19:37:41Z</time>
      </trkpt>
      <trkpt lat="45.04712" lon="5.83169">
        <ele>418</ele>
        <time>2017-12-15T19:38:00Z</time>
      </trkpt>
      <trkpt lat="45.04699" lon="5.8317">
        <ele>421</ele>
        <time>2017-12-15T19:38:04Z</time>
      </trkpt>
      <trkpt lat="45.04686" lon="5.83169">
        <ele>423</ele>
        <time>2017-12-15T19:38:13Z</time>
      </trkpt>
      <trkpt lat="45.0468" lon="5.83166">
        <ele>419</ele>
        <time>2017-12-15T19:38:25Z</time>
      </trkpt>
      <trkpt lat="45.04674" lon="5.83161">
        <ele>421</ele>
        <time>2017-12-15T19:38:43Z</time>
      </trkpt>
      <trkpt lat="45.04667" lon="5.83149">
        <ele>418</ele>
        <time>2017-12-15T19:38:49Z</time>
      </trkpt>
      <trkpt lat="45.04659" lon="5.83105">
        <ele>428</ele>
        <time>2017-12-15T19:38:59Z</time>
      </trkpt>
      <trkpt lat="45.04649" lon="5.83071">
        <ele>421</ele>
        <time>2017-12-15T19:39:02Z</time>
      </trkpt>
      <trkpt lat="45.04647" lon="5.83055">
        <ele>422</ele>
        <time>2017-12-15T19:39:19Z</time>
      </trkpt>
      <trkpt lat="45.04651" lon="5.83035">
        <ele>421</ele>
        <time>2017-12-15T19:39:25Z</time>
      </trkpt>
      <trkpt lat="45.04655" lon="5.8301">
        <ele>418</ele>
        <time>2017-12-15T19:39:29Z</time>
      </trkpt>
      <trkpt lat="45.04653" lon="5.82967">
        <ele>419</ele>
        <time>2017-12-15T19:39:49Z</time>
      </trkpt>
      <trkpt lat="45.04654" lon="5.82937">
        <ele>419</ele>
        <time>2017-12-15T19:40:00Z</time>
      </trkpt>
      <trkpt lat="45.0466" lon="5.82911">
        <ele>419</ele>
        <time>2017-12-15T19:40:19Z</time>
      </trkpt>
      <trkpt lat="45.04664" lon="5.8289">
        <ele>422</ele>
        <time>2017-12-15T19:40:37Z</time>
      </trkpt>
      <trkpt lat="45.04667" lon="5.82869">
        <ele>419</ele>
        <time>2017-12-15T19:40:44Z</time>
      </trkpt>
      <trkpt lat="45.04661" lon="5.82842">
        <ele>425</ele>
        <time>2017-12-15T19:40:53Z</time>
      </trkpt>
      <trkpt lat="45.04652" lon="5.82817">
        <ele>428</ele>
        <time>2017-12-15T19:41:13Z</time>
      </trkpt>
      <trkpt lat="45.04645" lon="5.8279">
        <ele>429</ele>
        <time>2017-12-15T19:41:25Z</time>
      </trkpt>
      <trkpt lat="45.04641" lon="5.82759">
        <ele>430</ele>
        <time>2017-12-15T19:41:45Z</time>
      </trkpt>
      <trkpt lat="45.04639" lon="5.82755">
        <ele>430</ele>
        <time>2017-12-15T19:41:49Z</time>
      </trkpt>
      <trkpt lat="45.04629" lon="5.8275">
        <ele>433</ele>
        <time>2017-12-15T19:42:03Z</time>
      </trkpt>
      <trkpt lat="45.04624" lon="5.82751">
        <ele>430</ele>
        <time>2017-12-15T19:42:10Z</time>
      </trkpt>
      <trkpt lat="45.04608" lon="5.82766">
        <ele>431</ele>
        <time>2017-12-15T19:42:24Z</time>
      </trkpt>
      <trkpt lat="45.04577" lon="5.8278">
        <ele>436</ele>
        <time>2017-12-15T19:42:44Z</time>
      </trkpt>
      <trkpt lat="45.04515" lon="5.82812">
        <ele>440</ele>
        <time>2017-12-15T19:43:00Z</time>
      </trkpt>
      <trkpt lat="45.04503" lon="5.82821">
        <ele>441</ele>
        <time>2017-12-15T19:43:05Z</time>
      </trkpt>
      <trkpt lat="45.04496" lon="5.82831">
        <ele>444</ele>
        <time>2017-12-15T19:43:23Z</time>
      </trkpt>
      <trkpt lat="45.0449" lon="5.82847">
        <ele>449</ele>
        <time>2017-12-15T19:43:36Z</time>
      </trkpt>
      <trkpt lat="45.04484" lon="5.82876">
        <ele>452</ele>
        <time>2017-12-15T19:43:46Z</time>
      </trkpt>
      <trkpt lat="45.04478" lon="5.82882">
        <ele>453</ele>
        <time>2017-12-15T19:43:55Z</time>
      </trkpt>
      <trkpt lat="45.04472" lon="5.82885">
        <ele>453</ele>
        <time>2017-12-15T19:43:57Z</time>
      </trkpt>
      <trkpt lat="45.04465" lon="5.82884">
        <ele>454</ele>
        <time>2017-12-15T19:44:10Z</time>
      </trkpt>
      <trkpt lat="45.04459" lon="5.82878">
        <ele>455</ele>
        <time>2017-12-15T19:44:14Z</time>
      </trkpt>
      <trkpt lat="45.04457" lon="5.82866">
        <ele>455</ele>
        <time>2017-12-15T19:44:18Z</time>
      </trkpt>
      <trkpt lat="45.04456" lon="5.82833">
        <ele>452</ele>
        <time>2017-12-15T19:44:38Z</time>
      </trkpt>
      <trkpt lat="45.04453" lon="5.82803">
        <ele>452</ele>
        <time>2017-12-15T19:44:52Z</time>
      </trkpt>
      <trkpt lat="45.0444" lon="5.82743">
        <ele>454</ele>
        <time>2017-12-15T19:45:09Z</time>
      </trkpt>
      <trkpt lat="45.04438" lon="5.82712">
        <ele>454</ele>
        <time>2017-12-15T19:45:27Z</time>
      </trkpt>
      <trkpt lat="45.04437" lon="5.82676">
        <ele>456</ele>
        <time>2017-12-15T19:45:46Z</time>
      </trkpt>
      <trkpt lat="45.0444" lon="5.82624">
        <ele>458</ele>
        <time>2017-12-15T19:46:02Z</time>
      </trkpt>
      <trkpt lat="45.04442" lon="5.8261">
        <ele>458</ele>
        <time>2017-12-15T19:46:11Z</time>
      </trkpt>
      <trkpt lat="45.04448" lon="5.82592">
        <ele>458</ele>
        <time>2017-12-15T19:46:15Z</time>
      </trkpt>
      <trkpt lat="45.0446" lon="5.82574">
        <ele>465</ele>
        <time>2017-12-15T19:46:31Z</time>
      </trkpt>
      <trkpt lat="45.04475" lon="5.82552">
        <ele>466</ele>
        <time>2017-12-15T19:46:37Z</time>
      </trkpt>
      <trkpt lat="45.04485" lon="5.82543">
        <ele>467</ele>
        <time>2017-12-15T19:46:45Z</time>
      </trkpt>
      <trkpt lat="45.04493" lon="5.8254">
        <ele>468</ele>
        <time>2017-12-15T19:46:52Z</time>
      </trkpt>
      <trkpt lat="45.04514" lon="5.82539">
        <ele>466</ele>
        <time>2017-12-15T19:47:00Z</time>
      </trkpt>
      <trkpt lat="45.04556" lon="5.82538">
        <ele>465</ele>
        <time>2017-12-15T19:47:11Z</time>
      </trkpt>
      <trkpt lat="45.0457" lon="5.82533">
        <ele>465</ele>
        <time>2017-12-15T19:47:19Z</time>
      </trkpt>
      <trkpt lat="45.04579" lon="5.82526">
        <ele>467</ele>
        <time>2017-12-15T19:47:21Z</time>
      </trkpt>
      <trkpt lat="45.04585" lon="5.82517">
        <ele>463</ele>
        <time>2017-12-15T19:47:38Z</time>
      </trkpt>
      <trkpt lat="45.0459" lon="5.82505">
        <ele>467</ele>
        <time>2017-12-15T19:47:44Z</time>
      </trkpt>
      <trkpt lat="45.04602" lon="5.82467">
        <ele>473</ele>
        <time>2017-12-15T19:47:57Z</time>
      </trkpt>
      <trkpt lat="45.0461" lon="5.8245">
        <ele>474</ele>
        <time>2017-12-15T19:48:06Z</time>
      </trkpt>
      <trkpt lat="45.04632" lon="5.82427">
        <ele>473</ele>
        <time>2017-12-15T19:48:14Z</time>
      </trkpt>
      <trkpt lat="45.0464" lon="5.82415">
        <ele>482</ele>
        <time>2017-12-15T19:48:21Z</time>
      </trkpt>
      <trkpt lat="45.04643" lon="5.82399">
        <ele>483</ele>
        <time>2017-12-15T19:48:30Z</time>
      </trkpt>
      <trkpt lat="45.04643" lon="5.82386">
        <ele>485</ele>
        <time>2017-12-15T19:48:41Z</time>
      </trkpt>
      <trkpt lat="45.04644" lon="5.82357">
        <ele>488</ele>
        <time>2017-12-15T19:48:59Z</time>
      </trkpt>
      <trkpt lat="45.0465" lon="5.82332">
        <ele>497</ele>
        <time>2017-12-15T19:49:10Z</time>
      </trkpt>
      <trkpt lat="45.04666" lon="5.82296">
        <ele>503</ele>
        <time>2017-12-15T19:49:30Z</time>
      </trkpt>
      <trkpt lat="45.04686" lon="5.82272">
        <ele>489</ele>
        <time>2017-12-15T19:49:46Z</time>
      </trkpt>
      <trkpt lat="45.04688" lon="5.8226">
        <ele>491</ele>
        <time>2017-12-15T19:49:59Z</time>
      </trkpt>
      <trkpt lat="45.04687" lon="5.82255">
        <ele>492</ele>
        <time>2017-12-15T19:50:02Z</time>
      </trkpt>
      <trkpt lat="45.04697" lon="5.82231">
        <ele>503</ele>
        <time>2017-12-15T19:50:17Z</time>
      </trkpt>
      <trkpt lat="45.04751" lon="5.82165">
        <ele>500</ele>
        <time>2017-12-15T19:50:26Z</time>
      </trkpt>
      <trkpt lat="45.04761" lon="5.82148">
        <ele>500</ele>
        <time>2017-12-15T19:50:29Z</time>
      </trkpt>
      <trkpt lat="45.04781" lon="5.82095">
        <ele>506</ele>
        <time>2017-12-15T19:50:49Z</time>
      </trkpt>
      <trkpt lat="45.04791" lon="5.8207">
        <ele>521</ele>
        <time>2017-12-15T19:51:02Z</time>
      </trkpt>
      <trkpt lat="45.04802" lon="5.82053">
        <ele>521</ele>
        <time>2017-12-15T19:51:21Z</time>
      </trkpt>
      <trkpt lat="45.04832" lon="5.82007">
        <ele>519</ele>
        <time>2017-12-15T19:51:25Z</time>
      </trkpt>
      <trkpt lat="45.04845" lon="5.81991">
        <ele>517</ele>
        <time>2017-12-15T19:51:31Z</time>
      </trkpt>
      <trkpt lat="45.04863" lon="5.81977">
        <ele>516</ele>
        <time>2017-12-15T19:51:35Z</time>
      </trkpt>
      <trkpt lat="45.04877" lon="5.81965">
        <ele>516</ele>
        <time>2017-12-15T19:51:44Z</time>
      </trkpt>
      <trkpt lat="45.04942" lon="5.81886">
        <ele>518</ele>
        <time>2017-12-15T19:52:04Z</time>
      </trkpt>
      <trkpt lat="45.05009" lon="5.81819">
        <ele>519</ele>
        <time>2017-12-15T19:52:15Z</time>
      </trkpt>
      <trkpt lat="45.05021" lon="5.81805">
        <ele>518</ele>
        <time>2017-12-15T19:52:34Z</time>
      </trkpt>
      <trkpt lat="45.05038" lon="5.81775">
        <ele>519</ele>
        <time>2017-12-15T19:52:49Z</time>
      </trkpt>
      <trkpt lat="45.05073" lon="5.81701">
        <ele>531</ele>
        <time>2017-12-15T19:52:59Z</time>
      </trkpt>
      <trkpt lat="45.05075" lon="5.81686">
        <ele>532</ele>
        <time>2017-12-15T19:53:16Z</time>
      </trkpt>
      <trkpt lat="45.05072" lon="5.81665">
        <ele>539</ele>
        <time>2017-12-15T19:53:32Z</time>
      </trkpt>
      <trkpt lat="45.05069" lon="5.81634">
        <ele>547</ele>
        <time>2017-12-15T19:53:43Z</time>
      </trkpt>
      <trkpt lat="45.05076" lon="5.81602">
        <ele>551</ele>
        <time>2017-12-15T19:53:59Z</time>
      </trkpt>
      <trkpt lat="45.05086" lon="5.81579">
        <ele>548</ele>
        <time>2017-12-15T19:54:16Z</time>
      </trkpt>
      <trkpt lat="45.05097" lon="5.81558">
        <ele>545</ele>
        <time>2017-12-15T19:54:34Z</time>
      </trkpt>
      <trkpt lat="45.05113" lon="5.81543">
        <ele>543</ele>
        <time>2017-12-15T19:54:44Z</time>
      </trkpt>
      <trkpt lat="45.05122" lon="5.81536">
        <ele>542</ele>
        <time>2017-12-15T19:54:58Z</time>
      </trkpt>
      <trkpt lat="45.05128" lon="5.81529">
        <ele>541</ele>
        <time>2017-12-15T19:55:10Z</time>
      </trkpt>
      <trkpt lat="45.05132" lon="5.8151">
        <ele>541</ele>
        <time>2017-12-15T19:55:18Z</time>
      </trkpt>
      <trkpt lat="45.05141" lon="5.81473">
        <ele>556</ele>
        <time>2017-12-15T19:55:37Z</time>
      </trkpt>
      <trkpt lat="45.05149" lon="5.81443">
        <ele>557</ele>
        <time>2017-12-15T19:55:48Z</time>
      </trkpt>
      <trkpt lat="45.05156" lon="5.8135">
        <ele>569</ele>
        <time>2017-12-15T19:55:53Z</time>
      </trkpt>
      <trkpt lat="45.05156" lon="5.81293">
        <ele>578</ele>
        <time>2017-12-15T19:55:55Z</time>
      </trkpt>
      <trkpt lat="45.05151" lon="5.81257">
        <ele>572</ele>
        <time>2017-12-15T19:56:14Z</time>
      </trkpt>
      <trkpt lat="45.05149" lon="5.81231">
        <ele>576</ele>
        <time>2017-12-15T19:56:31Z</time>
      </trkpt>
      <trkpt lat="45.05155" lon="5.81166">
        <ele>567</ele>
        <time>2017-12-15T19:56:40Z</time>
      </trkpt>
      <trkpt lat="45.05142" lon="5.811">
        <ele>573</ele>
        <time>2017-12-15T19:56:57Z</time>
      </trkpt>
      <trkpt lat="45.05142" lon="5.81074">
        <ele>567</ele>
        <time>2017-12-15T19:57:08Z</time>
      </trkpt>
      <trkpt lat="45.05149" lon="5.81053">
        <ele>566</ele>
        <time>2017-12-15T19:57:19Z</time>
      </trkpt>
      <trkpt lat="45.05152" lon="5.81032">
        <ele>565</ele>
        <time>2017-12-15T19:57:37Z</time>
      </trkpt>
      <trkpt lat="45.05148" lon="5.8102">
        <ele>564</ele>
        <time>2017-12-15T19:57:54Z</time>
      </trkpt>
      <trkpt lat="45.05133" lon="5.80997">
        <ele>559</ele>
        <time>2017-12-15T19:58:08Z</time>
      </trkpt>
      <trkpt lat="45.05107" lon="5.80962">
        <ele>560</ele>
        <time>2017-12-15T19:58:18Z</time>
      </trkpt>
      <trkpt lat="45.05071" lon="5.80927">
        <ele>568</ele>
        <time>2017-12-15T19:58:27Z</time>
      </trkpt>
      <trkpt lat="45.05055" lon="5.80917">
        <ele>571</ele>
        <time>2017-12-15T19:58:47Z</time>
      </trkpt>
      <trkpt lat="45.0503" lon="5.80909">
        <ele>562</ele>
        <time>2017-12-15T19:59:03Z</time>
      </trkpt>
      <trkpt lat="45.05012" lon="5.80906">
        <ele>566</ele>
        <time>2017-12-15T19:59:10Z</time>
      </trkpt>
      <trkpt lat="45.04983" lon="5.80905">
        <ele>568</ele>
        <time>2017-12-15T19:59:21Z</time>
      </trkpt>
      <trkpt lat="45.04954" lon="5.80911">
        <ele>566</ele>
        <time>2017-12-15T19:59:28Z</time>
      </trkpt>
      <trkpt lat="45.04934" lon="5.80921">
        <ele>578</ele>
        <time>2017-12-15T19:59:47Z</time>
      </trkpt>
      <trkpt lat="45.04892" lon="5.80948">
        <ele>585</ele>
        <time>2017-12-15T19:59:57Z</time>
      </trkpt>
      <trkpt lat="45.04862" lon="5.80965">
        <ele>589</ele>
        <time>2017-12-15T20:00:04Z</time>
      </trkpt>
      <trkpt lat="45.04836" lon="5.80974">
        <ele>593</ele>
        <time>2017-12-15T20:00:18Z</time>
      </trkpt>
      <trkpt lat="45.0482" lon="5.80975">
        <ele>601</ele>
        <time>2017-12-15T20:00:33Z</time>
      </trkpt>
      <trkpt lat="45.04802" lon="5.80968">
        <ele>600</ele>
        <time>2017-12-15T20:00:39Z</time>
      </trkpt>
      <trkpt lat="45.04775" lon="5.8095">
        <ele>599</ele>
        <time>2017-12-15T20:00:52Z</time>
      </trkpt>
      <trkpt lat="45.04728" lon="5.8093">
        <ele>613</ele>
        <time>2017-12-15T20:00:57Z</time>
      </trkpt>
      <trkpt lat="45.0468" lon="5.80911">
        <ele>607</ele>
        <time>2017-12-15T20:01:03Z</time>
      </trkpt>
      <trkpt lat="45.04647" lon="5.80887">
        <ele>624</ele>
        <time>2017-12-15T20:01:20Z</time>
      </trkpt>
      <trkpt lat="45.04602" lon="5.8084">
        <ele>627</ele>
        <time>2017-12-15T20:01:24Z</time>
      </trkpt>
      <trkpt lat="45.04587" lon="5.80819">
        <ele>615</ele>
        <time>2017-12-15T20:01:31Z</time>
      </trkpt>
      <trkpt lat="45.0458" lon="5.80804">
        <ele>632</ele>
        <time>2017-12-15T20:01:43Z</time>
      </trkpt>
      <trkpt lat="45.04577" lon="5.80791">
        <ele>630</ele>
        <time>2017-12-15T20:01:55Z</time>
      </trkpt>
      <trkpt lat="45.0457" lon="5.80774">
        <ele>625</ele>
        <time>2017-12-15T20:02:11Z</time>
      </trkpt>
      <trkpt lat="45.04553" lon="5.80757">
        <ele>628</ele>
        <time>2017-12-15T20:02:31Z</time>
      </trkpt>
      <trkpt lat="45.04536" lon="5.80742">
        <ele>618</ele>
        <time>2017-12-15T20:02:38Z</time>
      </trkpt>
      <trkpt lat="45.04524" lon="5.80727">
        <ele>621</ele>
        <time>2017-12-15T20:02:54Z</time>
      </trkpt>
      <trkpt lat="45.04507" lon="5.8069">
        <ele>618</ele>
        <time>2017-12-15T20:03:05Z</time>
      </trkpt>
      <trkpt lat="45.04489" lon="5.80651">
        <ele>626</ele>
        <time>2017-12-15T20:03:16Z</time>
      </trkpt>
      <trkpt lat="45.04443" lon="5.80605">
        <ele>631</ele>
        <time>2017-12-15T20:03:28Z</time>
      </trkpt>
      <trkpt lat="45.04423" lon="5.80582">
        <ele>631</ele>
        <time>2017-12-15T20:03:34Z</time>
      </trkpt>
      <trkpt lat="45.04397" lon="5.80557">
        <ele>649</ele>
        <time>2017-12-15T20:03:41Z</time>
      </trkpt>
      <trkpt lat="45.0439" lon="5.80536">
        <ele>649</ele>
        <time>2017-12-15T20:03:44Z</time>
      </trkpt>
      <trkpt lat="45.04336" lon="5.80343">
        <ele>642</ele>
        <time>2017-12-15T20:03:47Z</time>
      </trkpt>
      <trkpt lat="45.04327" lon="5.80296">
        <ele>663</ele>
        <time>2017-12-15T20:03:51Z</time>
      </trkpt>
      <trkpt lat="45.04314" lon="5.80251">
        <ele>658</ele>
        <time>2017-12-15T20:03:57Z</time>
      </trkpt>
      <trkpt lat="45.04283" lon="5.80169">
        <ele>660</ele>
        <time>2017-12-15T20:04:01Z</time>
      </trkpt>
      <trkpt lat="45.04253" lon="5.80079">
        <ele>660</ele>
        <time>2017-12-15T20:04:18Z</time>
      </trkpt>
      <trkpt lat="45.04245" lon="5.80046">
        <ele>675</ele>
        <time>2017-12-15T20:04:22Z</time>
      </trkpt>
      <trkpt lat="45.04237" lon="5.80007">
        <ele>668</ele>
        <time>2017-12-15T20:04:31Z</time>
      </trkpt>
      <trkpt lat="45.04221" lon="5.7998">
        <ele>673</ele>
        <time>2017-12-15T20:04:38Z</time>
      </trkpt>
      <trkpt lat="45.04209" lon="5.79935">
        <ele>676</ele>
        <time>2017-12-15T20:04:55Z</time>
      </trkpt>
      <trkpt lat="45.04205" lon="5.79909">
        <ele>675</ele>
        <time>2017-12-15T20:05:13Z</time>
      </trkpt>
      <trkpt lat="45.04205" lon="5.79832">
        <ele>675</ele>
        <time>2017-12-15T20:05:23Z</time>
      </trkpt>
      <trkpt lat="45.0421" lon="5.79788">
        <ele>673</ele>
        <time>2017-12-15T20:05:31Z</time>
      </trkpt>
      <trkpt lat="45.04209" lon="5.79758">
        <ele>674</ele>
        <time>2017-12-15T20:05:45Z</time>
      </trkpt>
      <trkpt lat="45.04207" lon="5.79717">
        <ele>674</ele>
        <time>2017-12-15T20:06:02Z</time>
      </trkpt>
      <trkpt lat="45.04201" lon="5.79695">
        <ele>676</ele>
        <time>2017-12-15T20:06:17Z</time>
      </trkpt>
      <trkpt lat="45.04191" lon="5.79669">
        <ele>682</ele>
        <time>2017-12-15T20:06:25Z</time>
      </trkpt>
      <trkpt lat="45.04189" lon="5.79647">
        <ele>682</ele>
        <time>2017-12-15T20:06:33Z</time>
      </trkpt>
      <trkpt lat="45.04178" lon="5.79547">
        <ele>685</ele>
        <time>2017-12-15T20:06:48Z</time>
      </trkpt>
      <trkpt lat="45.04177" lon="5.79508">
        <ele>692</ele>
        <time>2017-12-15T20:06:57Z</time>
      </trkpt>
      <trkpt lat="45.0417" lon="5.79462">
        <ele>684</ele>
        <time>2017-12-15T20:07:16Z</time>
      </trkpt>
      <trkpt lat="45.04166" lon="5.79437">
        <ele>715</ele>
        <time>2017-12-15T20:07:31Z</time>
      </trkpt>
      <trkpt lat="45.04168" lon="5.79398">
        <ele>689</ele>
        <time>2017-12-15T20:07:44Z</time>
      </trkpt>
      <trkpt lat="45.04167" lon="5.79375">
        <ele>686</ele>
        <time>2017-12-15T20:08:00Z</time>
      </trkpt>
      <trkpt lat="45.04162" lon="5.79341">
        <ele>711</ele>
        <time>2017-12-15T20:08:07Z</time>
      </trkpt>
      <trkpt lat="45.04163" lon="5.79315">
        <ele>718</ele>
        <time>2017-12-15T20:08:15Z</time>
      </trkpt>
      <trkpt lat="45.04176" lon="5.79231">
        <ele>700</ele>
        <time>2017-12-15T20:08:32Z</time>
      </trkpt>
      <trkpt lat="45.04178" lon="5.79199">
        <ele>698</ele>
        <time>2017-12-15T20:08:39Z</time>
      </trkpt>
      <trkpt lat="45.04172" lon="5.79139">
        <ele>702</ele>
        <time>2017-12-15T20:08:54Z</time>
      </trkpt>
      <trkpt lat="45.04166" lon="5.79074">
        <ele>729</ele>
        <time>2017-12-15T20:09:05Z</time>
      </trkpt>
      <trkpt lat="45.04169" lon="5.79059">
        <ele>710</ele>
        <time>2017-12-15T20:09:09Z</time>
      </trkpt>
      <trkpt lat="45.04177" lon="5.79047">
        <ele>708</ele>
        <time>2017-12-15T20:09:14Z</time>
      </trkpt>
      <trkpt lat="45.042" lon="5.79017">
        <ele>704</ele>
        <time>2017-12-15T20:09:30Z</time>
      </trkpt>
      <trkpt lat="45.04198" lon="5.79">
        <ele>710</ele>
        <time>2017-12-15T20:09:36Z</time>
      </trkpt>
      <trkpt lat="45.04186" lon="5.78964">
        <ele>712</ele>
        <time>2017-12-15T20:09:52Z</time>
      </trkpt>
      <trkpt lat="45.04183" lon="5.78945">
        <ele>714</ele>
        <time>2017-12-15T20:10:04Z</time>
      </trkpt>
      <trkpt lat="45.04183" lon="5.78913">
        <ele>717</ele>
        <time>2017-12-15T20:10:10Z</time>
      </trkpt>
      <trkpt lat="45.04175" lon="5.78881">
        <ele>709</ele>
        <time>2017-12-15T20:10:28Z</time>
      </trkpt>
      <trkpt lat="45.04164" lon="5.78849">
        <ele>734</ele>
        <time>2017-12-15T20:10:41Z</time>
      </trkpt>
      <trkpt lat="45.04145" lon="5.78821">
        <ele>733</ele>
        <time>2017-12-15T20:10:59Z</time>
      </trkpt>
      <trkpt lat="45.04136" lon="5.788">
        <ele>737</ele>
        <time>2017-12-15T20:11:07Z</time>
      </trkpt>
      <trkpt lat="45.04111" lon="5.7873">
        <ele>731</ele>
        <time>2017-12-15T20:11:17Z</time>
      </trkpt>
      <trkpt lat="45.04105" lon="5.78719">
        <ele>730</ele>
        <time>2017-12-15T20:11:27Z</time>
      </trkpt>
      <trkpt lat="45.04078" lon="5.78684">
        <ele>761</ele>
        <time>2017-12-15T20:11:32Z</time>
      </trkpt>
      <trkpt lat="45.04067" lon="5.78665">
        <ele>752</ele>
        <time>2017-12-15T20:11:34Z</time>
      </trkpt>
      <trkpt lat="45.04062" lon="5.78639">
        <ele>755</ele>
        <time>2017-12-15T20:11:38Z</time>
      </trkpt>
      <trkpt lat="45.04054" lon="5.78597">
        <ele>753</ele>
        <time>2017-12-15T20:11:44Z</time>
      </trkpt>
      <trkpt lat="45.04041" lon="5.78579">
        <ele>745</ele>
        <time>2017-12-15T20:11:48Z</time>
      </trkpt>
      <trkpt lat="45.0402" lon="5.78555">
        <ele>750</ele>
        <time>2017-12-15T20:12:04Z</time>
      </trkpt>
      <trkpt lat="45.03993" lon="5.78506">
        <ele>770</ele>
        <time>2017-12-15T20:12:22Z</time>
      </trkpt>
      <trkpt lat="45.0398" lon="5.78477">
        <ele>776</ele>
        <time>2017-12-15T20:12:27Z</time>
      </trkpt>
      <trkpt lat="45.03972" lon="5.78452">
        <ele>778</ele>
        <time>2017-12-15T20:12:37Z</time>
      </trkpt>
      <trkpt lat="45.03965" lon="5.78413">
        <ele>773</ele>
        <time>2017-12-15T20:12:48Z</time>
      </trkpt>
      <trkpt lat="45.03964" lon="5.78396">
        <ele>774</ele>
        <time>2017-12-15T20:13:00Z</time>
      </trkpt>
      <trkpt lat="45.03973" lon="5.78336">
        <ele>769</ele>
        <time>2017-12-15T20:13:07Z</time>
      </trkpt>
      <trkpt lat="45.03976" lon="5.78309">
        <ele>770</ele>
        <time>2017-12-15T20:13:26Z</time>
      </trkpt>
      <trkpt lat="45.03973" lon="5.78294">
        <ele>771</ele>
        <time>2017-12-15T20:13:45Z</time>
      </trkpt>
      <trkpt lat="45.03969" lon="5.78283">
        <ele>772</ele>
        <time>2017-12-15T20:13:52Z</time>
      </trkpt>
      <trkpt lat="45.0396" lon="5.7827">
        <ele>775</ele>
        <time>2017-12-15T20:13:54Z</time>
      </trkpt>
      <trkpt lat="45.03949" lon="5.78252">
        <ele>780</ele>
        <time>2017-12-15T20:14:09Z</time>
      </trkpt>
      <trkpt lat="45.03945" lon="5.78241">
        <ele>782</ele>
        <time>2017-12-15T20:14:22Z</time>
      </trkpt>
      <trkpt lat="45.03943" lon="5.7822">
        <ele>782</ele>
        <time>2017-12-15T20:14:25Z</time>
      </trkpt>
      <trkpt lat="45.03952" lon="5.7818">
        <ele>781</ele>
        <time>2017-12-15T20:14:36Z</time>
      </trkpt>
      <trkpt lat="45.03961" lon="5.78147">
        <ele>779</ele>
        <time>2017-12-15T20:14:52Z</time>
      </trkpt>
      <trkpt lat="45.03961" lon="5.7814">
        <ele>779</ele>
        <time>2017-12-15T20:15:03Z</time>
      </trkpt>
      <trkpt lat="45.03959" lon="5.78122">
        <ele>780</ele>
        <time>2017-12-15T20:15:13Z</time>
      </trkpt>
      <trkpt lat="45.03944" lon="5.78047">
        <ele>784</ele>
        <time>2017-12-15T20:15:24Z</time>
      </trkpt>
      <trkpt lat="45.03939" lon="5.78011">
        <ele>787</ele>
        <time>2017-12-15T20:15:26Z</time>
      </trkpt>
      <trkpt lat="45.03934" lon="5.7794">
        <ele>781</ele>
        <time>2017-12-15T20:15:43Z</time>
      </trkpt>
      <trkpt lat="45.03931" lon="5.77903">
        <ele>780</ele>
        <time>2017-12-15T20:15:55Z</time>
      </trkpt>
      <trkpt lat="45.03925" lon="5.77886">
        <ele>777</ele>
        <time>2017-12-15T20:15:57Z</time>
      </trkpt>
      <trkpt lat="45.03906" lon="5.77865">
        <ele>806</ele>
        <time>2017-12-15T20:16:07Z</time>
      </trkpt>
      <trkpt lat="45.03888" lon="5.77835">
        <ele>808</ele>
        <time>2017-12-15T20:16:20Z</time>
      </trkpt>
      <trkpt lat="45.03828" lon="5.77656">
        <ele>812</ele>
        <time>2017-12-15T20:16:37Z</time>
      </trkpt>
      <trkpt lat="45.03819" lon="5.77627">
        <ele>816</ele>
        <time>2017-12-15T20:16:48Z</time>
      </trkpt>
      <trkpt lat="45.03789" lon="5.77566">
        <ele>811</ele>
        <time>2017-12-15T20:17:03Z</time>
      </trkpt>
      <trkpt lat="45.03784" lon="5.77543">
        <ele>811</ele>
        <time>2017-12-15T20:17:18Z</time>
      </trkpt>
      <trkpt lat="45.03782" lon="5.77529">
        <ele>810</ele>
        <time>2017-12-15T20:17:37Z</time>
      </trkpt>
      <trkpt lat="45.03779" lon="5.77507">
        <ele>810</ele>
        <time>2017-12-15T20:17:39Z</time>
      </trkpt>
      <trkpt lat="45.03773" lon="5.77495">
        <ele>804</ele>
        <time>2017-12-15T20:17:49Z</time>
      </trkpt>
      <trkpt lat="45.03767" lon="5.77485">
        <ele>804</ele>
        <time>2017-12-15T20:17:59Z</time>
      </trkpt>
      <trkpt lat="45.03749" lon="5.77467">
        <ele>826</ele>
        <time>2017-12-15T20:18:05Z</time>
      </trkpt>
      <trkpt lat="45.03717" lon="5.77436">
        <ele>829</ele>
        <time>2017-12-15T20:18:23Z</time>
      </trkpt>
      <trkpt lat="45.03705" lon="5.77416">
        <ele>824</ele>
        <time>2017-12-15T20:18:26Z</time>
      </trkpt>
      <trkpt lat="45.03698" lon="5.77375">
        <ele>824</ele>
        <time>2017-12-15T20:18:29Z</time>
      </trkpt>
      <trkpt lat="45.03693" lon="5.77351">
        <ele>825</ele>
        <time>2017-12-15T20:18:46Z</time>
      </trkpt>
      <trkpt lat="45.03684" lon="5.77319">
        <ele>820</ele>
        <time>2017-12-15T20:18:55Z</time>
      </trkpt>
      <trkpt lat="45.03668" lon="5.77284">
        <ele>814</ele>
        <time>2017-12-15T20:19:07Z</time>
      </trkpt>
      <trkpt lat="45.03656" lon="5.77267">
        <ele>830</ele>
        <time>2017-12-15T20:19:22Z</time>
      </trkpt>
      <trkpt lat="45.0364" lon="5.7725">
        <ele>818</ele>
        <time>2017-12-15T20:19:29Z</time>
      </trkpt>
      <trkpt lat="45.03617" lon="5.77233">
        <ele>821</ele>
        <time>2017-12-15T20:19:37Z</time>
      </trkpt>
      <trkpt lat="45.03599" lon="5.77224">
        <ele>823</ele>
        <time>2017-12-15T20:19:51Z</time>
      </trkpt>
      <trkpt lat="45.03581" lon="5.77218">
        <ele>835</ele>
        <time>2017-12-15T20:19:55Z</time>
      </trkpt>
      <trkpt lat="45.03537" lon="5.77216">
        <ele>838</ele>
        <time>2017-12-15T20:20:10Z</time>
      </trkpt>
      <trkpt lat="45.03518" lon="5.7721">
        <ele>839</ele>
        <time>2017-12-15T20:20:20Z</time>
      </trkpt>
      <trkpt lat="45.03507" lon="5.77205">
        <ele>838</ele>
        <time>2017-12-15T20:20:40Z</time>
      </trkpt>
      <trkpt lat="45.03471" lon="5.77183">
        <ele>845</ele>
        <time>2017-12-15T20:20:51Z</time>
      </trkpt>
      <trkpt lat="45.0345" lon="5.77172">
        <ele>846</ele>
        <time>2017-12-15T20:21:02Z</time>
      </trkpt>
      <trkpt lat="45.03429" lon="5.77171">
        <ele>846</ele>
        <time>2017-12-15T20:21:10Z</time>
      </trkpt>
      <trkpt lat="45.03396" lon="5.77172">
        <ele>852</ele>
        <time>2017-12-15T20:21:24Z</time>
      </trkpt>
      <trkpt lat="45.0333" lon="5.77174">
        <ele>850</ele>
        <time>2017-12-15T20:21:40Z</time>
      </trkpt>
      <trkpt lat="45.03306" lon="5.77171">
        <ele>854</ele>
        <time>2017-12-15T20:22:00Z</time>
      </trkpt>
      <trkpt lat="45.03284" lon="5.77164">
        <ele>839</ele>
        <time>2017-12-15T20:22:15Z</time>
      </trkpt>
      <trkpt lat="45.03279" lon="5.77163">
        <ele>839</ele>
        <time>2017-12-15T20:22:31Z</time>
      </trkpt>
      <trkpt lat="45.03264" lon="5.77168">
        <ele>851</ele>
        <time>2017-12-15T20:22:45Z</time>
      </trkpt>
      <trkpt lat="45.03222" lon="5.77199">
        <ele>853</ele>
        <time>2017-12-15T20:22:50Z</time>
      </trkpt>
      <trkpt lat="45.03196" lon="5.7722">
        <ele>854</ele>
        <time>2017-12-15T20:22:59Z</time>
      </trkpt>
      <trkpt lat="45.0318" lon="5.77237">
        <ele>856</ele>
        <time>2017-12-15T20:23:10Z</time>
      </trkpt>
      <trkpt lat="45.0317" lon="5.77254">
        <ele>860</ele>
        <time>2017-12-15T20:23:15Z</time>
      </trkpt>
      <trkpt lat="45.0316" lon="5.77269">
        <ele>861</ele>
        <time>2017-12-15T20:23:25Z</time>
      </trkpt>
      <trkpt lat="45.03144" lon="5.77281">
        <ele>863</ele>
        <time>2017-12-15T20:23:41Z</time>
      </trkpt>
      <trkpt lat="45.03112" lon="5.77288">
        <ele>863</ele>
        <time>2017-12-15T20:23:44Z</time>
      </trkpt>
      <trkpt lat="45.031" lon="5.77297">
        <ele>864</ele>
        <time>2017-12-15T20:23:58Z</time>
      </trkpt>
      <trkpt lat="45.03086" lon="5.77316">
        <ele>867</ele>
        <time>2017-12-15T20:24:04Z</time>
      </trkpt>
      <trkpt lat="45.03072" lon="5.77336">
        <ele>875</ele>
        <time>2017-12-15T20:24:15Z</time>
      </trkpt>
      <trkpt lat="45.03064" lon="5.77344">
        <ele>877</ele>
        <time>2017-12-15T20:24:24Z</time>
      </trkpt>
      <trkpt lat="45.03055" lon="5.77349">
        <ele>878</ele>
        <time>2017-12-15T20:24:29Z</time>
      </trkpt>
      <trkpt lat="45.03036" lon="5.77353">
        <ele>879</ele>
        <time>2017-12-15T20:24:44Z</time>
      </trkpt>
      <trkpt lat="45.03016" lon="5.77349">
        <ele>877</ele>
        <time>2017-12-15T20:24:52Z</time>
      </trkpt>
      <trkpt lat="45.02997" lon="5.77338">
        <ele>873</ele>
        <time>2017-12-15T20:25:10Z</time>
      </trkpt>
      <trkpt lat="45.0298" lon="5.77333">
        <ele>872</ele>
        <time>2017-12-15T20:25:13Z</time>
      </trkpt>
      <trkpt lat="45.02949" lon="5.77339">
        <ele>886</ele>
        <time>2017-12-15T20:25:21Z</time>
      </trkpt>
      <trkpt lat="45.02938" lon="5.77338">
        <ele>887</ele>
        <time>2017-12-15T20:25:26Z</time>
      </trkpt>
      <trkpt lat="45.02921" lon="5.77327">
        <ele>884</ele>
        <time>2017-12-15T20:25:38Z</time>
      </trkpt>
      <trkpt lat="45.02914" lon="5.77326">
        <ele>889</ele>
        <time>2017-12-15T20:25:56Z</time>
      </trkpt>
      <trkpt lat="45.02908" lon="5.77327">
        <ele>889</ele>
        <time>2017-12-15T20:26:14Z</time>
      </trkpt>
      <trkpt lat="45.029" lon="5.77332">
        <ele>890</ele>
        <time>2017-12-15T20:26:17Z</time>
      </trkpt>
      <trkpt lat="45.02875" lon="5.77357">
        <ele>899</ele>
        <time>2017-12-15T20:26:35Z</time>
      </trkpt>
      <trkpt lat="45.02867" lon="5.77364">
        <ele>900</ele>
        <time>2017-12-15T20:26:45Z</time>
      </trkpt>
      <trkpt lat="45.02857" lon="5.77367">
        <ele>901</ele>
        <time>2017-12-15T20:26:49Z</time>
      </trkpt>
      <trkpt lat="45.02849" lon="5.77364">
        <ele>901</ele>
        <time>2017-12-15T20:27:08Z</time>
      </trkpt>
      <trkpt lat="45.02842" lon="5.77357">
        <ele>902</ele>
        <time>2017-12-15T20:27:11Z</time>
      </trkpt>
      <trkpt lat="45.02835" lon="5.77341">
        <ele>903</ele>
        <time>2017-12-15T20:27:18Z</time>
      </trkpt>
      <trkpt lat="45.02834" lon="5.77317">
        <ele>898</ele>
        <time>2017-12-15T20:27:25Z</time>
      </trkpt>
      <trkpt lat="45.02837" lon="5.77277">
        <ele>893</ele>
        <time>2017-12-15T20:27:41Z</time>
      </trkpt>
      <trkpt lat="45.02833" lon="5.77253">
        <ele>896</ele>
        <time>2017-12-15T20:27:58Z</time>
      </trkpt>
      <trkpt lat="45.02824" lon="5.77236">
        <ele>900</ele>
        <time>2017-12-15T20:28:14Z</time>
      </trkpt>
      <trkpt lat="45.0281" lon="5.77224">
        <ele>903</ele>
        <time>2017-12-15T20:28:17Z</time>
      </trkpt>
      <trkpt lat="45.02805" lon="5.77223">
        <ele>903</ele>
        <time>2017-12-15T20:28:21Z</time>
      </trkpt>
      <trkpt lat="45.02727" lon="5.77224">
        <ele>911</ele>
        <time>2017-12-15T20:28:40Z</time>
      </trkpt>
      <trkpt lat="45.02425" lon="5.77329">
        <ele>915</ele>
        <time>2017-12-15T20:28:58Z</time>
      </trkpt>
      <trkpt lat="45.02338" lon="5.77367">
        <ele>915</ele>
        <time>2017-12-15T20:29:05Z</time>
      </trkpt>
      <trkpt lat="45.0232" lon="5.77376">
        <ele>917</ele>
        <time>2017-12-15T20:29:09Z</time>
      </trkpt>
      <trkpt lat="45.02314" lon="5.77374">
        <ele>918</ele>
        <time>2017-12-15T20:29:19Z</time>
      </trkpt>
      <trkpt lat="45.02312" lon="5.77368">
        <ele>918</ele>
        <time>2017-12-15T20:29:28Z</time>
      </trkpt>
      <trkpt lat="45.02312" lon="5.77363">
        <ele>918</ele>
        <time>2017-12-15T20:29:42Z</time>
      </trkpt>
      <trkpt lat="45.02313" lon="5.77361">
        <ele>919</ele>
        <time>2017-12-15T20:30:01Z</time>
      </trkpt>
      <trkpt lat="45.02335" lon="5.77342">
        <ele>917</ele>
        <time>2017-12-15T20:30:05Z</time>
      </trkpt>
      <trkpt lat="45.02352" lon="5.77326">
        <ele>920</ele>
        <time>2017-12-15T20:30:21Z</time>
      </trkpt>
      <trkpt lat="45.02367" lon="5.77307">
        <ele>921</ele>
        <time>2017-12-15T20:30:37Z</time>
      </trkpt>
      <trkpt lat="45.02388" lon="5.77258">
        <ele>922</ele>
        <time>2017-12-15T20:30:47Z</time>
      </trkpt>
      <trkpt lat="45.02397" lon="5.7724">
        <ele>926</ele>
        <time>2017-12-15T20:30:53Z</time>
      </trkpt>
      <trkpt lat="45.02409" lon="5.77225">
        <ele>927</ele>
        <time>2017-12-15T20:31:03Z</time>
      </trkpt>
      <trkpt lat="45.02429" lon="5.77219">
        <ele>925</ele>
        <time>2017-12-15T20:31:22Z</time>
      </trkpt>
      <trkpt lat="45.02462" lon="5.77219">
        <ele>924</ele>
        <time>2017-12-15T20:31:37Z</time>
      </trkpt>
      <trkpt lat="45.02494" lon="5.77218">
        <ele>924</ele>
        <time>2017-12-15T20:31:57Z</time>
      </trkpt>
      <trkpt lat="45.02502" lon="5.77215">
        <ele>921</ele>
        <time>2017-12-15T20:32:14Z</time>
      </trkpt>
      <trkpt lat="45.02507" lon="5.77208">
        <ele>922</ele>
        <time>2017-12-15T20:32:27Z</time>
      </trkpt>
      <trkpt lat="45.02507" lon="5.77201">
        <ele>922</ele>
        <time>2017-12-15T20:32:32Z</time>
      </trkpt>
      <trkpt lat="45.02505" lon="5.77195">
        <ele>923</ele>
        <time>2017-12-15T20:32:47Z</time>
      </trkpt>
      <trkpt lat="45.02501" lon="5.77188">
        <ele>923</ele>
        <time>2017-12-15T20:33:02Z</time>
      </trkpt>
      <trkpt lat="45.0249" lon="5.77182">
        <ele>926</ele>
        <time>2017-12-15T20:33:09Z</time>
      </trkpt>
      <trkpt lat="45.02414" lon="5.77159">
        <ele>933</ele>
        <time>2017-12-15T20:33:28Z</time>
      </trkpt>
      <trkpt lat="45.02324" lon="5.77133">
        <ele>943</ele>
        <time>2017-12-15T20:33:38Z</time>
      </trkpt>
      <trkpt lat="45.02307" lon="5.77121">
        <ele>944</ele>
        <time>2017-12-15T20:33:57Z</time>
      </trkpt>
      <trkpt lat="45.02273" lon="5.77069">
        <ele>949</ele>
        <time>2017-12-15T20:34:12Z</time>
      </trkpt>
      <trkpt lat="45.02258" lon="5.77037">
        <ele>948</ele>
        <time>2017-12-15T20:34:26Z</time>
      </trkpt>
      <trkpt lat="45.02248" lon="5.77009">
        <ele>956</ele>
        <time>2017-12-15T20:34:44Z</time>
      </trkpt>
      <trkpt lat="45.02229" lon="5.7695">
        <ele>956</ele>
        <time>2017-12-15T20:35:01Z</time>
      </trkpt>
      <trkpt lat="45.02217" lon="5.76922">
        <ele>956</ele>
        <time>2017-12-15T20:35:08Z</time>
      </trkpt>
      <trkpt lat="45.02195" lon="5.76877">
        <ele>957</ele>
        <time>2017-12-15T20:35:27Z</time>
      </trkpt>
      <trkpt lat="45.02153" lon="5.76794">
        <ele>969</ele>
        <time>2017-12-15T20:35:40Z</time>
      </trkpt>
      <trkpt lat="45.0214" lon="5.76764">
        <ele>969</ele>
        <time>2017-12-15T20:36:00Z</time>
      </trkpt>
      <trkpt lat="45.02138" lon="5.76749">
        <ele>967</ele>
        <time>2017-12-15T20:36:10Z</time>
      </trkpt>
      <trkpt lat="45.02135" lon="5.76741">
        <ele>968</ele>
        <time>2017-12-15T20:36:14Z</time>
      </trkpt>
      <trkpt lat="45.02123" lon="5.76723">
        <ele>969</ele>
        <time>2017-12-15T20:36:23Z</time>
      </trkpt>
      <trkpt lat="45.02113" lon="5.76714">
        <ele>969</ele>
        <time>2017-12-15T20:36:32Z</time>
      </trkpt>
      <trkpt lat="45.02095" lon="5.76703">
        <ele>970</ele>
        <time>2017-12-15T20:36:52Z</time>
      </trkpt>
      <trkpt lat="45.0207" lon="5.76695">
        <ele>976</ele>
        <time>2017-12-15T20:37:01Z</time>
      </trkpt>
      <trkpt lat="45.02064" lon="5.76694">
        <ele>976</ele>
        <time>2017-12-15T20:37:05Z</time>
      </trkpt>
      <trkpt lat="45.02057" lon="5.7669">
        <ele>976</ele>
        <time>2017-12-15T20:37:16Z</time>
      </trkpt>
      <trkpt lat="45.02018" lon="5.76668">
        <ele>978</ele>
        <time>2017-12-15T20:37:32Z</time>
      </trkpt>
      <trkpt lat="45.0199" lon="5.76655">
        <ele>979</ele>
        <time>2017-12-15T20:37:41Z</time>
      </trkpt>
      <trkpt lat="45.0195" lon="5.76639">
        <ele>982</ele>
        <time>2017-12-15T20:37:43Z</time>
      </trkpt>
      <trkpt lat="45.01919" lon="5.76628">
        <ele>983</ele>
        <time>2017-12-15T20:37:47Z</time>
      </trkpt>
      <trkpt lat="45.01896" lon="5.76615">
        <ele>990</ele>
        <time>2017-12-15T20:37:55Z</time>
      </trkpt>
      <trkpt lat="45.01857" lon="5.76588">
        <ele>992</ele>
        <time>2017-12-15T20:38:06Z</time>
      </trkpt>
      <trkpt lat="45.01751" lon="5.76496">
        <ele>1001</ele>
        <time>2017-12-15T20:38:15Z</time>
      </trkpt>
      <trkpt lat="45.01509" lon="5.76287">
        <ele>1003</ele>
        <time>2017-12-15T20:38:19Z</time>
      </trkpt>
      <trkpt lat="45.01489" lon="5.76271">
        <ele>1003</ele>
        <time>2017-12-15T20:38:37Z</time>
      </trkpt>
      <trkpt lat="45.01473" lon="5.76262">
        <ele>1003</ele>
        <time>2017-12-15T20:38:44Z</time>
      </trkpt>
      <trkpt lat="45.01446" lon="5.76256">
        <ele>1004</ele>
        <time>2017-12-15T20:39:01Z</time>
      </trkpt>
      <trkpt lat="45.01346" lon="5.76246">
        <ele>1005</ele>
        <time>2017-12-15T20:39:18Z</time>
      </trkpt>
      <trkpt lat="45.01285" lon="5.76239">
        <ele>1004</ele>
        <time>2017-12-15T20:39:27Z</time>
      </trkpt>
      <trkpt lat="45.01213" lon="5.76225">
        <ele>1003</ele>
        <time>2017-12-15T20:39:46Z</time>
      </trkpt>
      <trkpt lat="45.01053" lon="5.76193">
        <ele>1003</ele>
        <time>2017-12-15T20:40:06Z</time>
      </trkpt>
      <trkpt lat="45.01036" lon="5.7619">
        <ele>1003</ele>
        <time>2017-12-15T20:40:13Z</time>
      </trkpt>
      <trkpt lat="45.01003" lon="5.76174">
        <ele>1002</ele>
        <time>2017-12-15T20:40:25Z</time>
      </trkpt>
      <trkpt lat="45.00968" lon="5.76152">
        <ele>1001</ele>
        <time>2017-12-15T20:40:43Z</time>
      </trkpt>
      <trkpt lat="45.00963" lon="5.76149">
        <ele>1001</ele>
        <time>2017-12-15T20:40:49Z</time>
      </trkpt>
      <trkpt lat="45.00921" lon="5.76126">
        <ele>1001</ele>
        <time>2017-12-15T20:41:00Z</time>
      </trkpt>
      <trkpt lat="45.00854" lon="5.76099">
        <ele>1002</ele>
        <time>2017-12-15T20:41:18Z</time>
      </trkpt>
      <trkpt lat="45.00712" lon="5.76043">
        <ele>997</ele>
        <time>2017-12-15T20:41:21Z</time>
      </trkpt>
      <trkpt lat="45.00627" lon="5.76026">
        <ele>996</ele>
        <time>2017-12-15T20:41:41Z</time>
      </trkpt>
      <trkpt lat="45.00582" lon="5.7602">
        <ele>993</ele>
        <time>2017-12-15T20:41:52Z</time>
      </trkpt>
      <trkpt lat="45.0052" lon="5.76011">
        <ele>993</ele>
        <time>2017-12-15T20:42:03Z</time>
      </trkpt>
      <trkpt lat="45.00482" lon="5.76003">
        <ele>993</ele>
        <time>2017-12-15T20:42:23Z</time>
      </trkpt>
      <trkpt lat="45.00429" lon="5.75989">
        <ele>989</ele>
        <time>2017-12-15T20:42:39Z</time>
      </trkpt>
      <trkpt lat="45.00375" lon="5.75969">
        <ele>988</ele>
        <time>2017-12-15T20:42:45Z</time>
      </trkpt>
      <trkpt lat="45.00358" lon="5.75958">
        <ele>988</ele>
        <time>2017-12-15T20:43:00Z</time>
      </trkpt>
      <trkpt lat="45.00348" lon="5.75949">
        <ele>988</ele>
        <time>2017-12-15T20:43:20Z</time>
      </trkpt>
      <trkpt lat="45.00305" lon="5.75895">
        <ele>986</ele>
        <time>2017-12-15T20:43:33Z</time>
      </trkpt>
      <trkpt lat="45.00109" lon="5.75655">
        <ele>980</ele>
        <time>2017-12-15T20:43:47Z</time>
      </trkpt>
      <trkpt lat="45.00015" lon="5.75542">
        <ele>976</ele>
        <time>2017-12-15T20:44:06Z</time>
      </trkpt>
      <trkpt lat="44.99872" lon="5.75366">
        <ele>975</ele>
        <time>2017-12-15T20:44:08Z</time>
      </trkpt>
      <trkpt lat="44.9982" lon="5.75304">
        <ele>974</ele>
        <time>2017-12-15T20:44:22Z</time>
      </trkpt>
      <trkpt lat="44.99782" lon="5.75253">
        <ele>975</ele>
        <time>2017-12-15T20:44:28Z</time>
      </trkpt>
      <trkpt lat="44.99754" lon="5.75236">
        <ele>977</ele>
        <time>2017-12-15T20:44:48Z</time>
      </trkpt>
      <trkpt lat="44.99726" lon="5.75224">
        <ele>975</ele>
        <time>2017-12-15T20:44:55Z</time>
      </trkpt>
      <trkpt lat="44.99703" lon="5.75219">
        <ele>974</ele>
        <time>2017-12-15T20:44:59Z</time>
      </trkpt>
      <trkpt lat="44.99675" lon="5.75215">
        <ele>973</ele>
        <time>2017-12-15T20:45:04Z</time>
      </trkpt>
      <trkpt lat="44.99456" lon="5.75197">
        <ele>968</ele>
        <time>2017-12-15T20:45:14Z</time>
      </trkpt>
      <trkpt lat="44.99244" lon="5.75175">
        <ele>967</ele>
        <time>2017-12-15T20:45:34Z</time>
      </trkpt>
      <trkpt lat="44.9919" lon="5.75169">
        <ele>966</ele>
        <time>2017-12-15T20:45:39Z</time>
      </trkpt>
      <trkpt lat="44.99178" lon="5.75172">
        <ele>966</ele>
        <time>2017-12-15T20:45:44Z</time>
      </trkpt>
      <trkpt lat="44.99158" lon="5.7518">
        <ele>966</ele>
        <time>2017-12-15T20:45:51Z</time>
      </trkpt>
      <trkpt lat="44.99114" lon="5.75209">
        <ele>967</ele>
        <time>2017-12-15T20:46:05Z</time>
      </trkpt>
      <trkpt lat="44.991" lon="5.75214">
        <ele>967</ele>
        <time>2017-12-15T20:46:13Z</time>
      </trkpt>
      <trkpt lat="44.99086" lon="5.75213">
        <ele>967</ele>
        <time>2017-12-15T20:46:32Z</time>
      </trkpt>
      <trkpt lat="44.99064" lon="5.75198">
        <ele>966</ele>
        <time>2017-12-15T20:46:51Z</time>
      </trkpt>
      <trkpt lat="44.98991" lon="5.75142">
        <ele>968</ele>
        <time>2017-12-15T20:47:06Z</time>
      </trkpt>
      <trkpt lat="44.98881" lon="5.7506">
        <ele>970</ele>
        <time>2017-12-15T20:47:26Z</time>
      </trkpt>
      <trkpt lat="44.9884" lon="5.75029">
        <ele>970</ele>
        <time>2017-12-15T20:47:40Z</time>
      </trkpt>
      <trkpt lat="44.98808" lon="5.74997">
        <ele>970</ele>
        <time>2017-12-15T20:47:52Z</time>
      </trkpt>
      <trkpt lat="44.98765" lon="5.74966">
        <ele>970</ele>
        <time>2017-12-15T20:48:04Z</time>
      </trkpt>
      <trkpt lat="44.98705" lon="5.7493">
        <ele>966</ele>
        <time>2017-12-15T20:48:07Z</time>
      </trkpt>
      <trkpt lat="44.98689" lon="5.7492">
        <ele>966</ele>
        <time>2017-12-15T20:48:26Z</time>
      </trkpt>
      <trkpt lat="44.98675" lon="5.74906">
        <ele>967</ele>
        <time>2017-12-15T20:48:37Z</time>
      </trkpt>
      <trkpt lat="44.98662" lon="5.7489">
        <ele>966</ele>
        <time>2017-12-15T20:48:51Z</time>
      </trkpt>
      <trkpt lat="44.98654" lon="5.74876">
        <ele>966</ele>
        <time>2017-12-15T20:49:10Z</time>
      </trkpt>
      <trkpt lat="44.98635" lon="5.74855">
        <ele>966</ele>
        <time>2017-12-15T20:49:19Z</time>
      </trkpt>
      <trkpt lat="44.9862" lon="5.74845">
        <ele>966</ele>
        <time>2017-12-15T20:49:29Z</time>
      </trkpt>
      <trkpt lat="44.98611" lon="5.7484">
        <ele>965</ele>
        <time>2017-12-15T20:49:45Z</time>
      </trkpt>
      <trkpt lat="44.98598" lon="5.74826">
        <ele>967</ele>
        <time>2017-12-15T20:50:04Z</time>
      </trkpt>
      <trkpt lat="44.98585" lon="5.74812">
        <ele>967</ele>
        <time>2017-12-15T20:50:14Z</time>
      </trkpt>
      <trkpt lat="44.98511" lon="5.74725">
        <ele>969</ele>
        <time>2017-12-15T20:50:33Z</time>
      </trkpt>
      <trkpt lat="44.98503" lon="5.74718">
        <ele>969</ele>
        <time>2017-12-15T20:50:51Z</time>
      </trkpt>
      <trkpt lat="44.98498" lon="5.74717">
        <ele>967</ele>
        <time>2017-12-15T20:51:00Z</time>
      </trkpt>
      <trkpt lat="44.98487" lon="5.74719">
        <ele>967</ele>
        <time>2017-12-15T20:51:04Z</time>
      </trkpt>
      <trkpt lat="44.9848" lon="5.7472">
        <ele>967</ele>
        <time>2017-12-15T20:51:17Z</time>
      </trkpt>
      <trkpt lat="44.98468" lon="5.74718">
        <ele>966</ele>
        <time>2017-12-15T20:51:32Z</time>
      </trkpt>
      <trkpt lat="44.98447" lon="5.74703">
        <ele>966</ele>
        <time>2017-12-15T20:51:35Z</time>
      </trkpt>
      <trkpt lat="44.98404" lon="5.74637">
        <ele>968</ele>
        <time>2017-12-15T20:51:44Z</time>
      </trkpt>
      <trkpt lat="44.98357" lon="5.74551">
        <ele>972</ele>
        <time>2017-12-15T20:51:47Z</time>
      </trkpt>
      <trkpt lat="44.9833" lon="5.74513">
        <ele>966</ele>
        <time>2017-12-15T20:51:56Z</time>
      </trkpt>
      <trkpt lat="44.98322" lon="5.7449">
        <ele>967</ele>
        <time>2017-12-15T20:52:13Z</time>
      </trkpt>
      <trkpt lat="44.9832" lon="5.74477">
        <ele>966</ele>
        <time>2017-12-15T20:52:32Z</time>
      </trkpt>
      <trkpt lat="44.9832" lon="5.74431">
        <ele>968</ele>
        <time>2017-12-15T20:52:34Z</time>
      </trkpt>
      <trkpt lat="44.98318" lon="5.74415">
        <ele>973</ele>
        <time>2017-12-15T20:52:36Z</time>
      </trkpt>
      <trkpt lat="44.98312" lon="5.74398">
        <ele>973</ele>
        <time>2017-12-15T20:52:50Z</time>
      </trkpt>
      <trkpt lat="44.98291" lon="5.7437">
        <ele>973</ele>
        <time>2017-12-15T20:53:02Z</time>
      </trkpt>
      <trkpt lat="44.98256" lon="5.74329">
        <ele>977</ele>
        <time>2017-12-15T20:53:09Z</time>
      </trkpt>
      <trkpt lat="44.98182" lon="5.74258">
        <ele>974</ele>
        <time>2017-12-15T20:53:15Z</time>
      </trkpt>
      <trkpt lat="44.9815" lon="5.74227">
        <ele>972</ele>
        <time>2017-12-15T20:53:21Z</time>
      </trkpt>
      <trkpt lat="44.98137" lon="5.7421">
        <ele>972</ele>
        <time>2017-12-15T20:53:25Z</time>
      </trkpt>
      <trkpt lat="44.98128" lon="5.74191">
        <ele>973</ele>
        <time>2017-12-15T20:53:31Z</time>
      </trkpt>
      <trkpt lat="44.98112" lon="5.7415">
        <ele>979</ele>
        <time>2017-12-15T20:53:49Z</time>
      </trkpt>
      <trkpt lat="44.98099" lon="5.74122">
        <ele>981</ele>
        <time>2017-12-15T20:54:02Z</time>
      </trkpt>
      <trkpt lat="44.98081" lon="5.74097">
        <ele>975</ele>
        <time>2017-12-15T20:54:05Z</time>
      </trkpt>
      <trkpt lat="44.98043" lon="5.74057">
        <ele>979</ele>
        <time>2017-12-15T20:54:25Z</time>
      </trkpt>
      <trkpt lat="44.98026" lon="5.74037">
        <ele>979</ele>
        <time>2017-12-15T20:54:35Z</time>
      </trkpt>
      <trkpt lat="44.98008" lon="5.74011">
        <ele>978</ele>
        <time>2017-12-15T20:54:52Z</time>
      </trkpt>
      <trkpt lat="44.98008" lon="5.7401">
        <ele>978</ele>
        <time>2017-12-15T20:54:56Z</time>
      </trkpt>
      <trkpt lat="44.97967" lon="5.73943">
        <ele>977</ele>
        <time>2017-12-15T20:55:09Z</time>
      </trkpt>
      <trkpt lat="44.97952" lon="5.73916">
        <ele>983</ele>
        <time>2017-12-15T20:55:11Z</time>
      </trkpt>
      <trkpt lat="44.97931" lon="5.7389">
        <ele>983</ele>
        <time>2017-12-15T20:55:16Z</time>
      </trkpt>
      <trkpt lat="44.97886" lon="5.73846">
        <ele>971</ele>
        <time>2017-12-15T20:55:32Z</time>
      </trkpt>
      <trkpt lat="44.97869" lon="5.73828">
        <ele>975</ele>
        <time>2017-12-15T20:55:37Z</time>
      </trkpt>
      <trkpt lat="44.9785" lon="5.73802">
        <ele>975</ele>
        <time>2017-12-15T20:55:43Z</time>
      </trkpt>
      <trkpt lat="44.97838" lon="5.73781">
        <ele>976</ele>
        <time>2017-12-15T20:55:56Z</time>
      </trkpt>
      <trkpt lat="44.9782" lon="5.73737">
        <ele>966</ele>
        <time>2017-12-15T20:56:16Z</time>
      </trkpt>
      <trkpt lat="44.9781" lon="5.73701">
        <ele>963</ele>
        <time>2017-12-15T20:56:33Z</time>
      </trkpt>
      <trkpt lat="44.97807" lon="5.73676">
        <ele>965</ele>
        <time>2017-12-15T20:56:35Z</time>
      </trkpt>
      <trkpt lat="44.97816" lon="5.7364">
        <ele>966</ele>
        <time>2017-12-15T20:56:52Z</time>
      </trkpt>
      <trkpt lat="44.97836" lon="5.73596">
        <ele>983</ele>
        <time>2017-12-15T20:57:08Z</time>
      </trkpt>
      <trkpt lat="44.97848" lon="5.73566">
        <ele>987</ele>
        <time>2017-12-15T20:57:22Z</time>
      </trkpt>
      <trkpt lat="44.9785" lon="5.73546">
        <ele>991</ele>
        <time>2017-12-15T20:57:37Z</time>
      </trkpt>
      <trkpt lat="44.97846" lon="5.73532">
        <ele>991</ele>
        <time>2017-12-15T20:57:53Z</time>
      </trkpt>
      <trkpt lat="44.97841" lon="5.73526">
        <ele>991</ele>
        <time>2017-12-15T20:57:58Z</time>
      </trkpt>
      <trkpt lat="44.97834" lon="5.73524">
        <ele>990</ele>
        <time>2017-12-15T20:58:11Z</time>
      </trkpt>
      <trkpt lat="44.97816" lon="5.73514">
        <ele>974</ele>
        <time>2017-12-15T20:58:17Z</time>
      </trkpt>
      <trkpt lat="44.97781" lon="5.73484">
        <ele>981</ele>
        <time>2017-12-15T20:58:28Z</time>
      </trkpt>
      <trkpt lat="44.97744" lon="5.7345">
        <ele>964</ele>
        <time>2017-12-15T20:58:31Z</time>
      </trkpt>
      <trkpt lat="44.9773" lon="5.73433">
        <ele>967</ele>
        <time>2017-12-15T20:58:45Z</time>
      </trkpt>
      <trkpt lat="44.97716" lon="5.73407">
        <ele>974</ele>
        <time>2017-12-15T20:58:48Z</time>
      </trkpt>
      <trkpt lat="44.97708" lon="5.73381">
        <ele>973</ele>
        <time>2017-12-15T20:59:07Z</time>
      </trkpt>
      <trkpt lat="44.97706" lon="5.73334">
        <ele>976</ele>
        <time>2017-12-15T20:59:15Z</time>
      </trkpt>
      <trkpt lat="44.97708" lon="5.73308">
        <ele>988</ele>
        <time>2017-12-15T20:59:34Z</time>
      </trkpt>
      <trkpt lat="44.97706" lon="5.7329">
        <ele>990</ele>
        <time>2017-12-15T20:59:54Z</time>
      </trkpt>
      <trkpt lat="44.97701" lon="5.73283">
        <ele>990</ele>
        <time>2017-12-15T21:00:11Z</time>
      </trkpt>
      <trkpt lat="44.97695" lon="5.73278">
        <ele>989</ele>
        <time>2017-12-15T21:00:22Z</time>
      </trkpt>
      <trkpt lat="44.97624" lon="5.73253">
        <ele>969</ele>
        <time>2017-12-15T21:00:42Z</time>
      </trkpt>
      <trkpt lat="44.97596" lon="5.73234">
        <ele>979</ele>
        <time>2017-12-15T21:00:54Z</time>
      </trkpt>
      <trkpt lat="44.97577" lon="5.73214">
        <ele>967</ele>
        <time>2017-12-15T21:01:02Z</time>
      </trkpt>
      <trkpt lat="44.97558" lon="5.73189">
        <ele>968</ele>
        <time>2017-12-15T21:01:12Z</time>
      </trkpt>
      <trkpt lat="44.97549" lon="5.73171">
        <ele>968</ele>
        <time>2017-12-15T21:01:32Z</time>
      </trkpt>
      <trkpt lat="44.97543" lon="5.73152">
        <ele>972</ele>
        <time>2017-12-15T21:01:43Z</time>
      </trkpt>
      <trkpt lat="44.97541" lon="5.73134">
        <ele>971</ele>
        <time>2017-12-15T21:01:54Z</time>
      </trkpt>
      <trkpt lat="44.97544" lon="5.73104">
        <ele>973</ele>
        <time>2017-12-15T21:02:10Z</time>
      </trkpt>
      <trkpt lat="44.97546" lon="5.7307">
        <ele>976</ele>
        <time>2017-12-15T21:02:28Z</time>
      </trkpt>
      <trkpt lat="44.97542" lon="5.73038">
        <ele>976</ele>
        <time>2017-12-15T21:02:48Z</time>
      </trkpt>
      <trkpt lat="44.97534" lon="5.7301">
        <ele>975</ele>
        <time>2017-12-15T21:03:07Z</time>
      </trkpt>
      <trkpt lat="44.97521" lon="5.72969">
        <ele>978</ele>
        <time>2017-12-15T21:03:13Z</time>
      </trkpt>
      <trkpt lat="44.97505" lon="5.72915">
        <ele>975</ele>
        <time>2017-12-15T21:03:32Z</time>
      </trkpt>
      <trkpt lat="44.975" lon="5.72888">
        <ele>979</ele>
        <time>2017-12-15T21:03:37Z</time>
      </trkpt>
      <trkpt lat="44.97497" lon="5.72865">
        <ele>963</ele>
        <time>2017-12-15T21:03:40Z</time>
      </trkpt>
      <trkpt lat="44.97499" lon="5.72831">
        <ele>970</ele>
        <time>2017-12-15T21:03:53Z</time>
      </trkpt>
      <trkpt lat="44.97502" lon="5.72806">
        <ele>978</ele>
        <time>2017-12-15T21:04:12Z</time>
      </trkpt>
      <trkpt lat="44.97504" lon="5.72748">
        <ele>973</ele>
        <time>2017-12-15T21:04:20Z</time>
      </trkpt>
      <trkpt lat="44.97503" lon="5.72729">
        <ele>977</ele>
        <time>2017-12-15T21:04:36Z</time>
      </trkpt>
      <trkpt lat="44.97497" lon="5.72701">
        <ele>964</ele>
        <time>2017-12-15T21:04:39Z</time>
      </trkpt>
      <trkpt lat="44.97491" lon="5.72672">
        <ele>967</ele>
        <time>2017-12-15T21:04:59Z</time>
      </trkpt>
      <trkpt lat="44.9749" lon="5.72653">
        <ele>966</ele>
        <time>2017-12-15T21:05:12Z</time>
      </trkpt>
      <trkpt lat="44.97495" lon="5.72621">
        <ele>963</ele>
        <time>2017-12-15T21:05:14Z</time>
      </trkpt>
      <trkpt lat="44.975" lon="5.72609">
        <ele>975</ele>
        <time>2017-12-15T21:05:24Z</time>
      </trkpt>
      <trkpt lat="44.97515" lon="5.72588">
        <ele>974</ele>
        <time>2017-12-15T21:05:28Z</time>
      </trkpt>
      <trkpt lat="44.97522" lon="5.72576">
        <ele>976</ele>
        <time>2017-12-15T21:05:39Z</time>
      </trkpt>
      <trkpt lat="44.97524" lon="5.72566">
        <ele>978</ele>
        <time>2017-12-15T21:05:43Z</time>
      </trkpt>
      <trkpt lat="44.97515" lon="5.72539">
        <ele>979</ele>
        <time>2017-12-15T21:05:57Z</time>
      </trkpt>
      <trkpt lat="44.97507" lon="5.72534">
        <ele>979</ele>
        <time>2017-12-15T21:06:03Z</time>
      </trkpt>
      <trkpt lat="44.97494" lon="5.72531">
        <ele>969</ele>
        <time>2017-12-15T21:06:12Z</time>
      </trkpt>
      <trkpt lat="44.9746" lon="5.72525">
        <ele>967</ele>
        <time>2017-12-15T21:06:24Z</time>
      </trkpt>
      <trkpt lat="44.9741" lon="5.72517">
        <ele>961</ele>
        <time>2017-12-15T21:06:37Z</time>
      </trkpt>
      <trkpt lat="44.9738" lon="5.7252">
        <ele>957</ele>
        <time>2017-12-15T21:06:49Z</time>
      </trkpt>
      <trkpt lat="44.97353" lon="5.72525">
        <ele>956</ele>
        <time>2017-12-15T21:06:56Z</time>
      </trkpt>
      <trkpt lat="44.97331" lon="5.72527">
        <ele>949</ele>
        <time>2017-12-15T21:07:04Z</time>
      </trkpt>
      <trkpt lat="44.97311" lon="5.72532">
        <ele>946</ele>
        <time>2017-12-15T21:07:21Z</time>
      </trkpt>
      <trkpt lat="44.97294" lon="5.72539">
        <ele>944</ele>
        <time>2017-12-15T21:07:33Z</time>
      </trkpt>
      <trkpt lat="44.97281" lon="5.72541">
        <ele>943</ele>
        <time>2017-12-15T21:07:50Z</time>
      </trkpt>
      <trkpt lat="44.97271" lon="5.7254">
        <ele>943</ele>
        <time>2017-12-15T21:07:56Z</time>
      </trkpt>
      <trkpt lat="44.97262" lon="5.72533">
        <ele>943</ele>
        <time>2017-12-15T21:08:12Z</time>
      </trkpt>
      <trkpt lat="44.97255" lon="5.72523">
        <ele>943</ele>
        <time>2017-12-15T21:08:32Z</time>
      </trkpt>
      <trkpt lat="44.97235" lon="5.72486">
        <ele>936</ele>
        <time>2017-12-15T21:08:34Z</time>
      </trkpt>
      <trkpt lat="44.97216" lon="5.72442">
        <ele>933</ele>
        <time>2017-12-15T21:08:47Z</time>
      </trkpt>
      <trkpt lat="44.97204" lon="5.72405">
        <ele>934</ele>
        <time>2017-12-15T21:08:58Z</time>
      </trkpt>
      <trkpt lat="44.97201" lon="5.72385">
        <ele>934</ele>
        <time>2017-12-15T21:09:04Z</time>
      </trkpt>
      <trkpt lat="44.97202" lon="5.72366">
        <ele>935</ele>
        <time>2017-12-15T21:09:20Z</time>
      </trkpt>
      <trkpt lat="44.97204" lon="5.7235">
        <ele>936</ele>
        <time>2017-12-15T21:09:32Z</time>
      </trkpt>
      <trkpt lat="44.97202" lon="5.72337">
        <ele>936</ele>
        <time>2017-12-15T21:09:40Z</time>
      </trkpt>
      <trkpt lat="44.97196" lon="5.72327">
        <ele>942</ele>
        <time>2017-12-15T21:09:43Z</time>
      </trkpt>
      <trkpt lat="44.97188" lon="5.72324">
        <ele>939</ele>
        <time>2017-12-15T21:09:56Z</time>
      </trkpt>
      <trkpt lat="44.97163" lon="5.7233">
        <ele>925</ele>
        <time>2017-12-15T21:10:11Z</time>
      </trkpt>
      <trkpt lat="44.97152" lon="5.72329">
        <ele>924</ele>
        <time>2017-12-15T21:10:16Z</time>
      </trkpt>
      <trkpt lat="44.97142" lon="5.72325">
        <ele>922</ele>
        <time>2017-12-15T21:10:35Z</time>
      </trkpt>
      <trkpt lat="44.9713" lon="5.7231">
        <ele>921</ele>
        <time>2017-12-15T21:10:38Z</time>
      </trkpt>
      <trkpt lat="44.97114" lon="5.72281">
        <ele>922</ele>
        <time>2017-12-15T21:10:55Z</time>
      </trkpt>
      <trkpt lat="44.97108" lon="5.72246">
        <ele>934</ele>
        <time>2017-12-15T21:11:06Z</time>
      </trkpt>
      <trkpt lat="44.971" lon="5.72235">
        <ele>933</ele>
        <time>2017-12-15T21:11:19Z</time>
      </trkpt>
      <trkpt lat="44.97092" lon="5.72234">
        <ele>931</ele>
        <time>2017-12-15T21:11:27Z</time>
      </trkpt>
      <trkpt lat="44.97075" lon="5.72238">
        <ele>924</ele>
        <time>2017-12-15T21:11:45Z</time>
      </trkpt>
      <trkpt lat="44.97064" lon="5.72242">
        <ele>925</ele>
        <time>2017-12-15T21:12:03Z</time>
      </trkpt>
      <trkpt lat="44.97056" lon="5.72247">
        <ele>925</ele>
        <time>2017-12-15T21:12:11Z</time>
      </trkpt>
      <trkpt lat="44.97043" lon="5.72259">
        <ele>911</ele>
        <time>2017-12-15T21:12:26Z</time>
      </trkpt>
      <trkpt lat="44.9703" lon="5.72277">
        <ele>909</ele>
        <time>2017-12-15T21:12:41Z</time>
      </trkpt>
      <trkpt lat="44.97019" lon="5.72284">
        <ele>908</ele>
        <time>2017-12-15T21:12:59Z</time>
      </trkpt>
      <trkpt lat="44.97003" lon="5.72286">
        <ele>907</ele>
        <time>2017-12-15T21:13:12Z</time>
      </trkpt>
      <trkpt lat="44.96955" lon="5.72281">
        <ele>903</ele>
        <time>2017-12-15T21:13:18Z</time>
      </trkpt>
      <trkpt lat="44.9688" lon="5.72273">
        <ele>894</ele>
        <time>2017-12-15T21:13:22Z</time>
      </trkpt>
      <trkpt lat="44.96844" lon="5.72261">
        <ele>892</ele>
        <time>2017-12-15T21:13:26Z</time>
      </trkpt>
      <trkpt lat="44.96783" lon="5.72233">
        <ele>889</ele>
        <time>2017-12-15T21:13:34Z</time>
      </trkpt>
      <trkpt lat="44.96743" lon="5.7221">
        <ele>880</ele>
        <time>2017-12-15T21:13:39Z</time>
      </trkpt>
      <trkpt lat="44.96664" lon="5.72167">
        <ele>877</ele>
        <time>2017-12-15T21:13:56Z</time>
      </trkpt>
      <trkpt lat="44.96646" lon="5.72162">
        <ele>877</ele>
        <time>2017-12-15T21:13:58Z</time>
      </trkpt>
      <trkpt lat="44.96628" lon="5.72161">
        <ele>876</ele>
        <time>2017-12-15T21:14:06Z</time>
      </trkpt>
      <trkpt lat="44.96608" lon="5.72163">
        <ele>873</ele>
        <time>2017-12-15T21:14:14Z</time>
      </trkpt>
      <trkpt lat="44.96596" lon="5.7216">
        <ele>871</ele>
        <time>2017-12-15T21:14:22Z</time>
      </trkpt>
      <trkpt lat="44.9657" lon="5.72145">
        <ele>866</ele>
        <time>2017-12-15T21:14:27Z</time>
      </trkpt>
      <trkpt lat="44.96561" lon="5.72148">
        <ele>866</ele>
        <time>2017-12-15T21:14:47Z</time>
      </trkpt>
      <trkpt lat="44.96545" lon="5.7216">
        <ele>865</ele>
        <time>2017-12-15T21:15:01Z</time>
      </trkpt>
      <trkpt lat="44.96512" lon="5.72181">
        <ele>859</ele>
        <time>2017-12-15T21:15:06Z</time>
      </trkpt>
      <trkpt lat="44.96489" lon="5.72189">
        <ele>854</ele>
        <time>2017-12-15T21:15:24Z</time>
      </trkpt>
      <trkpt lat="44.96476" lon="5.7219">
        <ele>853</ele>
        <time>2017-12-15T21:15:27Z</time>
      </trkpt>
      <trkpt lat="44.96452" lon="5.72179">
        <ele>851</ele>
        <time>2017-12-15T21:15:47Z</time>
      </trkpt>
      <trkpt lat="44.96426" lon="5.72166">
        <ele>852</ele>
        <time>2017-12-15T21:15:55Z</time>
      </trkpt>
      <trkpt lat="44.96411" lon="5.72163">
        <ele>849</ele>
        <time>2017-12-15T21:16:15Z</time>
      </trkpt>
      <trkpt lat="44.96417" lon="5.72161">
        <ele>852</ele>
        <time>2017-12-15T21:16:24Z</time>
      </trkpt>
      <trkpt lat="44.96435" lon="5.72156">
        <ele>853</ele>
        <time>2017-12-15T21:16:43Z</time>
      </trkpt>
      <trkpt lat="44.96453" lon="5.72156">
        <ele>855</ele>
        <time>2017-12-15T21:16:58Z</time>
      </trkpt>
      <trkpt lat="44.9645" lon="5.72146">
        <ele>855</ele>
        <time>2017-12-15T21:17:07Z</time>
      </trkpt>
      <trkpt lat="44.96445" lon="5.7214">
        <ele>854</ele>
        <time>2017-12-15T21:17:26Z</time>
      </trkpt>
      <trkpt lat="44.96431" lon="5.72128">
        <ele>853</ele>
        <time>2017-12-15T21:17:37Z</time>
      </trkpt>
      <trkpt lat="44.9642" lon="5.72119">
        <ele>853</ele>
        <time>2017-12-15T21:17:50Z</time>
      </trkpt>
      <trkpt lat="44.9641" lon="5.72102">
        <ele>845</ele>
        <time>2017-12-15T21:18:08Z</time>
      </trkpt>
      <trkpt lat="44.964" lon="5.72109">
        <ele>844</ele>
        <time>2017-12-15T21:18:14Z</time>
      </trkpt>
      <trkpt lat="44.96391" lon="5.72115">
        <ele>844</ele>
        <time>2017-12-15T21:18:32Z</time>
      </trkpt>
      <trkpt lat="44.96385" lon="5.72123">
        <ele>843</ele>
        <time>2017-12-15T21:18:40Z</time>
      </trkpt>
      <trkpt lat="44.96381" lon="5.72132">
        <ele>843</ele>
        <time>2017-12-15T21:19:00Z</time>
      </trkpt>
      <trkpt lat="44.96368" lon="5.72126">
        <ele>842</ele>
        <time>2017-12-15T21:19:08Z</time>
      </trkpt>
      <trkpt lat="44.96361" lon="5.72132">
        <ele>841</ele>
        <time>2017-12-15T21:19:19Z</time>
      </trkpt>
      <trkpt lat="44.9636" lon="5.72144">
        <ele>841</ele>
        <time>2017-12-15T21:19:37Z</time>
      </trkpt>
      <trkpt lat="44.96362" lon="5.72156">
        <ele>841</ele>
        <time>2017-12-15T21:19:41Z</time>
      </trkpt>
      <trkpt lat="44.96358" lon="5.72163">
        <ele>840</ele>
        <time>2017-12-15T21:19:52Z</time>
      </trkpt>
      <trkpt lat="44.96346" lon="5.72161">
        <ele>838</ele>
        <time>2017-12-15T21:20:01Z</time>
      </trkpt>
      <trkpt lat="44.96332" lon="5.72152">
        <ele>829</ele>
        <time>2017-12-15T21:20:11Z</time>
      </trkpt>
      <trkpt lat="44.96321" lon="5.72136">
        <ele>825</ele>
        <time>2017-12-15T21:20:14Z</time>
      </trkpt>
      <trkpt lat="44.96318" lon="5.72116">
        <ele>824</ele>
        <time>2017-12-15T21:20:26Z</time>
      </trkpt>
      <trkpt lat="44.96328" lon="5.72091">
        <ele>830</ele>
        <time>2017-12-15T21:20:28Z</time>
      </trkpt>
      <trkpt lat="44.96341" lon="5.72061">
        <ele>837</ele>
        <time>2017-12-15T21:20:40Z</time>
      </trkpt>
      <trkpt lat="44.96345" lon="5.72031">
        <ele>837</ele>
        <time>2017-12-15T21:20:47Z</time>
      </trkpt>
      <trkpt lat="44.96345" lon="5.71996">
        <ele>833</ele>
        <time>2017-12-15T21:20:49Z</time>
      </trkpt>
      <trkpt lat="44.96345" lon="5.71934">
        <ele>831</ele>
        <time>2017-12-15T21:20:55Z</time>
      </trkpt>
      <trkpt lat="44.96342" lon="5.71913">
        <ele>829</ele>
        <time>2017-12-15T21:21:07Z</time>
      </trkpt>
      <trkpt lat="44.96334" lon="5.71892">
        <ele>831</ele>
        <time>2017-12-15T21:21:19Z</time>
      </trkpt>
      <trkpt lat="44.96298" lon="5.71823">
        <ele>822</ele>
        <time>2017-12-15T21:21:30Z</time>
      </trkpt>
      <trkpt lat="44.96278" lon="5.71793">
        <ele>822</ele>
        <time>2017-12-15T21:21:43Z</time>
      </trkpt>
      <trkpt lat="44.96251" lon="5.7176">
        <ele>820</ele>
        <time>2017-12-15T21:22:02Z</time>
      </trkpt>
      <trkpt lat="44.96206" lon="5.7171">
        <ele>817</ele>
        <time>2017-12-15T21:22:06Z</time>
      </trkpt>
      <trkpt lat="44.96201" lon="5.71708">
        <ele>816</ele>
        <time>2017-12-15T21:22:24Z</time>
      </trkpt>
      <trkpt lat="44.96197" lon="5.71715">
        <ele>815</ele>
        <time>2017-12-15T21:22:36Z</time>
      </trkpt>
      <trkpt lat="44.96199" lon="5.71727">
        <ele>814</ele>
        <time>2017-12-15T21:22:38Z</time>
      </trkpt>
      <trkpt lat="44.96211" lon="5.71764">
        <ele>806</ele>
        <time>2017-12-15T21:22:41Z</time>
      </trkpt>
      <trkpt lat="44.96231" lon="5.71833">
        <ele>806</ele>
        <time>2017-12-15T21:22:52Z</time>
      </trkpt>
      <trkpt lat="44.96232" lon="5.71849">
        <ele>804</ele>
        <time>2017-12-15T21:23:03Z</time>
      </trkpt>
      <trkpt lat="44.96229" lon="5.71861">
        <ele>803</ele>
        <time>2017-12-15T21:23:21Z</time>
      </trkpt>
      <trkpt lat="44.96214" lon="5.7189">
        <ele>801</ele>
        <time>2017-12-15T21:23:36Z</time>
      </trkpt>
      <trkpt lat="44.96205" lon="5.71905">
        <ele>800</ele>
        <time>2017-12-15T21:23:43Z</time>
      </trkpt>
      <trkpt lat="44.96203" lon="5.71915">
        <ele>799</ele>
        <time>2017-12-15T21:23:45Z</time>
      </trkpt>
      <trkpt lat="44.96203" lon="5.71922">
        <ele>796</ele>
        <time>2017-12-15T21:24:01Z</time>
      </trkpt>
      <trkpt lat="44.96215" lon="5.71949">
        <ele>797</ele>
        <time>2017-12-15T21:24:07Z</time>
      </trkpt>
      <trkpt lat="44.96225" lon="5.71979">
        <ele>798</ele>
        <time>2017-12-15T21:24:09Z</time>
      </trkpt>
      <trkpt lat="44.96228" lon="5.7199">
        <ele>799</ele>
        <time>2017-12-15T21:24:14Z</time>
      </trkpt>
      <trkpt lat="44.96226" lon="5.71995">
        <ele>799</ele>
        <time>2017-12-15T21:24:26Z</time>
      </trkpt>
      <trkpt lat="44.96222" lon="5.71996">
        <ele>798</ele>
        <time>2017-12-15T21:24:37Z</time>
      </trkpt>
      <trkpt lat="44.96219" lon="5.71991">
        <ele>797</ele>
        <time>2017-12-15T21:24:56Z</time>
      </trkpt>
      <trkpt lat="44.96214" lon="5.71971">
        <ele>796</ele>
        <time>2017-12-15T21:25:04Z</time>
      </trkpt>
      <trkpt lat="44.96209" lon="5.71957">
        <ele>796</ele>
        <time>2017-12-15T21:25:16Z</time>
      </trkpt>
      <trkpt lat="44.962" lon="5.71944">
        <ele>795</ele>
        <time>2017-12-15T21:25:18Z</time>
      </trkpt>
      <trkpt lat="44.96185" lon="5.71927">
        <ele>793</ele>
        <time>2017-12-15T21:25:29Z</time>
      </trkpt>
      <trkpt lat="44.96166" lon="5.71905">
        <ele>787</ele>
        <time>2017-12-15T21:25:36Z</time>
      </trkpt>
      <trkpt lat="44.96151" lon="5.71884">
        <ele>786</ele>
        <time>2017-12-15T21:25:39Z</time>
      </trkpt>
      <trkpt lat="44.96133" lon="5.71832">
        <ele>790</ele>
        <time>2017-12-15T21:25:42Z</time>
      </trkpt>
      <trkpt lat="44.96125" lon="5.71813">
        <ele>789</ele>
        <time>2017-12-15T21:25:57Z</time>
      </trkpt>
      <trkpt lat="44.96112" lon="5.71805">
        <ele>788</ele>
        <time>2017-12-15T21:26:00Z</time>
      </trkpt>
      <trkpt lat="44.96098" lon="5.71795">
        <ele>787</ele>
        <time>2017-12-15T21:26:17Z</time>
      </trkpt>
      <trkpt lat="44.96072" lon="5.71772">
        <ele>779</ele>
        <time>2017-12-15T21:26:33Z</time>
      </trkpt>
      <trkpt lat="44.96058" lon="5.71764">
        <ele>778</ele>
        <time>2017-12-15T21:26:46Z</time>
      </trkpt>
      <trkpt lat="44.96039" lon="5.71752">
        <ele>776</ele>
        <time>2017-12-15T21:26:58Z</time>
      </trkpt>
      <trkpt lat="44.96022" lon="5.71735">
        <ele>778</ele>
        <time>2017-12-15T21:27:16Z</time>
      </trkpt>
      <trkpt lat="44.96016" lon="5.71726">
        <ele>778</ele>
        <time>2017-12-15T21:27:19Z</time>
      </trkpt>
      <trkpt lat="44.96013" lon="5.71722">
        <ele>778</ele>
        <time>2017-12-15T21:27:26Z</time>
      </trkpt>
      <trkpt lat="44.95983" lon="5.71651">
        <ele>768</ele>
        <time>2017-12-15T21:27:40Z</time>
      </trkpt>
      <trkpt lat="44.95973" lon="5.71633">
        <ele>765</ele>
        <time>2017-12-15T21:27:43Z</time>
      </trkpt>
      <trkpt lat="44.95965" lon="5.71627">
        <ele>764</ele>
        <time>2017-12-15T21:27:53Z</time>
      </trkpt>
      <trkpt lat="44.95952" lon="5.71621">
        <ele>762</ele>
        <time>2017-12-15T21:27:55Z</time>
      </trkpt>
      <trkpt lat="44.9594" lon="5.71612">
        <ele>760</ele>
        <time>2017-12-15T21:28:12Z</time>
      </trkpt>
      <trkpt lat="44.95933" lon="5.71601">
        <ele>758</ele>
        <time>2017-12-15T21:28:19Z</time>
      </trkpt>
      <trkpt lat="44.95931" lon="5.71588">
        <ele>756</ele>
        <time>2017-12-15T21:28:21Z</time>
      </trkpt>
      <trkpt lat="44.95932" lon="5.71578">
        <ele>757</ele>
        <time>2017-12-15T21:28:29Z</time>
      </trkpt>
      <trkpt lat="44.95943" lon="5.71547">
        <ele>762</ele>
        <time>2017-12-15T21:28:39Z</time>
      </trkpt>
      <trkpt lat="44.95942" lon="5.7152">
        <ele>761</ele>
        <time>2017-12-15T21:28:54Z</time>
      </trkpt>
      <trkpt lat="44.95936" lon="5.71494">
        <ele>757</ele>
        <time>2017-12-15T21:29:06Z</time>
      </trkpt>
      <trkpt lat="44.95921" lon="5.71447">
        <ele>758</ele>
        <time>2017-12-15T21:29:18Z</time>
      </trkpt>
      <trkpt lat="44.95902" lon="5.71405">
        <ele>747</ele>
        <time>2017-12-15T21:29:36Z</time>
      </trkpt>
      <trkpt lat="44.95881" lon="5.71371">
        <ele>744</ele>
        <time>2017-12-15T21:29:52Z</time>
      </trkpt>
      <trkpt lat="44.95856" lon="5.71341">
        <ele>740</ele>
        <time>2017-12-15T21:30:04Z</time>
      </trkpt>
      <trkpt lat="44.95831" lon="5.71316">
        <ele>731</ele>
        <time>2017-12-15T21:30:23Z</time>
      </trkpt>
      <trkpt lat="44.95817" lon="5.71294">
        <ele>729</ele>
        <time>2017-12-15T21:30:43Z</time>
      </trkpt>
      <trkpt lat="44.95809" lon="5.71268">
        <ele>730</ele>
        <time>2017-12-15T21:30:57Z</time>
      </trkpt>
      <trkpt lat="44.95806" lon="5.71245">
        <ele>731</ele>
        <time>2017-12-15T21:31:08Z</time>
      </trkpt>
      <trkpt lat="44.95804" lon="5.71204">
        <ele>729</ele>
        <time>2017-12-15T21:31:25Z</time>
      </trkpt>
      <trkpt lat="44.95804" lon="5.7117">
        <ele>730</ele>
        <time>2017-12-15T21:31:42Z</time>
      </trkpt>
      <trkpt lat="44.95803" lon="5.71143">
        <ele>729</ele>
        <time>2017-12-15T21:31:51Z</time>
      </trkpt>
      <trkpt lat="44.95801" lon="5.71128">
        <ele>728</ele>
        <time>2017-12-15T21:32:08Z</time>
      </trkpt>
      <trkpt lat="44.9579" lon="5.71092">
        <ele>727</ele>
        <time>2017-12-15T21:32:12Z</time>
      </trkpt>
      <trkpt lat="44.95774" lon="5.71062">
        <ele>728</ele>
        <time>2017-12-15T21:32:16Z</time>
      </trkpt>
      <trkpt lat="44.95765" lon="5.71051">
        <ele>728</ele>
        <time>2017-12-15T21:32:30Z</time>
      </trkpt>
      <trkpt lat="44.95746" lon="5.71037">
        <ele>713</ele>
        <time>2017-12-15T21:32:41Z</time>
      </trkpt>
      <trkpt lat="44.95731" lon="5.71019">
        <ele>714</ele>
        <time>2017-12-15T21:33:01Z</time>
      </trkpt>
      <trkpt lat="44.95719" lon="5.70993">
        <ele>714</ele>
        <time>2017-12-15T21:33:03Z</time>
      </trkpt>
      <trkpt lat="44.9571" lon="5.70973">
        <ele>712</ele>
        <time>2017-12-15T21:33:18Z</time>
      </trkpt>
      <trkpt lat="44.95704" lon="5.70946">
        <ele>712</ele>
        <time>2017-12-15T21:33:27Z</time>
      </trkpt>
      <trkpt lat="44.95698" lon="5.70932">
        <ele>711</ele>
        <time>2017-12-15T21:33:46Z</time>
      </trkpt>
      <trkpt lat="44.95694" lon="5.7093">
        <ele>710</ele>
        <time>2017-12-15T21:33:58Z</time>
      </trkpt>
      <trkpt lat="44.95691" lon="5.70933">
        <ele>709</ele>
        <time>2017-12-15T21:34:04Z</time>
      </trkpt>
      <trkpt lat="44.95689" lon="5.70944">
        <ele>709</ele>
        <time>2017-12-15T21:34:11Z</time>
      </trkpt>
      <trkpt lat="44.9569" lon="5.70992">
        <ele>707</ele>
        <time>2017-12-15T21:34:27Z</time>
      </trkpt>
      <trkpt lat="44.95692" lon="5.71022">
        <ele>706</ele>
        <time>2017-12-15T21:34:33Z</time>
      </trkpt>
      <trkpt lat="44.957" lon="5.71051">
        <ele>707</ele>
        <time>2017-12-15T21:34:36Z</time>
      </trkpt>
      <trkpt lat="44.95705" lon="5.71064">
        <ele>707</ele>
        <time>2017-12-15T21:34:47Z</time>
      </trkpt>
      <trkpt lat="44.95707" lon="5.71082">
        <ele>707</ele>
        <time>2017-12-15T21:34:50Z</time>
      </trkpt>
      <trkpt lat="44.95706" lon="5.71098">
        <ele>704</ele>
        <time>2017-12-15T21:34:59Z</time>
      </trkpt>
      <trkpt lat="44.95711" lon="5.71127">
        <ele>704</ele>
        <time>2017-12-15T21:35:17Z</time>
      </trkpt>
      <trkpt lat="44.95711" lon="5.71162">
        <ele>703</ele>
        <time>2017-12-15T21:35:32Z</time>
      </trkpt>
      <trkpt lat="44.95703" lon="5.71198">
        <ele>699</ele>
        <time>2017-12-15T21:35:46Z</time>
      </trkpt>
      <trkpt lat="44.95694" lon="5.7123">
        <ele>697</ele>
        <time>2017-12-15T21:36:03Z</time>
      </trkpt>
      <trkpt lat="44.9569" lon="5.71271">
        <ele>693</ele>
        <time>2017-12-15T21:36:10Z</time>
      </trkpt>
      <trkpt lat="44.95693" lon="5.71355">
        <ele>686</ele>
        <time>2017-12-15T21:36:27Z</time>
      </trkpt>
      <trkpt lat="44.95699" lon="5.71376">
        <ele>687</ele>
        <time>2017-12-15T21:36:31Z</time>
      </trkpt>
      <trkpt lat="44.95708" lon="5.71398">
        <ele>688</ele>
        <time>2017-12-15T21:36:50Z</time>
      </trkpt>
      <trkpt lat="44.9571" lon="5.7141">
        <ele>688</ele>
        <time>2017-12-15T21:36:57Z</time>
      </trkpt>
      <trkpt lat="44.95706" lon="5.71416">
        <ele>687</ele>
        <time>2017-12-15T21:37:00Z</time>
      </trkpt>
      <trkpt lat="44.95701" lon="5.71415">
        <ele>685</ele>
        <time>2017-12-15T21:37:19Z</time>
      </trkpt>
      <trkpt lat="44.957" lon="5.71413">
        <ele>685</ele>
        <time>2017-12-15T21:37:28Z</time>
      </trkpt>
      <trkpt lat="44.95689" lon="5.71379">
        <ele>685</ele>
        <time>2017-12-15T21:37:35Z</time>
      </trkpt>
      <trkpt lat="44.95678" lon="5.71341">
        <ele>682</ele>
        <time>2017-12-15T21:37:43Z</time>
      </trkpt>
      <trkpt lat="44.9567" lon="5.71305">
        <ele>689</ele>
        <time>2017-12-15T21:37:58Z</time>
      </trkpt>
      <trkpt lat="44.95649" lon="5.71257">
        <ele>674</ele>
        <time>2017-12-15T21:38:06Z</time>
      </trkpt>
      <trkpt lat="44.95636" lon="5.71226">
        <ele>675</ele>
        <time>2017-12-15T21:38:21Z</time>
      </trkpt>
      <trkpt lat="44.95625" lon="5.7121">
        <ele>673</ele>
        <time>2017-12-15T21:38:25Z</time>
      </trkpt>
      <trkpt lat="44.956" lon="5.71183">
        <ele>668</ele>
        <time>2017-12-15T21:38:28Z</time>
      </trkpt>
      <trkpt lat="44.95593" lon="5.71173">
        <ele>666</ele>
        <time>2017-12-15T21:38:34Z</time>
      </trkpt>
      <trkpt lat="44.95586" lon="5.71171">
        <ele>663</ele>
        <time>2017-12-15T21:38:53Z</time>
      </trkpt>
      <trkpt lat="44.95584" lon="5.71177">
        <ele>665</ele>
        <time>2017-12-15T21:39:05Z</time>
      </trkpt>
      <trkpt lat="44.95584" lon="5.71182">
        <ele>666</ele>
        <time>2017-12-15T21:39:16Z</time>
      </trkpt>
      <trkpt lat="44.95588" lon="5.71193">
        <ele>668</ele>
        <time>2017-12-15T21:39:20Z</time>
      </trkpt>
      <trkpt lat="44.956" lon="5.7122">
        <ele>669</ele>
        <time>2017-12-15T21:39:39Z</time>
      </trkpt>
      <trkpt lat="44.95609" lon="5.71256">
        <ele>664</ele>
        <time>2017-12-15T21:39:50Z</time>
      </trkpt>
      <trkpt lat="44.95617" lon="5.71273">
        <ele>665</ele>
        <time>2017-12-15T21:40:08Z</time>
      </trkpt>
      <trkpt lat="44.95628" lon="5.7129">
        <ele>666</ele>
        <time>2017-12-15T21:40:21Z</time>
      </trkpt>
      <trkpt lat="44.95638" lon="5.71318">
        <ele>667</ele>
        <time>2017-12-15T21:40:38Z</time>
      </trkpt>
      <trkpt lat="44.95645" lon="5.71355">
        <ele>661</ele>
        <time>2017-12-15T21:40:52Z</time>
      </trkpt>
      <trkpt lat="44.95647" lon="5.71382">
        <ele>659</ele>
        <time>2017-12-15T21:40:57Z</time>
      </trkpt>
      <trkpt lat="44.95643" lon="5.71403">
        <ele>658</ele>
        <time>2017-12-15T21:41:05Z</time>
      </trkpt>
      <trkpt lat="44.95636" lon="5.7142">
        <ele>653</ele>
        <time>2017-12-15T21:41:24Z</time>
      </trkpt>
      <trkpt lat="44.95633" lon="5.7144">
        <ele>652</ele>
        <time>2017-12-15T21:41:30Z</time>
      </trkpt>
      <trkpt lat="44.95637" lon="5.71491">
        <ele>652</ele>
        <time>2017-12-15T21:41:33Z</time>
      </trkpt>
      <trkpt lat="44.95637" lon="5.71513">
        <ele>651</ele>
        <time>2017-12-15T21:41:51Z</time>
      </trkpt>
      <trkpt lat="44.95633" lon="5.71543">
        <ele>649</ele>
        <time>2017-12-15T21:42:09Z</time>
      </trkpt>
      <trkpt lat="44.95635" lon="5.71569">
        <ele>650</ele>
        <time>2017-12-15T21:42:12Z</time>
      </trkpt>
      <trkpt lat="44.95633" lon="5.71595">
        <ele>647</ele>
        <time>2017-12-15T21:42:32Z</time>
      </trkpt>
      <trkpt lat="44.95618" lon="5.71649">
        <ele>644</ele>
        <time>2017-12-15T21:42:51Z</time>
      </trkpt>
      <trkpt lat="44.95609" lon="5.71665">
        <ele>642</ele>
        <time>2017-12-15T21:43:05Z</time>
      </trkpt>
      <trkpt lat="44.95596" lon="5.71683">
        <ele>640</ele>
        <time>2017-12-15T21:43:10Z</time>
      </trkpt>
      <trkpt lat="44.9558" lon="5.7172">
        <ele>643</ele>
        <time>2017-12-15T21:43:14Z</time>
      </trkpt>
      <trkpt lat="44.95575" lon="5.71734">
        <ele>643</ele>
        <time>2017-12-15T21:43:27Z</time>
      </trkpt>
      <trkpt lat="44.95571" lon="5.71739">
        <ele>643</ele>
        <time>2017-12-15T21:43:30Z</time>
      </trkpt>
      <trkpt lat="44.95566" lon="5.71742">
        <ele>644</ele>
        <time>2017-12-15T21:43:39Z</time>
      </trkpt>
      <trkpt lat="44.95549" lon="5.71742">
        <ele>647</ele>
        <time>2017-12-15T21:43:42Z</time>
      </trkpt>
      <trkpt lat="44.95542" lon="5.71738">
        <ele>649</ele>
        <time>2017-12-15T21:43:48Z</time>
      </trkpt>
      <trkpt lat="44.95533" lon="5.71722">
        <ele>650</ele>
        <time>2017-12-15T21:43:55Z</time>
      </trkpt>
      <trkpt lat="44.95516" lon="5.71675">
        <ele>648</ele>
        <time>2017-12-15T21:44:05Z</time>
      </trkpt>
      <trkpt lat="44.95495" lon="5.71585">
        <ele>643</ele>
        <time>2017-12-15T21:44:22Z</time>
      </trkpt>
      <trkpt lat="44.95483" lon="5.71537">
        <ele>646</ele>
        <time>2017-12-15T21:44:31Z</time>
      </trkpt>
      <trkpt lat="44.95474" lon="5.71512">
        <ele>646</ele>
        <time>2017-12-15T21:44:34Z</time>
      </trkpt>
      <trkpt lat="44.95458" lon="5.71492">
        <ele>642</ele>
        <time>2017-12-15T21:44:49Z</time>
      </trkpt>
      <trkpt lat="44.95433" lon="5.71481">
        <ele>645</ele>
        <time>2017-12-15T21:44:54Z</time>
      </trkpt>
      <trkpt lat="44.95409" lon="5.71477">
        <ele>655</ele>
        <time>2017-12-15T21:45:08Z</time>
      </trkpt>
      <trkpt lat="44.95384" lon="5.71482">
        <ele>657</ele>
        <time>2017-12-15T21:45:14Z</time>
      </trkpt>
      <trkpt lat="44.95362" lon="5.71484">
        <ele>660</ele>
        <time>2017-12-15T21:45:24Z</time>
      </trkpt>
      <trkpt lat="44.95349" lon="5.71481">
        <ele>661</ele>
        <time>2017-12-15T21:45:38Z</time>
      </trkpt>
      <trkpt lat="44.95342" lon="5.71479">
        <ele>662</ele>
        <time>2017-12-15T21:45:50Z</time>
      </trkpt>
      <trkpt lat="44.95325" lon="5.7147">
        <ele>667</ele>
        <time>2017-12-15T21:46:09Z</time>
      </trkpt>
      <trkpt lat="44.95303" lon="5.71458">
        <ele>666</ele>
        <time>2017-12-15T21:46:14Z</time>
      </trkpt>
      <trkpt lat="44.95291" lon="5.71454">
        <ele>666</ele>
        <time>2017-12-15T21:46:18Z</time>
      </trkpt>
      <trkpt lat="44.95279" lon="5.71455">
        <ele>666</ele>
        <time>2017-12-15T21:46:20Z</time>
      </trkpt>
      <trkpt lat="44.95262" lon="5.71466">
        <ele>668</ele>
        <time>2017-12-15T21:46:39Z</time>
      </trkpt>
      <trkpt lat="44.95238" lon="5.71488">
        <ele>670</ele>
        <time>2017-12-15T21:46:44Z</time>
      </trkpt>
      <trkpt lat="44.95207" lon="5.71503">
        <ele>680</ele>
        <time>2017-12-15T21:47:03Z</time>
      </trkpt>
      <trkpt lat="44.95187" lon="5.7152">
        <ele>678</ele>
        <time>2017-12-15T21:47:09Z</time>
      </trkpt>
      <trkpt lat="44.95163" lon="5.7155">
        <ele>674</ele>
        <time>2017-12-15T21:47:13Z</time>
      </trkpt>
      <trkpt lat="44.95152" lon="5.7157">
        <ele>678</ele>
        <time>2017-12-15T21:47:30Z</time>
      </trkpt>
      <trkpt lat="44.95142" lon="5.71607">
        <ele>689</ele>
        <time>2017-12-15T21:47:46Z</time>
      </trkpt>
      <trkpt lat="44.95132" lon="5.71653">
        <ele>693</ele>
        <time>2017-12-15T21:47:55Z</time>
      </trkpt>
      <trkpt lat="44.95115" lon="5.717">
        <ele>703</ele>
        <time>2017-12-15T21:48:01Z</time>
      </trkpt>
      <trkpt lat="44.95102" lon="5.71734">
        <ele>703</ele>
        <time>2017-12-15T21:48:17Z</time>
      </trkpt>
      <trkpt lat="44.95093" lon="5.71744">
        <ele>701</ele>
        <time>2017-12-15T21:48:37Z</time>
      </trkpt>
      <trkpt lat="44.95085" lon="5.71747">
        <ele>700</ele>
        <time>2017-12-15T21:48:46Z</time>
      </trkpt>
      <trkpt lat="44.95068" lon="5.71744">
        <ele>697</ele>
        <time>2017-12-15T21:49:03Z</time>
      </trkpt>
      <trkpt lat="44.9502" lon="5.71726">
        <ele>697</ele>
        <time>2017-12-15T21:49:19Z</time>
      </trkpt>
      <trkpt lat="44.95009" lon="5.71725">
        <ele>697</ele>
        <time>2017-12-15T21:49:35Z</time>
      </trkpt>
      <trkpt lat="44.94999" lon="5.7173">
        <ele>697</ele>
        <time>2017-12-15T21:49:49Z</time>
      </trkpt>
      <trkpt lat="44.94981" lon="5.71747">
        <ele>697</ele>
        <time>2017-12-15T21:49:54Z</time>
      </trkpt>
      <trkpt lat="44.94942" lon="5.71783">
        <ele>700</ele>
        <time>2017-12-15T21:49:56Z</time>
      </trkpt>
      <trkpt lat="44.94917" lon="5.71811">
        <ele>701</ele>
        <time>2017-12-15T21:50:00Z</time>
      </trkpt>
      <trkpt lat="44.94908" lon="5.71819">
        <ele>699</ele>
        <time>2017-12-15T21:50:16Z</time>
      </trkpt>
      <trkpt lat="44.94902" lon="5.71822">
        <ele>699</ele>
        <time>2017-12-15T21:50:30Z</time>
      </trkpt>
      <trkpt lat="44.94889" lon="5.71824">
        <ele>698</ele>
        <time>2017-12-15T21:50:45Z</time>
      </trkpt>
      <trkpt lat="44.94859" lon="5.71829">
        <ele>697</ele>
        <time>2017-12-15T21:50:50Z</time>
      </trkpt>
      <trkpt lat="44.9483" lon="5.71839">
        <ele>700</ele>
        <time>2017-12-15T21:51:06Z</time>
      </trkpt>
      <trkpt lat="44.94807" lon="5.71851">
        <ele>703</ele>
        <time>2017-12-15T21:51:08Z</time>
      </trkpt>
      <trkpt lat="44.94787" lon="5.71885">
        <ele>707</ele>
        <time>2017-12-15T21:51:11Z</time>
      </trkpt>
      <trkpt lat="44.94779" lon="5.71891">
        <ele>709</ele>
        <time>2017-12-15T21:51:21Z</time>
      </trkpt>
      <trkpt lat="44.94764" lon="5.71895">
        <ele>710</ele>
        <time>2017-12-15T21:51:41Z</time>
      </trkpt>
      <trkpt lat="44.94734" lon="5.71893">
        <ele>717</ele>
        <time>2017-12-15T21:51:52Z</time>
      </trkpt>
      <trkpt lat="44.94707" lon="5.71888">
        <ele>719</ele>
        <time>2017-12-15T21:52:01Z</time>
      </trkpt>
      <trkpt lat="44.94692" lon="5.71881">
        <ele>719</ele>
        <time>2017-12-15T21:52:11Z</time>
      </trkpt>
      <trkpt lat="44.94675" lon="5.71867">
        <ele>718</ele>
        <time>2017-12-15T21:52:30Z</time>
      </trkpt>
      <trkpt lat="44.94643" lon="5.71826">
        <ele>711</ele>
        <time>2017-12-15T21:52:42Z</time>
      </trkpt>
      <trkpt lat="44.94639" lon="5.71819">
        <ele>711</ele>
        <time>2017-12-15T21:52:52Z</time>
      </trkpt>
      <trkpt lat="44.94634" lon="5.71803">
        <ele>711</ele>
        <time>2017-12-15T21:53:11Z</time>
      </trkpt>
      <trkpt lat="44.94628" lon="5.71792">
        <ele>711</ele>
        <time>2017-12-15T21:53:19Z</time>
      </trkpt>
      <trkpt lat="44.94621" lon="5.71786">
        <ele>711</ele>
        <time>2017-12-15T21:53:33Z</time>
      </trkpt>
      <trkpt lat="44.94611" lon="5.71785">
        <ele>711</ele>
        <time>2017-12-15T21:53:43Z</time>
      </trkpt>
      <trkpt lat="44.94601" lon="5.71789">
        <ele>712</ele>
        <time>2017-12-15T21:54:01Z</time>
      </trkpt>
      <trkpt lat="44.94563" lon="5.71824">
        <ele>726</ele>
        <time>2017-12-15T21:54:12Z</time>
      </trkpt>
      <trkpt lat="44.94554" lon="5.71829">
        <ele>726</ele>
        <time>2017-12-15T21:54:28Z</time>
      </trkpt>
      <trkpt lat="44.94545" lon="5.71827">
        <ele>727</ele>
        <time>2017-12-15T21:54:36Z</time>
      </trkpt>
      <trkpt lat="44.94535" lon="5.71816">
        <ele>728</ele>
        <time>2017-12-15T21:54:40Z</time>
      </trkpt>
      <trkpt lat="44.94531" lon="5.71804">
        <ele>728</ele>
        <time>2017-12-15T21:54:52Z</time>
      </trkpt>
      <trkpt lat="44.94527" lon="5.71796">
        <ele>728</ele>
        <time>2017-12-15T21:55:01Z</time>
      </trkpt>
      <trkpt lat="44.94526" lon="5.71787">
        <ele>729</ele>
        <time>2017-12-15T21:55:10Z</time>
      </trkpt>
      <trkpt lat="44.94529" lon="5.71769">
        <ele>729</ele>
        <time>2017-12-15T21:55:28Z</time>
      </trkpt>
      <trkpt lat="44.94538" lon="5.71751">
        <ele>728</ele>
        <time>2017-12-15T21:55:38Z</time>
      </trkpt>
      <trkpt lat="44.94586" lon="5.71669">
        <ele>720</ele>
        <time>2017-12-15T21:55:57Z</time>
      </trkpt>
      <trkpt lat="44.94596" lon="5.71651">
        <ele>717</ele>
        <time>2017-12-15T21:56:13Z</time>
      </trkpt>
      <trkpt lat="44.94601" lon="5.71632">
        <ele>716</ele>
        <time>2017-12-15T21:56:18Z</time>
      </trkpt>
      <trkpt lat="44.94604" lon="5.71606">
        <ele>718</ele>
        <time>2017-12-15T21:56:23Z</time>
      </trkpt>
      <trkpt lat="44.94603" lon="5.71588">
        <ele>720</ele>
        <time>2017-12-15T21:56:29Z</time>
      </trkpt>
      <trkpt lat="44.94598" lon="5.71569">
        <ele>722</ele>
        <time>2017-12-15T21:56:34Z</time>
      </trkpt>
      <trkpt lat="44.94588" lon="5.71542">
        <ele>722</ele>
        <time>2017-12-15T21:56:53Z</time>
      </trkpt>
      <trkpt lat="44.9458" lon="5.7151">
        <ele>736</ele>
        <time>2017-12-15T21:57:00Z</time>
      </trkpt>
      <trkpt lat="44.94576" lon="5.71479">
        <ele>744</ele>
        <time>2017-12-15T21:57:17Z</time>
      </trkpt>
      <trkpt lat="44.94568" lon="5.71437">
        <ele>749</ele>
        <time>2017-12-15T21:57:28Z</time>
      </trkpt>
      <trkpt lat="44.94569" lon="5.71427">
        <ele>748</ele>
        <time>2017-12-15T21:57:38Z</time>
      </trkpt>
      <trkpt lat="44.94572" lon="5.71413">
        <ele>750</ele>
        <time>2017-12-15T21:57:44Z</time>
      </trkpt>
      <trkpt lat="44.94578" lon="5.71396">
        <ele>754</ele>
        <time>2017-12-15T21:57:53Z</time>
      </trkpt>
      <trkpt lat="44.94581" lon="5.71382">
        <ele>757</ele>
        <time>2017-12-15T21:57:56Z</time>
      </trkpt>
      <trkpt lat="44.94583" lon="5.71366">
        <ele>758</ele>
        <time>2017-12-15T21:58:13Z</time>
      </trkpt>
      <trkpt lat="44.94587" lon="5.71353">
        <ele>739</ele>
        <time>2017-12-15T21:58:31Z</time>
      </trkpt>
      <trkpt lat="44.9461" lon="5.71322">
        <ele>741</ele>
        <time>2017-12-15T21:58:46Z</time>
      </trkpt>
      <trkpt lat="44.94627" lon="5.71295">
        <ele>738</ele>
        <time>2017-12-15T21:59:03Z</time>
      </trkpt>
      <trkpt lat="44.94636" lon="5.71279">
        <ele>738</ele>
        <time>2017-12-15T21:59:19Z</time>
      </trkpt>
      <trkpt lat="44.94663" lon="5.71212">
        <ele>746</ele>
        <time>2017-12-15T21:59:37Z</time>
      </trkpt>
      <trkpt lat="44.9468" lon="5.71164">
        <ele>741</ele>
        <time>2017-12-15T21:59:45Z</time>
      </trkpt>
      <trkpt lat="44.94687" lon="5.71135">
        <ele>739</ele>
        <time>2017-12-15T21:59:59Z</time>
      </trkpt>
      <trkpt lat="44.94687" lon="5.71091">
        <ele>743</ele>
        <time>2017-12-15T22:00:10Z</time>
      </trkpt>
      <trkpt lat="44.9472" lon="5.71006">
        <ele>741</ele>
        <time>2017-12-15T22:00:14Z</time>
      </trkpt>
      <trkpt lat="44.94762" lon="5.70908">
        <ele>754</ele>
        <time>2017-12-15T22:00:28Z</time>
      </trkpt>
      <trkpt lat="44.94777" lon="5.70882">
        <ele>756</ele>
        <time>2017-12-15T22:00:33Z</time>
      </trkpt>
      <trkpt lat="44.94789" lon="5.7087">
        <ele>757</ele>
        <time>2017-12-15T22:00:52Z</time>
      </trkpt>
      <trkpt lat="44.94815" lon="5.70857">
        <ele>754</ele>
        <time>2017-12-15T22:00:58Z</time>
      </trkpt>
      <trkpt lat="44.94855" lon="5.70826">
        <ele>752</ele>
        <time>2017-12-15T22:01:05Z</time>
      </trkpt>
      <trkpt lat="44.94884" lon="5.70799">
        <ele>750</ele>
        <time>2017-12-15T22:01:23Z</time>
      </trkpt>
      <trkpt lat="44.94916" lon="5.70763">
        <ele>749</ele>
        <time>2017-12-15T22:01:30Z</time>
      </trkpt>
      <trkpt lat="44.94936" lon="5.70735">
        <ele>746</ele>
        <time>2017-12-15T22:01:46Z</time>
      </trkpt>
      <trkpt lat="44.94951" lon="5.70709">
        <ele>746</ele>
        <time>2017-12-15T22:02:05Z</time>
      </trkpt>
      <trkpt lat="44.94967" lon="5.70671">
        <ele>745</ele>
        <time>2017-12-15T22:02:11Z</time>
      </trkpt>
      <trkpt lat="44.94977" lon="5.70639">
        <ele>760</ele>
        <time>2017-12-15T22:02:16Z</time>
      </trkpt>
      <trkpt lat="44.94998" lon="5.70542">
        <ele>774</ele>
        <time>2017-12-15T22:02:30Z</time>
      </trkpt>
      <trkpt lat="44.95003" lon="5.70509">
        <ele>747</ele>
        <time>2017-12-15T22:02:43Z</time>
      </trkpt>
      <trkpt lat="44.95003" lon="5.70476">
        <ele>735</ele>
        <time>2017-12-15T22:02:58Z</time>
      </trkpt>
      <trkpt lat="44.94995" lon="5.70441">
        <ele>767</ele>
        <time>2017-12-15T22:03:08Z</time>
      </trkpt>
      <trkpt lat="44.94961" lon="5.70339">
        <ele>770</ele>
        <time>2017-12-15T22:03:26Z</time>
      </trkpt>
      <trkpt lat="44.94955" lon="5.70262">
        <ele>766</ele>
        <time>2017-12-15T22:03:28Z</time>
      </trkpt>
      <trkpt lat="44.9495" lon="5.70185">
        <ele>758</ele>
        <time>2017-12-15T22:03:48Z</time>
      </trkpt>
      <trkpt lat="44.94948" lon="5.70167">
        <ele>759</ele>
        <time>2017-12-15T22:04:08Z</time>
      </trkpt>
      <trkpt lat="44.9494" lon="5.70144">
        <ele>755</ele>
        <time>2017-12-15T22:04:13Z</time>
      </trkpt>
      <trkpt lat="44.94921" lon="5.70109">
        <ele>758</ele>
        <time>2017-12-15T22:04:24Z</time>
      </trkpt>
      <trkpt lat="44.94917" lon="5.70084">
        <ele>772</ele>
        <time>2017-12-15T22:04:28Z</time>
      </trkpt>
      <trkpt lat="44.94915" lon="5.70051">
        <ele>783</ele>
        <time>2017-12-15T22:04:48Z</time>
      </trkpt>
      <trkpt lat="44.94906" lon="5.70013">
        <ele>775</ele>
        <time>2017-12-15T22:05:06Z</time>
      </trkpt>
      <trkpt lat="44.94894" lon="5.69972">
        <ele>772</ele>
        <time>2017-12-15T22:05:08Z</time>
      </trkpt>
      <trkpt lat="44.94885" lon="5.69948">
        <ele>772</ele>
        <time>2017-12-15T22:05:14Z</time>
      </trkpt>
      <trkpt lat="44.94872" lon="5.69923">
        <ele>774</ele>
        <time>2017-12-15T22:05:26Z</time>
      </trkpt>
      <trkpt lat="44.94851" lon="5.69893">
        <ele>773</ele>
        <time>2017-12-15T22:05:46Z</time>
      </trkpt>
      <trkpt lat="44.94843" lon="5.6988">
        <ele>773</ele>
        <time>2017-12-15T22:06:04Z</time>
      </trkpt>
      <trkpt lat="44.9484" lon="5.69871">
        <ele>773</ele>
        <time>2017-12-15T22:06:24Z</time>
      </trkpt>
      <trkpt lat="44.94839" lon="5.6986">
        <ele>774</ele>
        <time>2017-12-15T22:06:37Z</time>
      </trkpt>
      <trkpt lat="44.94843" lon="5.69839">
        <ele>779</ele>
        <time>2017-12-15T22:06:51Z</time>
      </trkpt>
      <trkpt lat="44.94851" lon="5.69803">
        <ele>770</ele>
        <time>2017-12-15T22:07:03Z</time>
      </trkpt>
      <trkpt lat="44.94859" lon="5.69749">
        <ele>775</ele>
        <time>2017-12-15T22:07:21Z</time>
      </trkpt>
      <trkpt lat="44.94866" lon="5.69659">
        <ele>777</ele>
        <time>2017-12-15T22:07:27Z</time>
      </trkpt>
      <trkpt lat="44.9487" lon="5.6961">
        <ele>776</ele>
        <time>2017-12-15T22:07:44Z</time>
      </trkpt>
      <trkpt lat="44.94878" lon="5.69569">
        <ele>774</ele>
        <time>2017-12-15T22:07:49Z</time>
      </trkpt>
      <trkpt lat="44.94901" lon="5.69481">
        <ele>762</ele>
        <time>2017-12-15T22:08:08Z</time>
      </trkpt>
      <trkpt lat="44.94903" lon="5.69462">
        <ele>763</ele>
        <time>2017-12-15T22:08:22Z</time>
      </trkpt>
      <trkpt lat="44.94898" lon="5.69446">
        <ele>762</ele>
        <time>2017-12-15T22:08:37Z</time>
      </trkpt>
      <trkpt lat="44.94884" lon="5.6943">
        <ele>763</ele>
        <time>2017-12-15T22:08:41Z</time>
      </trkpt>
      <trkpt lat="44.94838" lon="5.69402">
        <ele>757</ele>
        <time>2017-12-15T22:09:01Z</time>
      </trkpt>
      <trkpt lat="44.94817" lon="5.69398">
        <ele>760</ele>
        <time>2017-12-15T22:09:13Z</time>
      </trkpt>
      <trkpt lat="44.94799" lon="5.69397">
        <ele>758</ele>
        <time>2017-12-15T22:09:32Z</time>
      </trkpt>
      <trkpt lat="44.94789" lon="5.69397">
        <ele>758</ele>
        <time>2017-12-15T22:09:35Z</time>
      </trkpt>
      <trkpt lat="44.94748" lon="5.69406">
        <ele>764</ele>
        <time>2017-12-15T22:09:47Z</time>
      </trkpt>
      <trkpt lat="44.94699" lon="5.69418">
        <ele>789</ele>
        <time>2017-12-15T22:10:05Z</time>
      </trkpt>
      <trkpt lat="44.94685" lon="5.69419">
        <ele>787</ele>
        <time>2017-12-15T22:10:17Z</time>
      </trkpt>
      <trkpt lat="44.94668" lon="5.6941">
        <ele>772</ele>
        <time>2017-12-15T22:10:36Z</time>
      </trkpt>
      <trkpt lat="44.94645" lon="5.69392">
        <ele>765</ele>
        <time>2017-12-15T22:10:41Z</time>
      </trkpt>
      <trkpt lat="44.94626" lon="5.69379">
        <ele>762</ele>
        <time>2017-12-15T22:10:43Z</time>
      </trkpt>
      <trkpt lat="44.94606" lon="5.6937">
        <ele>761</ele>
        <time>2017-12-15T22:11:02Z</time>
      </trkpt>
      <trkpt lat="44.9459" lon="5.69366">
        <ele>760</ele>
        <time>2017-12-15T22:11:06Z</time>
      </trkpt>
      <trkpt lat="44.94563" lon="5.69363">
        <ele>762</ele>
        <time>2017-12-15T22:11:13Z</time>
      </trkpt>
      <trkpt lat="44.94534" lon="5.69363">
        <ele>762</ele>
        <time>2017-12-15T22:11:31Z</time>
      </trkpt>
      <trkpt lat="44.94501" lon="5.69366">
        <ele>761</ele>
        <time>2017-12-15T22:11:50Z</time>
      </trkpt>
      <trkpt lat="44.94478" lon="5.69371">
        <ele>755</ele>
        <time>2017-12-15T22:12:01Z</time>
      </trkpt>
      <trkpt lat="44.94457" lon="5.69383">
        <ele>755</ele>
        <time>2017-12-15T22:12:12Z</time>
      </trkpt>
      <trkpt lat="44.9442" lon="5.6942">
        <ele>767</ele>
        <time>2017-12-15T22:12:30Z</time>
      </trkpt>
      <trkpt lat="44.94405" lon="5.69429">
        <ele>767</ele>
        <time>2017-12-15T22:12:34Z</time>
      </trkpt>
      <trkpt lat="44.94397" lon="5.69428">
        <ele>767</ele>
        <time>2017-12-15T22:12:38Z</time>
      </trkpt>
      <trkpt lat="44.94384" lon="5.69418">
        <ele>766</ele>
        <time>2017-12-15T22:12:45Z</time>
      </trkpt>
      <trkpt lat="44.94376" lon="5.69414">
        <ele>744</ele>
        <time>2017-12-15T22:12:59Z</time>
      </trkpt>
      <trkpt lat="44.94367" lon="5.69416">
        <ele>743</ele>
        <time>2017-12-15T22:13:18Z</time>
      </trkpt>
      <trkpt lat="44.94356" lon="5.69424">
        <ele>761</ele>
        <time>2017-12-15T22:13:30Z</time>
      </trkpt>
      <trkpt lat="44.9435" lon="5.69432">
        <ele>761</ele>
        <time>2017-12-15T22:13:45Z</time>
      </trkpt>
      <trkpt lat="44.94334" lon="5.69464">
        <ele>771</ele>
        <time>2017-12-15T22:13:51Z</time>
      </trkpt>
      <trkpt lat="44.94323" lon="5.69478">
        <ele>772</ele>
        <time>2017-12-15T22:13:54Z</time>
      </trkpt>
      <trkpt lat="44.94315" lon="5.6948">
        <ele>771</ele>
        <time>2017-12-15T22:14:09Z</time>
      </trkpt>
      <trkpt lat="44.9431" lon="5.69478">
        <ele>770</ele>
        <time>2017-12-15T22:14:25Z</time>
      </trkpt>
      <trkpt lat="44.94294" lon="5.69463">
        <ele>766</ele>
        <time>2017-12-15T22:14:36Z</time>
      </trkpt>
      <trkpt lat="44.94269" lon="5.69451">
        <ele>763</ele>
        <time>2017-12-15T22:14:47Z</time>
      </trkpt>
      <trkpt lat="44.94244" lon="5.69436">
        <ele>761</ele>
        <time>2017-12-15T22:14:57Z</time>
      </trkpt>
      <trkpt lat="44.94225" lon="5.69426">
        <ele>763</ele>
        <time>2017-12-15T22:15:02Z</time>
      </trkpt>
      <trkpt lat="44.9421" lon="5.6941">
        <ele>739</ele>
        <time>2017-12-15T22:15:17Z</time>
      </trkpt>
      <trkpt lat="44.94198" lon="5.69401">
        <ele>740</ele>
        <time>2017-12-15T22:15:31Z</time>
      </trkpt>
      <trkpt lat="44.94171" lon="5.69394">
        <ele>744</ele>
        <time>2017-12-15T22:15:39Z</time>
      </trkpt>
      <trkpt lat="44.94119" lon="5.69384">
        <ele>744</ele>
        <time>2017-12-15T22:15:43Z</time>
      </trkpt>
      <trkpt lat="44.94094" lon="5.6938">
        <ele>743</ele>
        <time>2017-12-15T22:15:57Z</time>
      </trkpt>
      <trkpt lat="44.94076" lon="5.6938">
        <ele>746</ele>
        <time>2017-12-15T22:16:09Z</time>
      </trkpt>
      <trkpt lat="44.94052" lon="5.69392">
        <ele>749</ele>
        <time>2017-12-15T22:16:12Z</time>
      </trkpt>
      <trkpt lat="44.94039" lon="5.69402">
        <ele>752</ele>
        <time>2017-12-15T22:16:31Z</time>
      </trkpt>
      <trkpt lat="44.94031" lon="5.69403">
        <ele>753</ele>
        <time>2017-12-15T22:16:33Z</time>
      </trkpt>
      <trkpt lat="44.94019" lon="5.69399">
        <ele>754</ele>
        <time>2017-12-15T22:16:50Z</time>
      </trkpt>
      <trkpt lat="44.93998" lon="5.6938">
        <ele>754</ele>
        <time>2017-12-15T22:17:06Z</time>
      </trkpt>
      <trkpt lat="44.93975" lon="5.69369">
        <ele>751</ele>
        <time>2017-12-15T22:17:16Z</time>
      </trkpt>
      <trkpt lat="44.93883" lon="5.69337">
        <ele>757</ele>
        <time>2017-12-15T22:17:28Z</time>
      </trkpt>
      <trkpt lat="44.93866" lon="5.69336">
        <ele>759</ele>
        <time>2017-12-15T22:17:38Z</time>
      </trkpt>
      <trkpt lat="44.93853" lon="5.6933">
        <ele>737</ele>
        <time>2017-12-15T22:17:46Z</time>
      </trkpt>
      <trkpt lat="44.93842" lon="5.6932">
        <ele>738</ele>
        <time>2017-12-15T22:18:05Z</time>
      </trkpt>
      <trkpt lat="44.93814" lon="5.69297">
        <ele>734</ele>
        <time>2017-12-15T22:18:22Z</time>
      </trkpt>
      <trkpt lat="44.93787" lon="5.69284">
        <ele>731</ele>
        <time>2017-12-15T22:18:36Z</time>
      </trkpt>
      <trkpt lat="44.93768" lon="5.69282">
        <ele>730</ele>
        <time>2017-12-15T22:18:54Z</time>
      </trkpt>
      <trkpt lat="44.93746" lon="5.69294">
        <ele>739</ele>
        <time>2017-12-15T22:18:59Z</time>
      </trkpt>
      <trkpt lat="44.9372" lon="5.69309">
        <ele>743</ele>
        <time>2017-12-15T22:19:17Z</time>
      </trkpt>
      <trkpt lat="44.93704" lon="5.69312">
        <ele>745</ele>
        <time>2017-12-15T22:19:29Z</time>
      </trkpt>
      <trkpt lat="44.93695" lon="5.69309">
        <ele>745</ele>
        <time>2017-12-15T22:19:37Z</time>
      </trkpt>
      <trkpt lat="44.93692" lon="5.69305">
        <ele>745</ele>
        <time>2017-12-15T22:19:55Z</time>
      </trkpt>
      <trkpt lat="44.93674" lon="5.6925">
        <ele>723</ele>
        <time>2017-12-15T22:20:14Z</time>
      </trkpt>
      <trkpt lat="44.93662" lon="5.69231">
        <ele>724</ele>
        <time>2017-12-15T22:20:32Z</time>
      </trkpt>
      <trkpt lat="44.93648" lon="5.69219">
        <ele>721</ele>
        <time>2017-12-15T22:20:37Z</time>
      </trkpt>
      <trkpt lat="44.9363" lon="5.69212">
        <ele>720</ele>
        <time>2017-12-15T22:20:42Z</time>
      </trkpt>
      <trkpt lat="44.93588" lon="5.69204">
        <ele>721</ele>
        <time>2017-12-15T22:21:01Z</time>
      </trkpt>
      <trkpt lat="44.935" lon="5.69169">
        <ele>719</ele>
        <time>2017-12-15T22:21:19Z</time>
      </trkpt>
      <trkpt lat="44.93447" lon="5.69147">
        <ele>708</ele>
        <time>2017-12-15T22:21:26Z</time>
      </trkpt>
      <trkpt lat="44.93402" lon="5.69125">
        <ele>707</ele>
        <time>2017-12-15T22:21:45Z</time>
      </trkpt>
      <trkpt lat="44.93375" lon="5.69113">
        <ele>704</ele>
        <time>2017-12-15T22:21:51Z</time>
      </trkpt>
      <trkpt lat="44.9336" lon="5.6911">
        <ele>703</ele>
        <time>2017-12-15T22:22:04Z</time>
      </trkpt>
      <trkpt lat="44.93347" lon="5.69112">
        <ele>703</ele>
        <time>2017-12-15T22:22:22Z</time>
      </trkpt>
      <trkpt lat="44.93335" lon="5.69122">
        <ele>706</ele>
        <time>2017-12-15T22:22:33Z</time>
      </trkpt>
      <trkpt lat="44.93324" lon="5.69142">
        <ele>713</ele>
        <time>2017-12-15T22:22:35Z</time>
      </trkpt>
      <trkpt lat="44.93317" lon="5.69147">
        <ele>714</ele>
        <time>2017-12-15T22:22:44Z</time>
      </trkpt>
      <trkpt lat="44.93304" lon="5.69151">
        <ele>713</ele>
        <time>2017-12-15T22:22:48Z</time>
      </trkpt>
      <trkpt lat="44.933" lon="5.69149">
        <ele>712</ele>
        <time>2017-12-15T22:22:50Z</time>
      </trkpt>
      <trkpt lat="44.93296" lon="5.69145">
        <ele>711</ele>
        <time>2017-12-15T22:22:56Z</time>
      </trkpt>
      <trkpt lat="44.9329" lon="5.69134">
        <ele>708</ele>
        <time>2017-12-15T22:23:01Z</time>
      </trkpt>
      <trkpt lat="44.93285" lon="5.69117">
        <ele>704</ele>
        <time>2017-12-15T22:23:20Z</time>
      </trkpt>
      <trkpt lat="44.93281" lon="5.69112">
        <ele>702</ele>
        <time>2017-12-15T22:23:37Z</time>
      </trkpt>
      <trkpt lat="44.93269" lon="5.6911">
        <ele>701</ele>
        <time>2017-12-15T22:23:39Z</time>
      </trkpt>
      <trkpt lat="44.93254" lon="5.69113">
        <ele>701</ele>
        <time>2017-12-15T22:23:56Z</time>
      </trkpt>
      <trkpt lat="44.93235" lon="5.69114">
        <ele>698</ele>
        <time>2017-12-15T22:24:04Z</time>
      </trkpt>
      <trkpt lat="44.93218" lon="5.69119">
        <ele>699</ele>
        <time>2017-12-15T22:24:06Z</time>
      </trkpt>
      <trkpt lat="44.93195" lon="5.69132">
        <ele>702</ele>
        <time>2017-12-15T22:24:20Z</time>
      </trkpt>
      <trkpt lat="44.93183" lon="5.69135">
        <ele>703</ele>
        <time>2017-12-15T22:24:35Z</time>
      </trkpt>
      <trkpt lat="44.93169" lon="5.69134">
        <ele>702</ele>
        <time>2017-12-15T22:24:51Z</time>
      </trkpt>
      <trkpt lat="44.93158" lon="5.6913">
        <ele>698</ele>
        <time>2017-12-15T22:25:05Z</time>
      </trkpt>
      <trkpt lat="44.93144" lon="5.69125">
        <ele>696</ele>
        <time>2017-12-15T22:25:19Z</time>
      </trkpt>
      <trkpt lat="44.9313" lon="5.69123">
        <ele>695</ele>
        <time>2017-12-15T22:25:34Z</time>
      </trkpt>
      <trkpt lat="44.9312" lon="5.69125">
        <ele>695</ele>
        <time>2017-12-15T22:25:52Z</time>
      </trkpt>
      <trkpt lat="44.9311" lon="5.69131">
        <ele>697</ele>
        <time>2017-12-15T22:25:58Z</time>
      </trkpt>
      <trkpt lat="44.93102" lon="5.69133">
        <ele>697</ele>
        <time>2017-12-15T22:26:14Z</time>
      </trkpt>
      <trkpt lat="44.93089" lon="5.69127">
        <ele>696</ele>
        <time>2017-12-15T22:26:25Z</time>
      </trkpt>
      <trkpt lat="44.9308" lon="5.69121">
        <ele>689</ele>
        <time>2017-12-15T22:26:28Z</time>
      </trkpt>
      <trkpt lat="44.93066" lon="5.6912">
        <ele>688</ele>
        <time>2017-12-15T22:26:36Z</time>
      </trkpt>
      <trkpt lat="44.93036" lon="5.69131">
        <ele>690</ele>
        <time>2017-12-15T22:26:55Z</time>
      </trkpt>
      <trkpt lat="44.92988" lon="5.69154">
        <ele>689</ele>
        <time>2017-12-15T22:27:08Z</time>
      </trkpt>
      <trkpt lat="44.92975" lon="5.69158">
        <ele>685</ele>
        <time>2017-12-15T22:27:20Z</time>
      </trkpt>
      <trkpt lat="44.92954" lon="5.69154">
        <ele>681</ele>
        <time>2017-12-15T22:27:34Z</time>
      </trkpt>
      <trkpt lat="44.92941" lon="5.69153">
        <ele>680</ele>
        <time>2017-12-15T22:27:53Z</time>
      </trkpt>
      <trkpt lat="44.92931" lon="5.69155">
        <ele>680</ele>
        <time>2017-12-15T22:28:13Z</time>
      </trkpt>
      <trkpt lat="44.92916" lon="5.69165">
        <ele>684</ele>
        <time>2017-12-15T22:28:23Z</time>
      </trkpt>
      <trkpt lat="44.92903" lon="5.69186">
        <ele>695</ele>
        <time>2017-12-15T22:28:34Z</time>
      </trkpt>
      <trkpt lat="44.92892" lon="5.69202">
        <ele>700</ele>
        <time>2017-12-15T22:28:42Z</time>
      </trkpt>
      <trkpt lat="44.92882" lon="5.69206">
        <ele>701</ele>
        <time>2017-12-15T22:29:02Z</time>
      </trkpt>
      <trkpt lat="44.92874" lon="5.69205">
        <ele>700</ele>
        <time>2017-12-15T22:29:06Z</time>
      </trkpt>
      <trkpt lat="44.92866" lon="5.69199">
        <ele>698</ele>
        <time>2017-12-15T22:29:17Z</time>
      </trkpt>
      <trkpt lat="44.92851" lon="5.69175">
        <ele>689</ele>
        <time>2017-12-15T22:29:22Z</time>
      </trkpt>
      <trkpt lat="44.92838" lon="5.69165">
        <ele>674</ele>
        <time>2017-12-15T22:29:31Z</time>
      </trkpt>
      <trkpt lat="44.9279" lon="5.69157">
        <ele>668</ele>
        <time>2017-12-15T22:29:44Z</time>
      </trkpt>
      <trkpt lat="44.92763" lon="5.69157">
        <ele>672</ele>
        <time>2017-12-15T22:29:57Z</time>
      </trkpt>
      <trkpt lat="44.92738" lon="5.69168">
        <ele>691</ele>
        <time>2017-12-15T22:30:07Z</time>
      </trkpt>
      <trkpt lat="44.92724" lon="5.6917">
        <ele>697</ele>
        <time>2017-12-15T22:30:14Z</time>
      </trkpt>
      <trkpt lat="44.92709" lon="5.69163">
        <ele>673</ele>
        <time>2017-12-15T22:30:28Z</time>
      </trkpt>
      <trkpt lat="44.92691" lon="5.69157">
        <ele>674</ele>
        <time>2017-12-15T22:30:40Z</time>
      </trkpt>
      <trkpt lat="44.92678" lon="5.69155">
        <ele>677</ele>
        <time>2017-12-15T22:31:00Z</time>
      </trkpt>
      <trkpt lat="44.92667" lon="5.69147">
        <ele>675</ele>
        <time>2017-12-15T22:31:18Z</time>
      </trkpt>
      <trkpt lat="44.92652" lon="5.69142">
        <ele>679</ele>
        <time>2017-12-15T22:31:24Z</time>
      </trkpt>
      <trkpt lat="44.92636" lon="5.69135">
        <ele>678</ele>
        <time>2017-12-15T22:31:32Z</time>
      </trkpt>
      <trkpt lat="44.92622" lon="5.69123">
        <ele>677</ele>
        <time>2017-12-15T22:31:51Z</time>
      </trkpt>
      <trkpt lat="44.92609" lon="5.6912">
        <ele>677</ele>
        <time>2017-12-15T22:32:08Z</time>
      </trkpt>
      <trkpt lat="44.92591" lon="5.69111">
        <ele>676</ele>
        <time>2017-12-15T22:32:28Z</time>
      </trkpt>
      <trkpt lat="44.92573" lon="5.69101">
        <ele>677</ele>
        <time>2017-12-15T22:32:37Z</time>
      </trkpt>
      <trkpt lat="44.92557" lon="5.691">
        <ele>679</ele>
        <time>2017-12-15T22:32:51Z</time>
      </trkpt>
      <trkpt lat="44.92539" lon="5.69099">
        <ele>679</ele>
        <time>2017-12-15T22:33:05Z</time>
      </trkpt>
      <trkpt lat="44.92518" lon="5.69103">
        <ele>678</ele>
        <time>2017-12-15T22:33:10Z</time>
      </trkpt>
      <trkpt lat="44.92506" lon="5.69103">
        <ele>676</ele>
        <time>2017-12-15T22:33:30Z</time>
      </trkpt>
      <trkpt lat="44.92491" lon="5.69093">
        <ele>672</ele>
        <time>2017-12-15T22:33:41Z</time>
      </trkpt>
      <trkpt lat="44.92448" lon="5.6907">
        <ele>659</ele>
        <time>2017-12-15T22:33:56Z</time>
      </trkpt>
      <trkpt lat="44.92427" lon="5.69066">
        <ele>661</ele>
        <time>2017-12-15T22:34:09Z</time>
      </trkpt>
      <trkpt lat="44.92413" lon="5.69059">
        <ele>663</ele>
        <time>2017-12-15T22:34:20Z</time>
      </trkpt>
      <trkpt lat="44.92391" lon="5.6904">
        <ele>660</ele>
        <time>2017-12-15T22:34:24Z</time>
      </trkpt>
      <trkpt lat="44.92371" lon="5.69026">
        <ele>659</ele>
        <time>2017-12-15T22:34:26Z</time>
      </trkpt>
      <trkpt lat="44.92331" lon="5.69012">
        <ele>659</ele>
        <time>2017-12-15T22:34:28Z</time>
      </trkpt>
      <trkpt lat="44.92297" lon="5.69005">
        <ele>665</ele>
        <time>2017-12-15T22:34:32Z</time>
      </trkpt>
      <trkpt lat="44.92282" lon="5.68992">
        <ele>654</ele>
        <time>2017-12-15T22:34:48Z</time>
      </trkpt>
      <trkpt lat="44.9227" lon="5.68962">
        <ele>653</ele>
        <time>2017-12-15T22:34:54Z</time>
      </trkpt>
      <trkpt lat="44.92258" lon="5.68948">
        <ele>652</ele>
        <time>2017-12-15T22:35:07Z</time>
      </trkpt>
      <trkpt lat="44.9223" lon="5.68928">
        <ele>658</ele>
        <time>2017-12-15T22:35:25Z</time>
      </trkpt>
      <trkpt lat="44.92199" lon="5.68906">
        <ele>651</ele>
        <time>2017-12-15T22:35:33Z</time>
      </trkpt>
      <trkpt lat="44.92183" lon="5.689">
        <ele>653</ele>
        <time>2017-12-15T22:35:35Z</time>
      </trkpt>
      <trkpt lat="44.9217" lon="5.68901">
        <ele>654</ele>
        <time>2017-12-15T22:35:37Z</time>
      </trkpt>
      <trkpt lat="44.92147" lon="5.68913">
        <ele>654</ele>
        <time>2017-12-15T22:35:40Z</time>
      </trkpt>
      <trkpt lat="44.92115" lon="5.68937">
        <ele>662</ele>
        <time>2017-12-15T22:35:44Z</time>
      </trkpt>
      <trkpt lat="44.9208" lon="5.68962">
        <ele>662</ele>
        <time>2017-12-15T22:36:04Z</time>
      </trkpt>
      <trkpt lat="44.92049" lon="5.68973">
        <ele>664</ele>
        <time>2017-12-15T22:36:13Z</time>
      </trkpt>
      <trkpt lat="44.92028" lon="5.68975">
        <ele>665</ele>
        <time>2017-12-15T22:36:16Z</time>
      </trkpt>
      <trkpt lat="44.92006" lon="5.68973">
        <ele>666</ele>
        <time>2017-12-15T22:36:31Z</time>
      </trkpt>
      <trkpt lat="44.91985" lon="5.68968">
        <ele>668</ele>
        <time>2017-12-15T22:36:40Z</time>
      </trkpt>
      <trkpt lat="44.91965" lon="5.68956">
        <ele>666</ele>
        <time>2017-12-15T22:36:43Z</time>
      </trkpt>
      <trkpt lat="44.91937" lon="5.68936">
        <ele>663</ele>
        <time>2017-12-15T22:36:56Z</time>
      </trkpt>
      <trkpt lat="44.91915" lon="5.68925">
        <ele>659</ele>
        <time>2017-12-15T22:37:13Z</time>
      </trkpt>
      <trkpt lat="44.91886" lon="5.6892">
        <ele>665</ele>
        <time>2017-12-15T22:37:28Z</time>
      </trkpt>
      <trkpt lat="44.91852" lon="5.68915">
        <ele>651</ele>
        <time>2017-12-15T22:37:37Z</time>
      </trkpt>
      <trkpt lat="44.91822" lon="5.6891">
        <ele>653</ele>
        <time>2017-12-15T22:37:55Z</time>
      </trkpt>
      <trkpt lat="44.9179" lon="5.68897">
        <ele>649</ele>
        <time>2017-12-15T22:38:01Z</time>
      </trkpt>
      <trkpt lat="44.91749" lon="5.68879">
        <ele>646</ele>
        <time>2017-12-15T22:38:14Z</time>
      </trkpt>
      <trkpt lat="44.91722" lon="5.68872">
        <ele>645</ele>
        <time>2017-12-15T22:38:21Z</time>
      </trkpt>
      <trkpt lat="44.91642" lon="5.68879">
        <ele>643</ele>
        <time>2017-12-15T22:38:23Z</time>
      </trkpt>
      <trkpt lat="44.91479" lon="5.68895">
        <ele>635</ele>
        <time>2017-12-15T22:38:28Z</time>
      </trkpt>
      <trkpt lat="44.91442" lon="5.68896">
        <ele>634</ele>
        <time>2017-12-15T22:38:45Z</time>
      </trkpt>
      <trkpt lat="44.9142" lon="5.68895">
        <ele>634</ele>
        <time>2017-12-15T22:38:58Z</time>
      </trkpt>
      <trkpt lat="44.91384" lon="5.68892">
        <ele>632</ele>
        <time>2017-12-15T22:39:10Z</time>
      </trkpt>
      <trkpt lat="44.91321" lon="5.68892">
        <ele>632</ele>
        <time>2017-12-15T22:39:24Z</time>
      </trkpt>
      <trkpt lat="44.91291" lon="5.68892">
        <ele>631</ele>
        <time>2017-12-15T22:39:34Z</time>
      </trkpt>
      <trkpt lat="44.9126" lon="5.68898">
        <ele>632</ele>
        <time>2017-12-15T22:39:47Z</time>
      </trkpt>
      <trkpt lat="44.91228" lon="5.68911">
        <ele>631</ele>
        <time>2017-12-15T22:39:58Z</time>
      </trkpt>
      <trkpt lat="44.91177" lon="5.68933">
        <ele>635</ele>
        <time>2017-12-15T22:40:07Z</time>
      </trkpt>
      <trkpt lat="44.91053" lon="5.68992">
        <ele>636</ele>
        <time>2017-12-15T22:40:23Z</time>
      </trkpt>
      <trkpt lat="44.90919" lon="5.69055">
        <ele>644</ele>
        <time>2017-12-15T22:40:31Z</time>
      </trkpt>
      <trkpt lat="44.90866" lon="5.69078">
        <ele>646</ele>
        <time>2017-12-15T22:40:42Z</time>
      </trkpt>
      <trkpt lat="44.90827" lon="5.69085">
        <ele>650</ele>
        <time>2017-12-15T22:40:55Z</time>
      </trkpt>
      <trkpt lat="44.90766" lon="5.69096">
        <ele>653</ele>
        <time>2017-12-15T22:40:59Z</time>
      </trkpt>
      <trkpt lat="44.90724" lon="5.69094">
        <ele>655</ele>
        <time>2017-12-15T22:41:14Z</time>
      </trkpt>
      <trkpt lat="44.9067" lon="5.69094">
        <ele>654</ele>
        <time>2017-12-15T22:41:22Z</time>
      </trkpt>
      <trkpt lat="44.90617" lon="5.6909">
        <ele>658</ele>
        <time>2017-12-15T22:41:28Z</time>
      </trkpt>
      <trkpt lat="44.90573" lon="5.69089">
        <ele>658</ele>
        <time>2017-12-15T22:41:38Z</time>
      </trkpt>
      <trkpt lat="44.90519" lon="5.69094">
        <ele>662</ele>
        <time>2017-12-15T22:41:53Z</time>
      </trkpt>
      <trkpt lat="44.90427" lon="5.69112">
        <ele>665</ele>
        <time>2017-12-15T22:42:08Z</time>
      </trkpt>
      <trkpt lat="44.90382" lon="5.69122">
        <ele>666</ele>
        <time>2017-12-15T22:42:16Z</time>
      </trkpt>
      <trkpt lat="44.90361" lon="5.6913">
        <ele>666</ele>
        <time>2017-12-15T22:42:22Z</time>
      </trkpt>
      <trkpt lat="44.90274" lon="5.69175">
        <ele>673</ele>
        <time>2017-12-15T22:42:28Z</time>
      </trkpt>
      <trkpt lat="44.9021" lon="5.69208">
        <ele>673</ele>
        <time>2017-12-15T22:42:39Z</time>
      </trkpt>
      <trkpt lat="44.90162" lon="5.69232">
        <ele>673</ele>
        <time>2017-12-15T22:42:46Z</time>
      </trkpt>
      <trkpt lat="44.90109" lon="5.69248">
        <ele>672</ele>
        <time>2017-12-15T22:42:56Z</time>
      </trkpt>
      <trkpt lat="44.90073" lon="5.69255">
        <ele>676</ele>
        <time>2017-12-15T22:43:13Z</time>
      </trkpt>
      <trkpt lat="44.90031" lon="5.69261">
        <ele>677</ele>
        <time>2017-12-15T22:43:31Z</time>
      </trkpt>
      <trkpt lat="44.89964" lon="5.69277">
        <ele>678</ele>
        <time>2017-12-15T22:43:36Z</time>
      </trkpt>
      <trkpt lat="44.89922" lon="5.6929">
        <ele>679</ele>
        <time>2017-12-15T22:43:41Z</time>
      </trkpt>
      <trkpt lat="44.89869" lon="5.69314">
        <ele>679</ele>
        <time>2017-12-15T22:43:50Z</time>
      </trkpt>
      <trkpt lat="44.89843" lon="5.69328">
        <ele>681</ele>
        <time>2017-12-15T22:44:04Z</time>
      </trkpt>
      <trkpt lat="44.89816" lon="5.69354">
        <ele>685</ele>
        <time>2017-12-15T22:44:06Z</time>
      </trkpt>
      <trkpt lat="44.89766" lon="5.69411">
        <ele>686</ele>
        <time>2017-12-15T22:44:24Z</time>
      </trkpt>
      <trkpt lat="44.89737" lon="5.69441">
        <ele>689</ele>
        <time>2017-12-15T22:44:32Z</time>
      </trkpt>
      <trkpt lat="44.89723" lon="5.69452">
        <ele>690</ele>
        <time>2017-12-15T22:44:40Z</time>
      </trkpt>
      <trkpt lat="44.89635" lon="5.69503">
        <ele>696</ele>
        <time>2017-12-15T22:44:49Z</time>
      </trkpt>
      <trkpt lat="44.89603" lon="5.69525">
        <ele>696</ele>
        <time>2017-12-15T22:44:54Z</time>
      </trkpt>
      <trkpt lat="44.89574" lon="5.69555">
        <ele>695</ele>
        <time>2017-12-15T22:45:10Z</time>
      </trkpt>
      <trkpt lat="44.89543" lon="5.69576">
        <ele>695</ele>
        <time>2017-12-15T22:45:14Z</time>
      </trkpt>
      <trkpt lat="44.89505" lon="5.69594">
        <ele>700</ele>
        <time>2017-12-15T22:45:21Z</time>
      </trkpt>
      <trkpt lat="44.89495" lon="5.69596">
        <ele>700</ele>
        <time>2017-12-15T22:45:35Z</time>
      </trkpt>
      <trkpt lat="44.89483" lon="5.69594">
        <ele>701</ele>
        <time>2017-12-15T22:45:55Z</time>
      </trkpt>
      <trkpt lat="44.89453" lon="5.69585">
        <ele>701</ele>
        <time>2017-12-15T22:45:57Z</time>
      </trkpt>
      <trkpt lat="44.89437" lon="5.69583">
        <ele>695</ele>
        <time>2017-12-15T22:46:04Z</time>
      </trkpt>
      <trkpt lat="44.89397" lon="5.69598">
        <ele>703</ele>
        <time>2017-12-15T22:46:18Z</time>
      </trkpt>
      <trkpt lat="44.89322" lon="5.69626">
        <ele>707</ele>
        <time>2017-12-15T22:46:35Z</time>
      </trkpt>
      <trkpt lat="44.89307" lon="5.69631">
        <ele>707</ele>
        <time>2017-12-15T22:46:47Z</time>
      </trkpt>
      <trkpt lat="44.89294" lon="5.69632">
        <ele>707</ele>
        <time>2017-12-15T22:47:03Z</time>
      </trkpt>
      <trkpt lat="44.89248" lon="5.6963">
        <ele>709</ele>
        <time>2017-12-15T22:47:21Z</time>
      </trkpt>
      <trkpt lat="44.89206" lon="5.69626">
        <ele>709</ele>
        <time>2017-12-15T22:47:25Z</time>
      </trkpt>
      <trkpt lat="44.89192" lon="5.69626">
        <ele>709</ele>
        <time>2017-12-15T22:47:30Z</time>
      </trkpt>
      <trkpt lat="44.89174" lon="5.69628">
        <ele>710</ele>
        <time>2017-12-15T22:47:48Z</time>
      </trkpt>
      <trkpt lat="44.89159" lon="5.69632">
        <ele>713</ele>
        <time>2017-12-15T22:47:58Z</time>
      </trkpt>
      <trkpt lat="44.89146" lon="5.6964">
        <ele>713</ele>
        <time>2017-12-15T22:48:14Z</time>
      </trkpt>
      <trkpt lat="44.8912" lon="5.69654">
        <ele>714</ele>
        <time>2017-12-15T22:48:18Z</time>
      </trkpt>
      <trkpt lat="44.89106" lon="5.69654">
        <ele>715</ele>
        <time>2017-12-15T22:48:28Z</time>
      </trkpt>
      <trkpt lat="44.89085" lon="5.69644">
        <ele>715</ele>
        <time>2017-12-15T22:48:35Z</time>
      </trkpt>
      <trkpt lat="44.89053" lon="5.69625">
        <ele>716</ele>
        <time>2017-12-15T22:48:50Z</time>
      </trkpt>
      <trkpt lat="44.8904" lon="5.69621">
        <ele>716</ele>
        <time>2017-12-15T22:48:55Z</time>
      </trkpt>
      <trkpt lat="44.89031" lon="5.6962">
        <ele>716</ele>
        <time>2017-12-15T22:49:13Z</time>
      </trkpt>
      <trkpt lat="44.89012" lon="5.69626">
        <ele>717</ele>
        <time>2017-12-15T22:49:21Z</time>
      </trkpt>
      <trkpt lat="44.88995" lon="5.69636">
        <ele>716</ele>
        <time>2017-12-15T22:49:34Z</time>
      </trkpt>
      <trkpt lat="44.88988" lon="5.69644">
        <ele>717</ele>
        <time>2017-12-15T22:49:39Z</time>
      </trkpt>
      <trkpt lat="44.88961" lon="5.69689">
        <ele>721</ele>
        <time>2017-12-15T22:49:48Z</time>
      </trkpt>
      <trkpt lat="44.88926" lon="5.69786">
        <ele>727</ele>
        <time>2017-12-15T22:49:53Z</time>
      </trkpt>
      <trkpt lat="44.88895" lon="5.69872">
        <ele>726</ele>
        <time>2017-12-15T22:50:01Z</time>
      </trkpt>
      <trkpt lat="44.88884" lon="5.69898">
        <ele>726</ele>
        <time>2017-12-15T22:50:12Z</time>
      </trkpt>
      <trkpt lat="44.88878" lon="5.69908">
        <ele>726</ele>
        <time>2017-12-15T22:50:25Z</time>
      </trkpt>
      <trkpt lat="44.88864" lon="5.69923">
        <ele>730</ele>
        <time>2017-12-15T22:50:34Z</time>
      </trkpt>
      <trkpt lat="44.88841" lon="5.69942">
        <ele>730</ele>
        <time>2017-12-15T22:50:54Z</time>
      </trkpt>
      <trkpt lat="44.88776" lon="5.69984">
        <ele>726</ele>
        <time>2017-12-15T22:51:10Z</time>
      </trkpt>
      <trkpt lat="44.88757" lon="5.69995">
        <ele>726</ele>
        <time>2017-12-15T22:51:20Z</time>
      </trkpt>
      <trkpt lat="44.88745" lon="5.7">
        <ele>726</ele>
        <time>2017-12-15T22:51:34Z</time>
      </trkpt>
      <trkpt lat="44.88731" lon="5.70001">
        <ele>727</ele>
        <time>2017-12-15T22:51:40Z</time>
      </trkpt>
      <trkpt lat="44.88556" lon="5.69994">
        <ele>713</ele>
        <time>2017-12-15T22:51:49Z</time>
      </trkpt>
      <trkpt lat="44.88542" lon="5.69996">
        <ele>712</ele>
        <time>2017-12-15T22:51:58Z</time>
      </trkpt>
      <trkpt lat="44.88528" lon="5.70002">
        <ele>715</ele>
        <time>2017-12-15T22:52:18Z</time>
      </trkpt>
      <trkpt lat="44.88515" lon="5.70012">
        <ele>714</ele>
        <time>2017-12-15T22:52:30Z</time>
      </trkpt>
      <trkpt lat="44.88506" lon="5.70024">
        <ele>715</ele>
        <time>2017-12-15T22:52:35Z</time>
      </trkpt>
      <trkpt lat="44.8849" lon="5.70052">
        <ele>709</ele>
        <time>2017-12-15T22:52:47Z</time>
      </trkpt>
      <trkpt lat="44.88476" lon="5.70087">
        <ele>713</ele>
        <time>2017-12-15T22:52:59Z</time>
      </trkpt>
      <trkpt lat="44.8846" lon="5.70127">
        <ele>712</ele>
        <time>2017-12-15T22:53:02Z</time>
      </trkpt>
      <trkpt lat="44.88451" lon="5.70154">
        <ele>712</ele>
        <time>2017-12-15T22:53:19Z</time>
      </trkpt>
      <trkpt lat="44.88444" lon="5.7017">
        <ele>719</ele>
        <time>2017-12-15T22:53:33Z</time>
      </trkpt>
      <trkpt lat="44.88433" lon="5.70181">
        <ele>718</ele>
        <time>2017-12-15T22:53:51Z</time>
      </trkpt>
      <trkpt lat="44.88423" lon="5.70188">
        <ele>718</ele>
        <time>2017-12-15T22:53:58Z</time>
      </trkpt>
      <trkpt lat="44.88386" lon="5.70209">
        <ele>712</ele>
        <time>2017-12-15T22:54:02Z</time>
      </trkpt>
      <trkpt lat="44.88357" lon="5.70224">
        <ele>711</ele>
        <time>2017-12-15T22:54:22Z</time>
      </trkpt>
      <trkpt lat="44.88345" lon="5.70233">
        <ele>710</ele>
        <time>2017-12-15T22:54:38Z</time>
      </trkpt>
      <trkpt lat="44.88319" lon="5.70255">
        <ele>707</ele>
        <time>2017-12-15T22:54:41Z</time>
      </trkpt>
      <trkpt lat="44.88295" lon="5.7028">
        <ele>704</ele>
        <time>2017-12-15T22:54:43Z</time>
      </trkpt>
      <trkpt lat="44.88288" lon="5.70291">
        <ele>703</ele>
        <time>2017-12-15T22:54:48Z</time>
      </trkpt>
      <trkpt lat="44.88283" lon="5.70302">
        <ele>703</ele>
        <time>2017-12-15T22:54:53Z</time>
      </trkpt>
      <trkpt lat="44.88282" lon="5.70314">
        <ele>703</ele>
        <time>2017-12-15T22:54:58Z</time>
      </trkpt>
      <trkpt lat="44.88283" lon="5.70325">
        <ele>703</ele>
        <time>2017-12-15T22:55:10Z</time>
      </trkpt>
      <trkpt lat="44.88291" lon="5.70374">
        <ele>709</ele>
        <time>2017-12-15T22:55:14Z</time>
      </trkpt>
      <trkpt lat="44.88292" lon="5.70387">
        <ele>709</ele>
        <time>2017-12-15T22:55:20Z</time>
      </trkpt>
      <trkpt lat="44.8829" lon="5.70398">
        <ele>709</ele>
        <time>2017-12-15T22:55:40Z</time>
      </trkpt>
      <trkpt lat="44.88279" lon="5.70419">
        <ele>708</ele>
        <time>2017-12-15T22:55:56Z</time>
      </trkpt>
      <trkpt lat="44.88258" lon="5.70441">
        <ele>706</ele>
        <time>2017-12-15T22:55:59Z</time>
      </trkpt>
      <trkpt lat="44.88237" lon="5.70454">
        <ele>700</ele>
        <time>2017-12-15T22:56:14Z</time>
      </trkpt>
      <trkpt lat="44.88227" lon="5.70458">
        <ele>700</ele>
        <time>2017-12-15T22:56:31Z</time>
      </trkpt>
      <trkpt lat="44.88215" lon="5.7046">
        <ele>700</ele>
        <time>2017-12-15T22:56:44Z</time>
      </trkpt>
      <trkpt lat="44.88163" lon="5.7046">
        <ele>700</ele>
        <time>2017-12-15T22:57:04Z</time>
      </trkpt>
      <trkpt lat="44.88151" lon="5.70458">
        <ele>700</ele>
        <time>2017-12-15T22:57:21Z</time>
      </trkpt>
      <trkpt lat="44.8814" lon="5.70451">
        <ele>700</ele>
        <time>2017-12-15T22:57:38Z</time>
      </trkpt>
      <trkpt lat="44.88123" lon="5.70436">
        <ele>700</ele>
        <time>2017-12-15T22:57:56Z</time>
      </trkpt>
      <trkpt lat="44.88101" lon="5.70421">
        <ele>700</ele>
        <time>2017-12-15T22:58:12Z</time>
      </trkpt>
      <trkpt lat="44.88082" lon="5.70408">
        <ele>697</ele>
        <time>2017-12-15T22:58:28Z</time>
      </trkpt>
      <trkpt lat="44.8806" lon="5.70397">
        <ele>694</ele>
        <time>2017-12-15T22:58:48Z</time>
      </trkpt>
      <trkpt lat="44.88031" lon="5.70386">
        <ele>693</ele>
        <time>2017-12-15T22:58:53Z</time>
      </trkpt>
      <trkpt lat="44.88003" lon="5.70378">
        <ele>692</ele>
        <time>2017-12-15T22:59:05Z</time>
      </trkpt>
      <trkpt lat="44.87989" lon="5.70377">
        <ele>691</ele>
        <time>2017-12-15T22:59:21Z</time>
      </trkpt>
      <trkpt lat="44.87976" lon="5.7038">
        <ele>691</ele>
        <time>2017-12-15T22:59:26Z</time>
      </trkpt>
      <trkpt lat="44.87873" lon="5.70416">
        <ele>682</ele>
        <time>2017-12-15T22:59:45Z</time>
      </trkpt>
      <trkpt lat="44.87784" lon="5.70448">
        <ele>681</ele>
        <time>2017-12-15T22:59:53Z</time>
      </trkpt>
      <trkpt lat="44.8776" lon="5.7046">
        <ele>681</ele>
        <time>2017-12-15T23:00:02Z</time>
      </trkpt>
      <trkpt lat="44.87715" lon="5.70487">
        <ele>674</ele>
        <time>2017-12-15T23:00:11Z</time>
      </trkpt>
      <trkpt lat="44.87703" lon="5.70504">
        <ele>674</ele>
        <time>2017-12-15T23:00:20Z</time>
      </trkpt>
      <trkpt lat="44.87696" lon="5.70523">
        <ele>673</ele>
        <time>2017-12-15T23:00:23Z</time>
      </trkpt>
      <trkpt lat="44.87693" lon="5.70544">
        <ele>673</ele>
        <time>2017-12-15T23:00:25Z</time>
      </trkpt>
      <trkpt lat="44.87696" lon="5.70563">
        <ele>673</ele>
        <time>2017-12-15T23:00:31Z</time>
      </trkpt>
      <trkpt lat="44.87703" lon="5.70585">
        <ele>673</ele>
        <time>2017-12-15T23:00:33Z</time>
      </trkpt>
      <trkpt lat="44.87712" lon="5.70605">
        <ele>674</ele>
        <time>2017-12-15T23:00:44Z</time>
      </trkpt>
      <trkpt lat="44.87715" lon="5.70622">
        <ele>674</ele>
        <time>2017-12-15T23:00:48Z</time>
      </trkpt>
      <trkpt lat="44.87716" lon="5.70643">
        <ele>674</ele>
        <time>2017-12-15T23:01:07Z</time>
      </trkpt>
      <trkpt lat="44.87714" lon="5.70657">
        <ele>673</ele>
        <time>2017-12-15T23:01:27Z</time>
      </trkpt>
      <trkpt lat="44.87704" lon="5.70679">
        <ele>671</ele>
        <time>2017-12-15T23:01:42Z</time>
      </trkpt>
      <trkpt lat="44.87685" lon="5.70712">
        <ele>670</ele>
        <time>2017-12-15T23:01:46Z</time>
      </trkpt>
      <trkpt lat="44.87679" lon="5.70731">
        <ele>668</ele>
        <time>2017-12-15T23:02:00Z</time>
      </trkpt>
      <trkpt lat="44.87681" lon="5.70765">
        <ele>669</ele>
        <time>2017-12-15T23:02:07Z</time>
      </trkpt>
      <trkpt lat="44.87682" lon="5.70795">
        <ele>671</ele>
        <time>2017-12-15T23:02:23Z</time>
      </trkpt>
      <trkpt lat="44.87678" lon="5.70821">
        <ele>669</ele>
        <time>2017-12-15T23:02:43Z</time>
      </trkpt>
      <trkpt lat="44.87668" lon="5.70849">
        <ele>672</ele>
        <time>2017-12-15T23:02:52Z</time>
      </trkpt>
      <trkpt lat="44.8765" lon="5.70877">
        <ele>664</ele>
        <time>2017-12-15T23:02:57Z</time>
      </trkpt>
      <trkpt lat="44.87629" lon="5.70907">
        <ele>664</ele>
        <time>2017-12-15T23:03:10Z</time>
      </trkpt>
      <trkpt lat="44.87616" lon="5.70919">
        <ele>674</ele>
        <time>2017-12-15T23:03:26Z</time>
      </trkpt>
      <trkpt lat="44.87551" lon="5.70956">
        <ele>660</ele>
        <time>2017-12-15T23:03:40Z</time>
      </trkpt>
      <trkpt lat="44.87513" lon="5.70976">
        <ele>659</ele>
        <time>2017-12-15T23:03:42Z</time>
      </trkpt>
      <trkpt lat="44.87479" lon="5.70993">
        <ele>648</ele>
        <time>2017-12-15T23:03:51Z</time>
      </trkpt>
      <trkpt lat="44.87448" lon="5.71013">
        <ele>655</ele>
        <time>2017-12-15T23:04:08Z</time>
      </trkpt>
      <trkpt lat="44.87432" lon="5.71023">
        <ele>653</ele>
        <time>2017-12-15T23:04:25Z</time>
      </trkpt>
      <trkpt lat="44.87416" lon="5.71043">
        <ele>640</ele>
        <time>2017-12-15T23:04:41Z</time>
      </trkpt>
      <trkpt lat="44.87408" lon="5.71061">
        <ele>643</ele>
        <time>2017-12-15T23:04:55Z</time>
      </trkpt>
      <trkpt lat="44.87406" lon="5.71081">
        <ele>648</ele>
        <time>2017-12-15T23:04:58Z</time>
      </trkpt>
      <trkpt lat="44.87404" lon="5.71119">
        <ele>650</ele>
        <time>2017-12-15T23:05:04Z</time>
      </trkpt>
      <trkpt lat="44.87395" lon="5.71169">
        <ele>660</ele>
        <time>2017-12-15T23:05:13Z</time>
      </trkpt>
      <trkpt lat="44.87377" lon="5.71225">
        <ele>658</ele>
        <time>2017-12-15T23:05:22Z</time>
      </trkpt>
      <trkpt lat="44.87365" lon="5.7127">
        <ele>662</ele>
        <time>2017-12-15T23:05:24Z</time>
      </trkpt>
      <trkpt lat="44.87353" lon="5.71316">
        <ele>660</ele>
        <time>2017-12-15T23:05:42Z</time>
      </trkpt>
      <trkpt lat="44.8733" lon="5.7137">
        <ele>646</ele>
        <time>2017-12-15T23:05:47Z</time>
      </trkpt>
      <trkpt lat="44.87321" lon="5.71413">
        <ele>649</ele>
        <time>2017-12-15T23:06:05Z</time>
      </trkpt>
      <trkpt lat="44.8732" lon="5.71462">
        <ele>648</ele>
        <time>2017-12-15T23:06:18Z</time>
      </trkpt>
      <trkpt lat="44.87324" lon="5.71495">
        <ele>651</ele>
        <time>2017-12-15T23:06:32Z</time>
      </trkpt>
      <trkpt lat="44.87331" lon="5.71526">
        <ele>650</ele>
        <time>2017-12-15T23:06:52Z</time>
      </trkpt>
      <trkpt lat="44.87344" lon="5.71572">
        <ele>661</ele>
        <time>2017-12-15T23:06:56Z</time>
      </trkpt>
      <trkpt lat="44.87355" lon="5.71612">
        <ele>665</ele>
        <time>2017-12-15T23:07:01Z</time>
      </trkpt>
      <trkpt lat="44.87359" lon="5.71642">
        <ele>666</ele>
        <time>2017-12-15T23:07:07Z</time>
      </trkpt>
      <trkpt lat="44.87355" lon="5.7167">
        <ele>667</ele>
        <time>2017-12-15T23:07:25Z</time>
      </trkpt>
      <trkpt lat="44.8734" lon="5.71726">
        <ele>668</ele>
        <time>2017-12-15T23:07:45Z</time>
      </trkpt>
      <trkpt lat="44.87328" lon="5.71776">
        <ele>660</ele>
        <time>2017-12-15T23:07:49Z</time>
      </trkpt>
      <trkpt lat="44.87327" lon="5.71804">
        <ele>661</ele>
        <time>2017-12-15T23:08:08Z</time>
      </trkpt>
      <trkpt lat="44.87332" lon="5.71832">
        <ele>665</ele>
        <time>2017-12-15T23:08:22Z</time>
      </trkpt>
      <trkpt lat="44.87358" lon="5.71897">
        <ele>671</ele>
        <time>2017-12-15T23:08:42Z</time>
      </trkpt>
      <trkpt lat="44.87399" lon="5.71994">
        <ele>672</ele>
        <time>2017-12-15T23:08:58Z</time>
      </trkpt>
      <trkpt lat="44.87404" lon="5.72009">
        <ele>671</ele>
        <time>2017-12-15T23:09:03Z</time>
      </trkpt>
      <trkpt lat="44.87411" lon="5.72041">
        <ele>670</ele>
        <time>2017-12-15T23:09:11Z</time>
      </trkpt>
      <trkpt lat="44.87424" lon="5.72131">
        <ele>681</ele>
        <time>2017-12-15T23:09:19Z</time>
      </trkpt>
      <trkpt lat="44.87425" lon="5.7215">
        <ele>679</ele>
        <time>2017-12-15T23:09:27Z</time>
      </trkpt>
      <trkpt lat="44.87421" lon="5.72189">
        <ele>681</ele>
        <time>2017-12-15T23:09:32Z</time>
      </trkpt>
      <trkpt lat="44.87412" lon="5.72252">
        <ele>681</ele>
        <time>2017-12-15T23:09:46Z</time>
      </trkpt>
      <trkpt lat="44.87402" lon="5.72276">
        <ele>680</ele>
        <time>2017-12-15T23:09:51Z</time>
      </trkpt>
      <trkpt lat="44.87376" lon="5.72317">
        <ele>680</ele>
        <time>2017-12-15T23:09:55Z</time>
      </trkpt>
      <trkpt lat="44.87357" lon="5.72348">
        <ele>683</ele>
        <time>2017-12-15T23:10:06Z</time>
      </trkpt>
      <trkpt lat="44.87354" lon="5.72356">
        <ele>683</ele>
        <time>2017-12-15T23:10:19Z</time>
      </trkpt>
      <trkpt lat="44.87355" lon="5.72387">
        <ele>683</ele>
        <time>2017-12-15T23:10:35Z</time>
      </trkpt>
      <trkpt lat="44.87361" lon="5.72442">
        <ele>683</ele>
        <time>2017-12-15T23:10:42Z</time>
      </trkpt>
      <trkpt lat="44.87365" lon="5.7245">
        <ele>683</ele>
        <time>2017-12-15T23:10:50Z</time>
      </trkpt>
      <trkpt lat="44.87373" lon="5.72459">
        <ele>684</ele>
        <time>2017-12-15T23:11:00Z</time>
      </trkpt>
      <trkpt lat="44.87391" lon="5.72465">
        <ele>684</ele>
        <time>2017-12-15T23:11:12Z</time>
      </trkpt>
      <trkpt lat="44.87408" lon="5.72466">
        <ele>685</ele>
        <time>2017-12-15T23:11:17Z</time>
      </trkpt>
      <trkpt lat="44.87418" lon="5.7247">
        <ele>691</ele>
        <time>2017-12-15T23:11:34Z</time>
      </trkpt>
      <trkpt lat="44.87433" lon="5.72486">
        <ele>690</ele>
        <time>2017-12-15T23:11:50Z</time>
      </trkpt>
      <trkpt lat="44.87481" lon="5.72585">
        <ele>688</ele>
        <time>2017-12-15T23:11:54Z</time>
      </trkpt>
      <trkpt lat="44.87489" lon="5.72602">
        <ele>687</ele>
        <time>2017-12-15T23:12:14Z</time>
      </trkpt>
      <trkpt lat="44.87515" lon="5.72661">
        <ele>691</ele>
        <time>2017-12-15T23:12:29Z</time>
      </trkpt>
      <trkpt lat="44.87529" lon="5.72703">
        <ele>694</ele>
        <time>2017-12-15T23:12:40Z</time>
      </trkpt>
      <trkpt lat="44.87532" lon="5.72718">
        <ele>694</ele>
        <time>2017-12-15T23:12:49Z</time>
      </trkpt>
      <trkpt lat="44.87532" lon="5.72737">
        <ele>694</ele>
        <time>2017-12-15T23:12:52Z</time>
      </trkpt>
      <trkpt lat="44.87527" lon="5.72753">
        <ele>697</ele>
        <time>2017-12-15T23:12:58Z</time>
      </trkpt>
      <trkpt lat="44.87492" lon="5.72805">
        <ele>684</ele>
        <time>2017-12-15T23:13:00Z</time>
      </trkpt>
      <trkpt lat="44.87475" lon="5.72828">
        <ele>684</ele>
        <time>2017-12-15T23:13:11Z</time>
      </trkpt>
      <trkpt lat="44.87427" lon="5.72908">
        <ele>680</ele>
        <time>2017-12-15T23:13:14Z</time>
      </trkpt>
      <trkpt lat="44.8742" lon="5.72922">
        <ele>676</ele>
        <time>2017-12-15T23:13:32Z</time>
      </trkpt>
      <trkpt lat="44.8742" lon="5.7293">
        <ele>677</ele>
        <time>2017-12-15T23:13:35Z</time>
      </trkpt>
      <trkpt lat="44.87422" lon="5.72939">
        <ele>677</ele>
        <time>2017-12-15T23:13:43Z</time>
      </trkpt>
      <trkpt lat="44.87427" lon="5.72948">
        <ele>676</ele>
        <time>2017-12-15T23:14:00Z</time>
      </trkpt>
      <trkpt lat="44.87443" lon="5.72964">
        <ele>676</ele>
        <time>2017-12-15T23:14:13Z</time>
      </trkpt>
      <trkpt lat="44.8748" lon="5.72986">
        <ele>679</ele>
        <time>2017-12-15T23:14:15Z</time>
      </trkpt>
      <trkpt lat="44.87502" lon="5.72995">
        <ele>681</ele>
        <time>2017-12-15T23:14:25Z</time>
      </trkpt>
      <trkpt lat="44.87523" lon="5.72995">
        <ele>686</ele>
        <time>2017-12-15T23:14:41Z</time>
      </trkpt>
      <trkpt lat="44.87603" lon="5.72978">
        <ele>687</ele>
        <time>2017-12-15T23:14:45Z</time>
      </trkpt>
      <trkpt lat="44.87627" lon="5.72972">
        <ele>689</ele>
        <time>2017-12-15T23:14:54Z</time>
      </trkpt>
      <trkpt lat="44.87639" lon="5.72967">
        <ele>689</ele>
        <time>2017-12-15T23:15:00Z</time>
      </trkpt>
      <trkpt lat="44.87656" lon="5.72961">
        <ele>690</ele>
        <time>2017-12-15T23:15:04Z</time>
      </trkpt>
      <trkpt lat="44.87674" lon="5.72964">
        <ele>688</ele>
        <time>2017-12-15T23:15:21Z</time>
      </trkpt>
      <trkpt lat="44.87712" lon="5.72962">
        <ele>690</ele>
        <time>2017-12-15T23:15:40Z</time>
      </trkpt>
      <trkpt lat="44.87743" lon="5.72962">
        <ele>690</ele>
        <time>2017-12-15T23:15:44Z</time>
      </trkpt>
      <trkpt lat="44.87805" lon="5.72974">
        <ele>695</ele>
        <time>2017-12-15T23:15:50Z</time>
      </trkpt>
      <trkpt lat="44.8783" lon="5.72982">
        <ele>693</ele>
        <time>2017-12-15T23:15:57Z</time>
      </trkpt>
      <trkpt lat="44.87845" lon="5.7299">
        <ele>697</ele>
        <time>2017-12-15T23:16:15Z</time>
      </trkpt>
      <trkpt lat="44.87862" lon="5.73005">
        <ele>697</ele>
        <time>2017-12-15T23:16:18Z</time>
      </trkpt>
      <trkpt lat="44.87864" lon="5.73014">
        <ele>698</ele>
        <time>2017-12-15T23:16:32Z</time>
      </trkpt>
      <trkpt lat="44.87862" lon="5.7303">
        <ele>698</ele>
        <time>2017-12-15T23:16:49Z</time>
      </trkpt>
      <trkpt lat="44.87846" lon="5.73051">
        <ele>697</ele>
        <time>2017-12-15T23:17:06Z</time>
      </trkpt>
      <trkpt lat="44.87832" lon="5.73063">
        <ele>687</ele>
        <time>2017-12-15T23:17:11Z</time>
      </trkpt>
      <trkpt lat="44.8781" lon="5.73069">
        <ele>685</ele>
        <time>2017-12-15T23:17:30Z</time>
      </trkpt>
      <trkpt lat="44.87773" lon="5.73072">
        <ele>681</ele>
        <time>2017-12-15T23:17:42Z</time>
      </trkpt>
      <trkpt lat="44.87764" lon="5.73076">
        <ele>680</ele>
        <time>2017-12-15T23:17:52Z</time>
      </trkpt>
      <trkpt lat="44.87753" lon="5.73086">
        <ele>681</ele>
        <time>2017-12-15T23:18:02Z</time>
      </trkpt>
      <trkpt lat="44.87726" lon="5.7313">
        <ele>680</ele>
        <time>2017-12-15T23:18:16Z</time>
      </trkpt>
      <trkpt lat="44.87705" lon="5.73164">
        <ele>679</ele>
        <time>2017-12-15T23:18:26Z</time>
      </trkpt>
      <trkpt lat="44.877" lon="5.73179">
        <ele>686</ele>
        <time>2017-12-15T23:18:32Z</time>
      </trkpt>
      <trkpt lat="44.87698" lon="5.73203">
        <ele>687</ele>
        <time>2017-12-15T23:18:40Z</time>
      </trkpt>
      <trkpt lat="44.87698" lon="5.73249">
        <ele>687</ele>
        <time>2017-12-15T23:18:49Z</time>
      </trkpt>
      <trkpt lat="44.87697" lon="5.73265">
        <ele>692</ele>
        <time>2017-12-15T23:18:51Z</time>
      </trkpt>
      <trkpt lat="44.87693" lon="5.73279">
        <ele>692</ele>
        <time>2017-12-15T23:19:10Z</time>
      </trkpt>
      <trkpt lat="44.87682" lon="5.73306">
        <ele>692</ele>
        <time>2017-12-15T23:19:20Z</time>
      </trkpt>
      <trkpt lat="44.8768" lon="5.73315">
        <ele>691</ele>
        <time>2017-12-15T23:19:29Z</time>
      </trkpt>
      <trkpt lat="44.8768" lon="5.73346">
        <ele>694</ele>
        <time>2017-12-15T23:19:48Z</time>
      </trkpt>
      <trkpt lat="44.87678" lon="5.73376">
        <ele>698</ele>
        <time>2017-12-15T23:19:55Z</time>
      </trkpt>
      <trkpt lat="44.87672" lon="5.73388">
        <ele>697</ele>
        <time>2017-12-15T23:20:12Z</time>
      </trkpt>
      <trkpt lat="44.87649" lon="5.73406">
        <ele>685</ele>
        <time>2017-12-15T23:20:20Z</time>
      </trkpt>
      <trkpt lat="44.8764" lon="5.73418">
        <ele>690</ele>
        <time>2017-12-15T23:20:36Z</time>
      </trkpt>
      <trkpt lat="44.87634" lon="5.73432">
        <ele>690</ele>
        <time>2017-12-15T23:20:49Z</time>
      </trkpt>
      <trkpt lat="44.87626" lon="5.73475">
        <ele>692</ele>
        <time>2017-12-15T23:20:55Z</time>
      </trkpt>
      <trkpt lat="44.87616" lon="5.73506">
        <ele>700</ele>
        <time>2017-12-15T23:21:10Z</time>
      </trkpt>
      <trkpt lat="44.87609" lon="5.73512">
        <ele>700</ele>
        <time>2017-12-15T23:21:27Z</time>
      </trkpt>
      <trkpt lat="44.87599" lon="5.73515">
        <ele>699</ele>
        <time>2017-12-15T23:21:30Z</time>
      </trkpt>
      <trkpt lat="44.8759" lon="5.73512">
        <ele>698</ele>
        <time>2017-12-15T23:21:41Z</time>
      </trkpt>
      <trkpt lat="44.87578" lon="5.73499">
        <ele>694</ele>
        <time>2017-12-15T23:21:44Z</time>
      </trkpt>
      <trkpt lat="44.8755" lon="5.73457">
        <ele>688</ele>
        <time>2017-12-15T23:22:04Z</time>
      </trkpt>
      <trkpt lat="44.87541" lon="5.73445">
        <ele>687</ele>
        <time>2017-12-15T23:22:12Z</time>
      </trkpt>
      <trkpt lat="44.87528" lon="5.73438">
        <ele>687</ele>
        <time>2017-12-15T23:22:22Z</time>
      </trkpt>
      <trkpt lat="44.87516" lon="5.73437">
        <ele>686</ele>
        <time>2017-12-15T23:22:24Z</time>
      </trkpt>
      <trkpt lat="44.87501" lon="5.7344">
        <ele>686</ele>
        <time>2017-12-15T23:22:37Z</time>
      </trkpt>
      <trkpt lat="44.87482" lon="5.73454">
        <ele>685</ele>
        <time>2017-12-15T23:22:57Z</time>
      </trkpt>
      <trkpt lat="44.87452" lon="5.73483">
        <ele>685</ele>
        <time>2017-12-15T23:23:05Z</time>
      </trkpt>
      <trkpt lat="44.8742" lon="5.7352">
        <ele>692</ele>
        <time>2017-12-15T23:23:21Z</time>
      </trkpt>
      <trkpt lat="44.87352" lon="5.73593">
        <ele>696</ele>
        <time>2017-12-15T23:23:34Z</time>
      </trkpt>
      <trkpt lat="44.87318" lon="5.73641">
        <ele>688</ele>
        <time>2017-12-15T23:23:48Z</time>
      </trkpt>
      <trkpt lat="44.87313" lon="5.7365">
        <ele>689</ele>
        <time>2017-12-15T23:24:08Z</time>
      </trkpt>
      <trkpt lat="44.87299" lon="5.73692">
        <ele>693</ele>
        <time>2017-12-15T23:24:21Z</time>
      </trkpt>
      <trkpt lat="44.87289" lon="5.73788">
        <ele>699</ele>
        <time>2017-12-15T23:24:41Z</time>
      </trkpt>
      <trkpt lat="44.87273" lon="5.73923">
        <ele>707</ele>
        <time>2017-12-15T23:24:54Z</time>
      </trkpt>
      <trkpt lat="44.8727" lon="5.73959">
        <ele>709</ele>
        <time>2017-12-15T23:25:14Z</time>
      </trkpt>
      <trkpt lat="44.8727" lon="5.73988">
        <ele>709</ele>
        <time>2017-12-15T23:25:23Z</time>
      </trkpt>
      <trkpt lat="44.87276" lon="5.7408">
        <ele>711</ele>
        <time>2017-12-15T23:25:42Z</time>
      </trkpt>
      <trkpt lat="44.87278" lon="5.74118">
        <ele>713</ele>
        <time>2017-12-15T23:25:49Z</time>
      </trkpt>
      <trkpt lat="44.87281" lon="5.74166">
        <ele>713</ele>
        <time>2017-12-15T23:26:08Z</time>
      </trkpt>
      <trkpt lat="44.87285" lon="5.74186">
        <ele>713</ele>
        <time>2017-12-15T23:26:19Z</time>
      </trkpt>
      <trkpt lat="44.87293" lon="5.74206">
        <ele>714</ele>
        <time>2017-12-15T23:26:30Z</time>
      </trkpt>
      <trkpt lat="44.87306" lon="5.74225">
        <ele>715</ele>
        <time>2017-12-15T23:26:33Z</time>
      </trkpt>
      <trkpt lat="44.8733" lon="5.74251">
        <ele>718</ele>
        <time>2017-12-15T23:26:41Z</time>
      </trkpt>
      <trkpt lat="44.87346" lon="5.7427">
        <ele>722</ele>
        <time>2017-12-15T23:26:58Z</time>
      </trkpt>
      <trkpt lat="44.87358" lon="5.74278">
        <ele>723</ele>
        <time>2017-12-15T23:27:18Z</time>
      </trkpt>
      <trkpt lat="44.87388" lon="5.74282">
        <ele>726</ele>
        <time>2017-12-15T23:27:36Z</time>
      </trkpt>
      <trkpt lat="44.87402" lon="5.74288">
        <ele>727</ele>
        <time>2017-12-15T23:27:52Z</time>
      </trkpt>
      <trkpt lat="44.87414" lon="5.743">
        <ele>727</ele>
        <time>2017-12-15T23:28:01Z</time>
      </trkpt>
      <trkpt lat="44.8742" lon="5.74315">
        <ele>736</ele>
        <time>2017-12-15T23:28:21Z</time>
      </trkpt>
      <trkpt lat="44.87422" lon="5.74334">
        <ele>734</ele>
        <time>2017-12-15T23:28:40Z</time>
      </trkpt>
      <trkpt lat="44.87421" lon="5.74352">
        <ele>740</ele>
        <time>2017-12-15T23:29:00Z</time>
      </trkpt>
      <trkpt lat="44.87415" lon="5.74369">
        <ele>727</ele>
        <time>2017-12-15T23:29:19Z</time>
      </trkpt>
      <trkpt lat="44.8738" lon="5.74437">
        <ele>731</ele>
        <time>2017-12-15T23:29:24Z</time>
      </trkpt>
      <trkpt lat="44.87372" lon="5.74454">
        <ele>731</ele>
        <time>2017-12-15T23:29:28Z</time>
      </trkpt>
      <trkpt lat="44.87368" lon="5.74474">
        <ele>731</ele>
        <time>2017-12-15T23:29:43Z</time>
      </trkpt>
      <trkpt lat="44.8737" lon="5.74519">
        <ele>735</ele>
        <time>2017-12-15T23:29:59Z</time>
      </trkpt>
      <trkpt lat="44.87375" lon="5.74569">
        <ele>735</ele>
        <time>2017-12-15T23:30:12Z</time>
      </trkpt>
      <trkpt lat="44.87397" lon="5.74658">
        <ele>738</ele>
        <time>2017-12-15T23:30:29Z</time>
      </trkpt>
      <trkpt lat="44.8741" lon="5.74697">
        <ele>737</ele>
        <time>2017-12-15T23:30:40Z</time>
      </trkpt>
      <trkpt lat="44.87413" lon="5.74719">
        <ele>737</ele>
        <time>2017-12-15T23:30:47Z</time>
      </trkpt>
      <trkpt lat="44.87412" lon="5.74743">
        <ele>743</ele>
        <time>2017-12-15T23:30:59Z</time>
      </trkpt>
      <trkpt lat="44.874" lon="5.74813">
        <ele>740</ele>
        <time>2017-12-15T23:31:09Z</time>
      </trkpt>
      <trkpt lat="44.87396" lon="5.74841">
        <ele>740</ele>
        <time>2017-12-15T23:31:12Z</time>
      </trkpt>
      <trkpt lat="44.87397" lon="5.7486">
        <ele>738</ele>
        <time>2017-12-15T23:31:28Z</time>
      </trkpt>
      <trkpt lat="44.87405" lon="5.7489">
        <ele>738</ele>
        <time>2017-12-15T23:31:45Z</time>
      </trkpt>
      <trkpt lat="44.87416" lon="5.74909">
        <ele>745</ele>
        <time>2017-12-15T23:32:04Z</time>
      </trkpt>
      <trkpt lat="44.87435" lon="5.74931">
        <ele>751</ele>
        <time>2017-12-15T23:32:07Z</time>
      </trkpt>
      <trkpt lat="44.87466" lon="5.74968">
        <ele>753</ele>
        <time>2017-12-15T23:32:16Z</time>
      </trkpt>
      <trkpt lat="44.87479" lon="5.7498">
        <ele>753</ele>
        <time>2017-12-15T23:32:35Z</time>
      </trkpt>
      <trkpt lat="44.87544" lon="5.75021">
        <ele>760</ele>
        <time>2017-12-15T23:32:41Z</time>
      </trkpt>
      <trkpt lat="44.87583" lon="5.75052">
        <ele>760</ele>
        <time>2017-12-15T23:32:54Z</time>
      </trkpt>
      <trkpt lat="44.87603" lon="5.75078">
        <ele>775</ele>
        <time>2017-12-15T23:33:04Z</time>
      </trkpt>
      <trkpt lat="44.87661" lon="5.75154">
        <ele>762</ele>
        <time>2017-12-15T23:33:17Z</time>
      </trkpt>
      <trkpt lat="44.87679" lon="5.75176">
        <ele>767</ele>
        <time>2017-12-15T23:33:25Z</time>
      </trkpt>
      <trkpt lat="44.87703" lon="5.75199">
        <ele>771</ele>
        <time>2017-12-15T23:33:44Z</time>
      </trkpt>
      <trkpt lat="44.87741" lon="5.75235">
        <ele>772</ele>
        <time>2017-12-15T23:33:58Z</time>
      </trkpt>
      <trkpt lat="44.87774" lon="5.75259">
        <ele>778</ele>
        <time>2017-12-15T23:34:00Z</time>
      </trkpt>
      <trkpt lat="44.87813" lon="5.75298">
        <ele>780</ele>
        <time>2017-12-15T23:34:14Z</time>
      </trkpt>
      <trkpt lat="44.87833" lon="5.75313">
        <ele>779</ele>
        <time>2017-12-15T23:34:22Z</time>
      </trkpt>
      <trkpt lat="44.87864" lon="5.75328">
        <ele>790</ele>
        <time>2017-12-15T23:34:40Z</time>
      </trkpt>
      <trkpt lat="44.87872" lon="5.75341">
        <ele>792</ele>
        <time>2017-12-15T23:34:51Z</time>
      </trkpt>
      <trkpt lat="44.87874" lon="5.75356">
        <ele>794</ele>
        <time>2017-12-15T23:35:05Z</time>
      </trkpt>
      <trkpt lat="44.87873" lon="5.75364">
        <ele>795</ele>
        <time>2017-12-15T23:35:20Z</time>
      </trkpt>
      <trkpt lat="44.8787" lon="5.7537">
        <ele>795</ele>
        <time>2017-12-15T23:35:37Z</time>
      </trkpt>
      <trkpt lat="44.87859" lon="5.75376">
        <ele>795</ele>
        <time>2017-12-15T23:35:39Z</time>
      </trkpt>
      <trkpt lat="44.87799" lon="5.75389">
        <ele>788</ele>
        <time>2017-12-15T23:35:50Z</time>
      </trkpt>
      <trkpt lat="44.87751" lon="5.75401">
        <ele>789</ele>
        <time>2017-12-15T23:36:06Z</time>
      </trkpt>
      <trkpt lat="44.87699" lon="5.75428">
        <ele>799</ele>
        <time>2017-12-15T23:36:22Z</time>
      </trkpt>
      <trkpt lat="44.87673" lon="5.75435">
        <ele>794</ele>
        <time>2017-12-15T23:36:25Z</time>
      </trkpt>
      <trkpt lat="44.87649" lon="5.75438">
        <ele>790</ele>
        <time>2017-12-15T23:36:34Z</time>
      </trkpt>
      <trkpt lat="44.87618" lon="5.75439">
        <ele>790</ele>
        <time>2017-12-15T23:36:54Z</time>
      </trkpt>
      <trkpt lat="44.87607" lon="5.75442">
        <ele>789</ele>
        <time>2017-12-15T23:36:56Z</time>
      </trkpt>
      <trkpt lat="44.87592" lon="5.75451">
        <ele>791</ele>
        <time>2017-12-15T23:37:04Z</time>
      </trkpt>
      <trkpt lat="44.87555" lon="5.75477">
        <ele>781</ele>
        <time>2017-12-15T23:37:17Z</time>
      </trkpt>
      <trkpt lat="44.87547" lon="5.75485">
        <ele>780</ele>
        <time>2017-12-15T23:37:29Z</time>
      </trkpt>
      <trkpt lat="44.87544" lon="5.75491">
        <ele>779</ele>
        <time>2017-12-15T23:37:38Z</time>
      </trkpt>
      <trkpt lat="44.87543" lon="5.755">
        <ele>780</ele>
        <time>2017-12-15T23:37:42Z</time>
      </trkpt>
      <trkpt lat="44.87544" lon="5.75509">
        <ele>788</ele>
        <time>2017-12-15T23:37:48Z</time>
      </trkpt>
      <trkpt lat="44.87553" lon="5.7553">
        <ele>791</ele>
        <time>2017-12-15T23:37:53Z</time>
      </trkpt>
      <trkpt lat="44.87557" lon="5.75546">
        <ele>792</ele>
        <time>2017-12-15T23:38:05Z</time>
      </trkpt>
      <trkpt lat="44.87557" lon="5.7556">
        <ele>794</ele>
        <time>2017-12-15T23:38:14Z</time>
      </trkpt>
      <trkpt lat="44.87555" lon="5.75594">
        <ele>791</ele>
        <time>2017-12-15T23:38:32Z</time>
      </trkpt>
      <trkpt lat="44.87558" lon="5.75615">
        <ele>789</ele>
        <time>2017-12-15T23:38:43Z</time>
      </trkpt>
      <trkpt lat="44.87565" lon="5.75631">
        <ele>789</ele>
        <time>2017-12-15T23:38:46Z</time>
      </trkpt>
      <trkpt lat="44.8758" lon="5.7567">
        <ele>801</ele>
        <time>2017-12-15T23:39:01Z</time>
      </trkpt>
      <trkpt lat="44.87606" lon="5.75763">
        <ele>806</ele>
        <time>2017-12-15T23:39:18Z</time>
      </trkpt>
      <trkpt lat="44.87633" lon="5.75842">
        <ele>799</ele>
        <time>2017-12-15T23:39:25Z</time>
      </trkpt>
      <trkpt lat="44.87642" lon="5.75854">
        <ele>801</ele>
        <time>2017-12-15T23:39:45Z</time>
      </trkpt>
      <trkpt lat="44.87655" lon="5.75865">
        <ele>802</ele>
        <time>2017-12-15T23:39:58Z</time>
      </trkpt>
      <trkpt lat="44.87669" lon="5.75876">
        <ele>826</ele>
        <time>2017-12-15T23:40:05Z</time>
      </trkpt>
      <trkpt lat="44.87685" lon="5.75893">
        <ele>824</ele>
        <time>2017-12-15T23:40:20Z</time>
      </trkpt>
      <trkpt lat="44.8774" lon="5.75962">
        <ele>818</ele>
        <time>2017-12-15T23:40:39Z</time>
      </trkpt>
      <trkpt lat="44.8775" lon="5.75981">
        <ele>819</ele>
        <time>2017-12-15T23:40:42Z</time>
      </trkpt>
      <trkpt lat="44.87753" lon="5.76012">
        <ele>831</ele>
        <time>2017-12-15T23:40:50Z</time>
      </trkpt>
      <trkpt lat="44.87756" lon="5.76046">
        <ele>834</ele>
        <time>2017-12-15T23:40:53Z</time>
      </trkpt>
      <trkpt lat="44.87763" lon="5.76089">
        <ele>823</ele>
        <time>2017-12-15T23:40:59Z</time>
      </trkpt>
      <trkpt lat="44.87774" lon="5.76133">
        <ele>829</ele>
        <time>2017-12-15T23:41:16Z</time>
      </trkpt>
      <trkpt lat="44.87782" lon="5.76191">
        <ele>825</ele>
        <time>2017-12-15T23:41:34Z</time>
      </trkpt>
      <trkpt lat="44.87781" lon="5.7625">
        <ele>818</ele>
        <time>2017-12-15T23:41:49Z</time>
      </trkpt>
      <trkpt lat="44.87784" lon="5.76277">
        <ele>818</ele>
        <time>2017-12-15T23:42:03Z</time>
      </trkpt>
      <trkpt lat="44.87791" lon="5.76303">
        <ele>818</ele>
        <time>2017-12-15T23:42:08Z</time>
      </trkpt>
      <trkpt lat="44.87805" lon="5.76336">
        <ele>815</ele>
        <time>2017-12-15T23:42:18Z</time>
      </trkpt>
      <trkpt lat="44.87819" lon="5.76358">
        <ele>816</ele>
        <time>2017-12-15T23:42:21Z</time>
      </trkpt>
      <trkpt lat="44.87849" lon="5.76399">
        <ele>827</ele>
        <time>2017-12-15T23:42:36Z</time>
      </trkpt>
      <trkpt lat="44.87883" lon="5.7644">
        <ele>825</ele>
        <time>2017-12-15T23:42:54Z</time>
      </trkpt>
      <trkpt lat="44.87949" lon="5.76516">
        <ele>827</ele>
        <time>2017-12-15T23:42:57Z</time>
      </trkpt>
      <trkpt lat="44.87966" lon="5.76536">
        <ele>828</ele>
        <time>2017-12-15T23:43:01Z</time>
      </trkpt>
      <trkpt lat="44.87988" lon="5.76556">
        <ele>829</ele>
        <time>2017-12-15T23:43:14Z</time>
      </trkpt>
      <trkpt lat="44.8801" lon="5.76571">
        <ele>838</ele>
        <time>2017-12-15T23:43:16Z</time>
      </trkpt>
      <trkpt lat="44.88047" lon="5.76593">
        <ele>832</ele>
        <time>2017-12-15T23:43:27Z</time>
      </trkpt>
      <trkpt lat="44.88076" lon="5.76607">
        <ele>834</ele>
        <time>2017-12-15T23:43:30Z</time>
      </trkpt>
      <trkpt lat="44.88102" lon="5.76624">
        <ele>839</ele>
        <time>2017-12-15T23:43:48Z</time>
      </trkpt>
      <trkpt lat="44.88142" lon="5.76645">
        <ele>837</ele>
        <time>2017-12-15T23:44:08Z</time>
      </trkpt>
      <trkpt lat="44.88169" lon="5.76648">
        <ele>833</ele>
        <time>2017-12-15T23:44:12Z</time>
      </trkpt>
      <trkpt lat="44.88182" lon="5.76647">
        <ele>833</ele>
        <time>2017-12-15T23:44:32Z</time>
      </trkpt>
      <trkpt lat="44.88189" lon="5.76643">
        <ele>833</ele>
        <time>2017-12-15T23:44:41Z</time>
      </trkpt>
      <trkpt lat="44.88196" lon="5.76636">
        <ele>834</ele>
        <time>2017-12-15T23:44:51Z</time>
      </trkpt>
      <trkpt lat="44.88206" lon="5.76619">
        <ele>836</ele>
        <time>2017-12-15T23:45:10Z</time>
      </trkpt>
      <trkpt lat="44.88224" lon="5.76585">
        <ele>840</ele>
        <time>2017-12-15T23:45:29Z</time>
      </trkpt>
      <trkpt lat="44.88234" lon="5.76574">
        <ele>853</ele>
        <time>2017-12-15T23:45:38Z</time>
      </trkpt>
      <trkpt lat="44.88265" lon="5.76547">
        <ele>844</ele>
        <time>2017-12-15T23:45:47Z</time>
      </trkpt>
      <trkpt lat="44.88318" lon="5.76505">
        <ele>843</ele>
        <time>2017-12-15T23:45:52Z</time>
      </trkpt>
      <trkpt lat="44.88372" lon="5.76443">
        <ele>846</ele>
        <time>2017-12-15T23:46:08Z</time>
      </trkpt>
      <trkpt lat="44.88379" lon="5.7643">
        <ele>846</ele>
        <time>2017-12-15T23:46:22Z</time>
      </trkpt>
      <trkpt lat="44.88386" lon="5.7642">
        <ele>846</ele>
        <time>2017-12-15T23:46:27Z</time>
      </trkpt>
      <trkpt lat="44.88403" lon="5.76416">
        <ele>856</ele>
        <time>2017-12-15T23:46:44Z</time>
      </trkpt>
      <trkpt lat="44.88417" lon="5.7641">
        <ele>845</ele>
        <time>2017-12-15T23:46:59Z</time>
      </trkpt>
      <trkpt lat="44.88428" lon="5.76397">
        <ele>846</ele>
        <time>2017-12-15T23:47:18Z</time>
      </trkpt>
      <trkpt lat="44.88445" lon="5.76395">
        <ele>845</ele>
        <time>2017-12-15T23:47:24Z</time>
      </trkpt>
      <trkpt lat="44.88462" lon="5.76387">
        <ele>843</ele>
        <time>2017-12-15T23:47:43Z</time>
      </trkpt>
      <trkpt lat="44.88476" lon="5.76378">
        <ele>843</ele>
        <time>2017-12-15T23:47:48Z</time>
      </trkpt>
      <trkpt lat="44.88493" lon="5.76356">
        <ele>846</ele>
        <time>2017-12-15T23:48:02Z</time>
      </trkpt>
      <trkpt lat="44.88502" lon="5.76337">
        <ele>846</ele>
        <time>2017-12-15T23:48:04Z</time>
      </trkpt>
      <trkpt lat="44.8851" lon="5.76311">
        <ele>849</ele>
        <time>2017-12-15T23:48:22Z</time>
      </trkpt>
      <trkpt lat="44.88523" lon="5.76257">
        <ele>852</ele>
        <time>2017-12-15T23:48:38Z</time>
      </trkpt>
      <trkpt lat="44.88537" lon="5.76228">
        <ele>856</ele>
        <time>2017-12-15T23:48:42Z</time>
      </trkpt>
      <trkpt lat="44.88568" lon="5.76195">
        <ele>855</ele>
        <time>2017-12-15T23:48:53Z</time>
      </trkpt>
      <trkpt lat="44.88608" lon="5.76158">
        <ele>854</ele>
        <time>2017-12-15T23:49:11Z</time>
      </trkpt>
      <trkpt lat="44.88624" lon="5.76144">
        <ele>854</ele>
        <time>2017-12-15T23:49:17Z</time>
      </trkpt>
      <trkpt lat="44.88642" lon="5.7613">
        <ele>854</ele>
        <time>2017-12-15T23:49:37Z</time>
      </trkpt>
      <trkpt lat="44.88658" lon="5.76125">
        <ele>855</ele>
        <time>2017-12-15T23:49:41Z</time>
      </trkpt>
      <trkpt lat="44.88667" lon="5.76127">
        <ele>856</ele>
        <time>2017-12-15T23:49:57Z</time>
      </trkpt>
      <trkpt lat="44.88673" lon="5.76132">
        <ele>856</ele>
        <time>2017-12-15T23:49:59Z</time>
      </trkpt>
      <trkpt lat="44.88683" lon="5.76142">
        <ele>855</ele>
        <time>2017-12-15T23:50:17Z</time>
      </trkpt>
      <trkpt lat="44.88693" lon="5.76157">
        <ele>854</ele>
        <time>2017-12-15T23:50:23Z</time>
      </trkpt>
      <trkpt lat="44.88701" lon="5.76176">
        <ele>845</ele>
        <time>2017-12-15T23:50:36Z</time>
      </trkpt>
      <trkpt lat="44.88708" lon="5.76183">
        <ele>845</ele>
        <time>2017-12-15T23:50:55Z</time>
      </trkpt>
      <trkpt lat="44.88718" lon="5.76187">
        <ele>845</ele>
        <time>2017-12-15T23:51:13Z</time>
      </trkpt>
      <trkpt lat="44.88735" lon="5.76185">
        <ele>846</ele>
        <time>2017-12-15T23:51:15Z</time>
      </trkpt>
      <trkpt lat="44.88768" lon="5.76173">
        <ele>848</ele>
        <time>2017-12-15T23:51:29Z</time>
      </trkpt>
      <trkpt lat="44.88806" lon="5.76162">
        <ele>861</ele>
        <time>2017-12-15T23:51:49Z</time>
      </trkpt>
      <trkpt lat="44.88816" lon="5.76161">
        <ele>860</ele>
        <time>2017-12-15T23:52:06Z</time>
      </trkpt>
      <trkpt lat="44.88828" lon="5.76163">
        <ele>857</ele>
        <time>2017-12-15T23:52:11Z</time>
      </trkpt>
      <trkpt lat="44.88849" lon="5.76172">
        <ele>852</ele>
        <time>2017-12-15T23:52:15Z</time>
      </trkpt>
      <trkpt lat="44.88869" lon="5.76179">
        <ele>851</ele>
        <time>2017-12-15T23:52:18Z</time>
      </trkpt>
      <trkpt lat="44.88877" lon="5.76182">
        <ele>852</ele>
        <time>2017-12-15T23:52:28Z</time>
      </trkpt>
      <trkpt lat="44.88885" lon="5.76188">
        <ele>852</ele>
        <time>2017-12-15T23:52:43Z</time>
      </trkpt>
      <trkpt lat="44.88893" lon="5.76199">
        <ele>851</ele>
        <time>2017-12-15T23:53:01Z</time>
      </trkpt>
      <trkpt lat="44.88898" lon="5.76218">
        <ele>850</ele>
        <time>2017-12-15T23:53:12Z</time>
      </trkpt>
      <trkpt lat="44.88894" lon="5.76252">
        <ele>844</ele>
        <time>2017-12-15T23:53:27Z</time>
      </trkpt>
      <trkpt lat="44.88887" lon="5.76305">
        <ele>840</ele>
        <time>2017-12-15T23:53:37Z</time>
      </trkpt>
      <trkpt lat="44.88893" lon="5.76328">
        <ele>840</ele>
        <time>2017-12-15T23:53:46Z</time>
      </trkpt>
      <trkpt lat="44.88901" lon="5.7634">
        <ele>836</ele>
        <time>2017-12-15T23:53:50Z</time>
      </trkpt>
      <trkpt lat="44.88909" lon="5.76348">
        <ele>836</ele>
        <time>2017-12-15T23:54:06Z</time>
      </trkpt>
      <trkpt lat="44.88927" lon="5.76351">
        <ele>840</ele>
        <time>2017-12-15T23:54:08Z</time>
      </trkpt>
      <trkpt lat="44.88941" lon="5.76349">
        <ele>839</ele>
        <time>2017-12-15T23:54:14Z</time>
      </trkpt>
      <trkpt lat="44.88961" lon="5.76341">
        <ele>839</ele>
        <time>2017-12-15T23:54:20Z</time>
      </trkpt>
      <trkpt lat="44.8898" lon="5.7633">
        <ele>847</ele>
        <time>2017-12-15T23:54:32Z</time>
      </trkpt>
      <trkpt lat="44.88993" lon="5.7632">
        <ele>847</ele>
        <time>2017-12-15T23:54:47Z</time>
      </trkpt>
      <trkpt lat="44.89005" lon="5.76307">
        <ele>847</ele>
        <time>2017-12-15T23:54:52Z</time>
      </trkpt>
      <trkpt lat="44.89014" lon="5.76296">
        <ele>848</ele>
        <time>2017-12-15T23:55:12Z</time>
      </trkpt>
      <trkpt lat="44.89042" lon="5.76256">
        <ele>849</ele>
        <time>2017-12-15T23:55:30Z</time>
      </trkpt>
      <trkpt lat="44.8906" lon="5.76235">
        <ele>857</ele>
        <time>2017-12-15T23:55:40Z</time>
      </trkpt>
      <trkpt lat="44.89082" lon="5.76216">
        <ele>859</ele>
        <time>2017-12-15T23:55:56Z</time>
      </trkpt>
      <trkpt lat="44.89115" lon="5.76185">
        <ele>856</ele>
        <time>2017-12-15T23:56:14Z</time>
      </trkpt>
      <trkpt lat="44.89128" lon="5.7617">
        <ele>855</ele>
        <time>2017-12-15T23:56:18Z</time>
      </trkpt>
      <trkpt lat="44.89135" lon="5.76159">
        <ele>865</ele>
        <time>2017-12-15T23:56:31Z</time>
      </trkpt>
      <trkpt lat="44.89148" lon="5.76151">
        <ele>863</ele>
        <time>2017-12-15T23:56:43Z</time>
      </trkpt>
      <trkpt lat="44.89157" lon="5.76149">
        <ele>862</ele>
        <time>2017-12-15T23:57:00Z</time>
      </trkpt>
      <trkpt lat="44.89184" lon="5.7616">
        <ele>857</ele>
        <time>2017-12-15T23:57:07Z</time>
      </trkpt>
      <trkpt lat="44.8929" lon="5.76216">
        <ele>856</ele>
        <time>2017-12-15T23:57:17Z</time>
      </trkpt>
      <trkpt lat="44.89297" lon="5.76223">
        <ele>856</ele>
        <time>2017-12-15T23:57:22Z</time>
      </trkpt>
      <trkpt lat="44.893" lon="5.76232">
        <ele>856</ele>
        <time>2017-12-15T23:57:38Z</time>
      </trkpt>
      <trkpt lat="44.893" lon="5.76236">
        <ele>856</ele>
        <time>2017-12-15T23:57:47Z</time>
      </trkpt>
      <trkpt lat="44.89294" lon="5.7625">
        <ele>854</ele>
        <time>2017-12-15T23:58:04Z</time>
      </trkpt>
      <trkpt lat="44.89267" lon="5.76293">
        <ele>853</ele>
        <time>2017-12-15T23:58:08Z</time>
      </trkpt>
      <trkpt lat="44.89261" lon="5.76307">
        <ele>854</ele>
        <time>2017-12-15T23:58:21Z</time>
      </trkpt>
      <trkpt lat="44.89256" lon="5.76324">
        <ele>853</ele>
        <time>2017-12-15T23:58:35Z</time>
      </trkpt>
      <trkpt lat="44.89255" lon="5.76348">
        <ele>854</ele>
        <time>2017-12-15T23:58:37Z</time>
      </trkpt>
      <trkpt lat="44.89258" lon="5.76368">
        <ele>855</ele>
        <time>2017-12-15T23:58:46Z</time>
      </trkpt>
      <trkpt lat="44.89269" lon="5.7639">
        <ele>855</ele>
        <time>2017-12-15T23:58:55Z</time>
      </trkpt>
      <trkpt lat="44.89293" lon="5.7642">
        <ele>856</ele>
        <time>2017-12-15T23:59:02Z</time>
      </trkpt>
      <trkpt lat="44.89321" lon="5.76512">
        <ele>858</ele>
        <time>2017-12-15T23:59:09Z</time>
      </trkpt>
      <trkpt lat="44.89324" lon="5.76585">
        <ele>857</ele>
        <time>2017-12-15T23:59:28Z</time>
      </trkpt>
      <trkpt lat="44.8932" lon="5.7664">
        <ele>852</ele>
        <time>2017-12-15T23:59:32Z</time>
      </trkpt>
      <trkpt lat="44.89319" lon="5.76672">
        <ele>852</ele>
        <time>2017-12-15T23:59:50Z</time>
      </trkpt>
      <trkpt lat="44.89324" lon="5.76698">
        <ele>848</ele>
        <time>2017-12-15T23:59:59Z</time>
      </trkpt>
      <trkpt lat="44.89333" lon="5.76725">
        <ele>847</ele>
        <time>2017-12-16T00:00:02Z</time>
      </trkpt>
      <trkpt lat="44.89347" lon="5.7676">
        <ele>852</ele>
        <time>2017-12-16T00:00:06Z</time>
      </trkpt>
      <trkpt lat="44.8936" lon="5.76777">
        <ele>852</ele>
        <time>2017-12-16T00:00:08Z</time>
      </trkpt>
      <trkpt lat="44.89401" lon="5.76807">
        <ele>853</ele>
        <time>2017-12-16T00:00:13Z</time>
      </trkpt>
      <trkpt lat="44.89452" lon="5.76839">
        <ele>854</ele>
        <time>2017-12-16T00:00:22Z</time>
      </trkpt>
      <trkpt lat="44.8948" lon="5.76857">
        <ele>855</ele>
        <time>2017-12-16T00:00:41Z</time>
      </trkpt>
      <trkpt lat="44.89531" lon="5.76887">
        <ele>861</ele>
        <time>2017-12-16T00:00:44Z</time>
      </trkpt>
      <trkpt lat="44.89556" lon="5.76913">
        <ele>863</ele>
        <time>2017-12-16T00:01:02Z</time>
      </trkpt>
      <trkpt lat="44.89583" lon="5.76962">
        <ele>853</ele>
        <time>2017-12-16T00:01:16Z</time>
      </trkpt>
      <trkpt lat="44.89601" lon="5.76997">
        <ele>861</ele>
        <time>2017-12-16T00:01:24Z</time>
      </trkpt>
      <trkpt lat="44.89632" lon="5.77037">
        <ele>855</ele>
        <time>2017-12-16T00:01:38Z</time>
      </trkpt>
      <trkpt lat="44.89666" lon="5.77071">
        <ele>854</ele>
        <time>2017-12-16T00:01:55Z</time>
      </trkpt>
      <trkpt lat="44.89724" lon="5.77127">
        <ele>849</ele>
        <time>2017-12-16T00:02:10Z</time>
      </trkpt>
      <trkpt lat="44.8975" lon="5.77149">
        <ele>853</ele>
        <time>2017-12-16T00:02:13Z</time>
      </trkpt>
      <trkpt lat="44.89767" lon="5.77155">
        <ele>853</ele>
        <time>2017-12-16T00:02:17Z</time>
      </trkpt>
      <trkpt lat="44.89809" lon="5.7716">
        <ele>855</ele>
        <time>2017-12-16T00:02:23Z</time>
      </trkpt>
      <trkpt lat="44.89875" lon="5.77166">
        <ele>859</ele>
        <time>2017-12-16T00:02:28Z</time>
      </trkpt>
      <trkpt lat="44.89912" lon="5.77173">
        <ele>858</ele>
        <time>2017-12-16T00:02:48Z</time>
      </trkpt>
      <trkpt lat="44.89931" lon="5.77184">
        <ele>859</ele>
        <time>2017-12-16T00:03:07Z</time>
      </trkpt>
      <trkpt lat="44.89979" lon="5.77222">
        <ele>859</ele>
        <time>2017-12-16T00:03:24Z</time>
      </trkpt>
      <trkpt lat="44.89994" lon="5.77241">
        <ele>859</ele>
        <time>2017-12-16T00:03:41Z</time>
      </trkpt>
      <trkpt lat="44.90006" lon="5.7726">
        <ele>859</ele>
        <time>2017-12-16T00:03:53Z</time>
      </trkpt>
      <trkpt lat="44.90034" lon="5.77314">
        <ele>859</ele>
        <time>2017-12-16T00:03:58Z</time>
      </trkpt>
      <trkpt lat="44.90069" lon="5.77407">
        <ele>858</ele>
        <time>2017-12-16T00:04:02Z</time>
      </trkpt>
      <trkpt lat="44.90109" lon="5.77579">
        <ele>860</ele>
        <time>2017-12-16T00:04:11Z</time>
      </trkpt>
      <trkpt lat="44.90113" lon="5.776">
        <ele>862</ele>
        <time>2017-12-16T00:04:31Z</time>
      </trkpt>
      <trkpt lat="44.90115" lon="5.77639">
        <ele>862</ele>
        <time>2017-12-16T00:04:45Z</time>
      </trkpt>
      <trkpt lat="44.90113" lon="5.77676">
        <ele>865</ele>
        <time>2017-12-16T00:05:00Z</time>
      </trkpt>
      <trkpt lat="44.90108" lon="5.77703">
        <ele>866</ele>
        <time>2017-12-16T00:05:05Z</time>
      </trkpt>
      <trkpt lat="44.90088" lon="5.77757">
        <ele>867</ele>
        <time>2017-12-16T00:05:22Z</time>
      </trkpt>
      <trkpt lat="44.90065" lon="5.77804">
        <ele>864</ele>
        <time>2017-12-16T00:05:26Z</time>
      </trkpt>
      <trkpt lat="44.90038" lon="5.77848">
        <ele>870</ele>
        <time>2017-12-16T00:05:38Z</time>
      </trkpt>
      <trkpt lat="44.90022" lon="5.77882">
        <ele>870</ele>
        <time>2017-12-16T00:05:54Z</time>
      </trkpt>
      <trkpt lat="44.89992" lon="5.77962">
        <ele>864</ele>
        <time>2017-12-16T00:06:08Z</time>
      </trkpt>
      <trkpt lat="44.89985" lon="5.77996">
        <ele>865</ele>
        <time>2017-12-16T00:06:14Z</time>
      </trkpt>
      <trkpt lat="44.89987" lon="5.78019">
        <ele>866</ele>
        <time>2017-12-16T00:06:24Z</time>
      </trkpt>
      <trkpt lat="44.89991" lon="5.78026">
        <ele>865</ele>
        <time>2017-12-16T00:06:42Z</time>
      </trkpt>
      <trkpt lat="44.90003" lon="5.78037">
        <ele>869</ele>
        <time>2017-12-16T00:06:58Z</time>
      </trkpt>
      <trkpt lat="44.90034" lon="5.78053">
        <ele>870</ele>
        <time>2017-12-16T00:07:12Z</time>
      </trkpt>
      <trkpt lat="44.90053" lon="5.78069">
        <ele>869</ele>
        <time>2017-12-16T00:07:21Z</time>
      </trkpt>
      <trkpt lat="44.90068" lon="5.78106">
        <ele>868</ele>
        <time>2017-12-16T00:07:28Z</time>
      </trkpt>
      <trkpt lat="44.90099" lon="5.78185">
        <ele>868</ele>
        <time>2017-12-16T00:07:34Z</time>
      </trkpt>
      <trkpt lat="44.9011" lon="5.78179">
        <ele>868</ele>
        <time>2017-12-16T00:07:41Z</time>
      </trkpt>
      <trkpt lat="44.90128" lon="5.78161">
        <ele>868</ele>
        <time>2017-12-16T00:07:50Z</time>
      </trkpt>
      <trkpt lat="44.90162" lon="5.78132">
        <ele>869</ele>
        <time>2017-12-16T00:07:58Z</time>
      </trkpt>
      <trkpt lat="44.90173" lon="5.78126">
        <ele>874</ele>
        <time>2017-12-16T00:08:06Z</time>
      </trkpt>
      <trkpt lat="44.90195" lon="5.78124">
        <ele>875</ele>
        <time>2017-12-16T00:08:08Z</time>
      </trkpt>
      <trkpt lat="44.9024" lon="5.78128">
        <ele>878</ele>
        <time>2017-12-16T00:08:23Z</time>
      </trkpt>
      <trkpt lat="44.90271" lon="5.7813">
        <ele>884</ele>
        <time>2017-12-16T00:08:38Z</time>
      </trkpt>
      <trkpt lat="44.90291" lon="5.78135">
        <ele>884</ele>
        <time>2017-12-16T00:08:51Z</time>
      </trkpt>
      <trkpt lat="44.9031" lon="5.78142">
        <ele>883</ele>
        <time>2017-12-16T00:09:09Z</time>
      </trkpt>
      <trkpt lat="44.90337" lon="5.78155">
        <ele>883</ele>
        <time>2017-12-16T00:09:23Z</time>
      </trkpt>
      <trkpt lat="44.90397" lon="5.78185">
        <ele>878</ele>
        <time>2017-12-16T00:09:27Z</time>
      </trkpt>
      <trkpt lat="44.90476" lon="5.78232">
        <ele>876</ele>
        <time>2017-12-16T00:09:36Z</time>
      </trkpt>
      <trkpt lat="44.90489" lon="5.78239">
        <ele>875</ele>
        <time>2017-12-16T00:09:44Z</time>
      </trkpt>
      <trkpt lat="44.90516" lon="5.78247">
        <ele>875</ele>
        <time>2017-12-16T00:09:51Z</time>
      </trkpt>
      <trkpt lat="44.90634" lon="5.78289">
        <ele>877</ele>
        <time>2017-12-16T00:10:04Z</time>
      </trkpt>
      <trkpt lat="44.90635" lon="5.78331">
        <ele>877</ele>
        <time>2017-12-16T00:10:21Z</time>
      </trkpt>
      <trkpt lat="44.90632" lon="5.78369">
        <ele>881</ele>
        <time>2017-12-16T00:10:26Z</time>
      </trkpt>
      <trkpt lat="44.90629" lon="5.78397">
        <ele>882</ele>
        <time>2017-12-16T00:10:45Z</time>
      </trkpt>
      <trkpt lat="44.90627" lon="5.78399">
        <ele>882</ele>
        <time>2017-12-16T00:11:02Z</time>
      </trkpt>
      <trkpt lat="44.90621" lon="5.78399">
        <ele>882</ele>
        <time>2017-12-16T00:11:18Z</time>
      </trkpt>
      <trkpt lat="44.90616" lon="5.78399">
        <ele>882</ele>
        <time>2017-12-16T00:11:35Z</time>
      </trkpt>
      <trkpt lat="44.90614" lon="5.78405">
        <ele>883</ele>
        <time>2017-12-16T00:11:48Z</time>
      </trkpt>
      <trkpt lat="44.90613" lon="5.7841">
        <ele>883</ele>
        <time>2017-12-16T00:12:08Z</time>
      </trkpt>
      <trkpt lat="44.90626" lon="5.78419">
        <ele>885</ele>
        <time>2017-12-16T00:12:17Z</time>
      </trkpt>
      <trkpt lat="44.90632" lon="5.78423">
        <ele>885</ele>
        <time>2017-12-16T00:12:24Z</time>
      </trkpt>
      <trkpt lat="44.90631" lon="5.78437">
        <ele>885</ele>
        <time>2017-12-16T00:12:41Z</time>
      </trkpt>
      <trkpt lat="44.90629" lon="5.78484">
        <ele>885</ele>
        <time>2017-12-16T00:12:46Z</time>
      </trkpt>
      <trkpt lat="44.90636" lon="5.78505">
        <ele>883</ele>
        <time>2017-12-16T00:12:55Z</time>
      </trkpt>
      <trkpt lat="44.90657" lon="5.7849">
        <ele>884</ele>
        <time>2017-12-16T00:13:03Z</time>
      </trkpt>
    </trkseg>
  </trk>
</gpx>